[[{"header":{"parameterUnit":"m.s-1","parameterCategory":1,"la1":30.6,"la2":29.2853,"lo1":-89.7004,"lo2":-87.6739,"dy":0.0162,"dx":0.0183,"nx":112,"ny":82,"refTime":"2023-05-08T12:00:00:Z","depth":0,"parameterNumber":2,"parameterNumberName":"U-component_of_WINDS"},"data":[0.0,0.0,0.0,0.0,0.0,0.0,0.0,0.0,0.0,0.0,0.0,0.0,0.0,0.0,0.0,0.0,0.0,0.0,0.0,0.0,0.0,0.0,0.0,0.0,0.0,0.0,0.0,0.0,0.0,0.0,0.0,0.0,0.0,0.0,0.0,0.0,0.0,0.0,0.0,0.0,0.0,0.0,0.0,0.0,0.0,0.0,0.0,0.0,0.0,0.0,0.0,0.0,0.0,0.0,0.0,0.0,0.0,0.0,0.0,0.0,0.0,0.0,0.0,0.0,0.0,0.0,0.0,0.0,0.0,0.0,0.0,0.0,0.0,0.0,0.0,0.0,0.0,0.0,0.0,0.0,0.0,0.0,0.0,0.0,0.0,0.0,0.0,0.0,0.0,0.0,0.0,0.5013,0.5492,0.6436,0.7906,0.8264,0.8579,0.8928,0.0,0.0,0.0,0.0,0.0,0.0,0.0,0.0,0.0,0.0,0.0,0.0,0.0,0.0,0.0,0.0,0.0,0.0,0.0,0.0,0.0,0.0,0.0,0.0,0.0,0.0,0.0,0.0,0.0,0.0,0.0,0.0,0.0,0.0,0.0,0.0,0.0,0.0,0.0,0.0,0.0,0.0,0.0,0.0,0.0,0.0,0.0,0.0,0.0,0.0,0.0,0.0,0.0,0.0,0.0,0.0,0.0,0.0,0.0,0.0,0.0,0.0,0.0,0.0,0.0,0.0,0.0,0.0,0.0,0.0,0.0,0.0,0.0,0.0,0.0,0.0,0.0,0.0,0.0,0.0,0.0,0.0,0.0,0.0,0.0,0.0,0.0,0.0,0.0,0.0,0.0,0.0,0.0,0.0,0.0,0.0,0.0,0.0,0.0,0.0,0.0,0.0,0.0,0.0,0.5528,0.4971,0.5304,0.5906,0.6778,0.6505,0.6839,0.8175,0.0,0.0,0.0,0.0,0.0,0.0,0.0,0.0,0.0,0.0,0.0,0.0,0.0,0.0,0.0,0.0,0.0,0.0,0.0,0.0,0.0,0.0,0.0,0.0,0.0,0.0,0.0,0.0,0.0,0.0,0.0,0.0,0.0,0.0,0.0,0.0,0.0,0.0,0.0,0.0,0.0,0.0,0.0,0.0,0.0,0.0,0.0,0.0,0.0,0.0,0.0,0.0,0.0,0.0,0.0,0.0,0.0,0.0,0.0,0.0,0.0,0.0,0.0,0.0,0.0,0.0,0.0,0.0,0.0,0.0,0.0,0.0,0.0,0.0,0.0,0.0,0.0,0.0,0.0,0.0,0.0,0.0,0.0,0.0,0.0,0.0,0.0,0.0,0.0,0.0,0.0,0.0,0.0,0.0,0.0,0.0,0.0,0.0,0.0,0.0,0.0,0.0,0.0,0.5893,0.505,0.4383,0.4574,0.5045,0.577,0.5341,0.5814,0.7607,0.7682,0.0,0.0,0.0,0.0,0.0,0.0,0.0,0.0,0.0,0.0,0.0,0.0,0.0,0.0,0.0,0.0,0.0,0.0,0.0,0.0,0.0,0.0,0.0,0.0,0.0,0.0,0.0,0.0,0.0,0.0,0.0,0.0,0.0,0.0,0.0,0.0,0.0,0.0,0.0,0.0,0.0,0.0,0.0,0.0,0.0,0.0,0.0,0.0,0.0,0.0,0.0,0.0,0.0,0.0,0.0,0.0,0.0,0.0,0.0,0.0,0.0,0.0,0.0,0.0,0.0,0.0,0.0,0.0,0.0,0.0,0.0,0.0,0.0,0.0,0.0,0.0,0.0,0.0,0.0,0.0,0.0,0.0,0.0,0.0,0.0,0.0,0.0,0.0,0.0,0.0,0.0,0.0,0.0,0.0,0.0,0.0,0.0,0.0,0.0,0.0,0.0,0.0,0.5818,0.4714,0.3906,0.4013,0.4354,0.4875,0.4602,0.5172,0.7007,0.6586,0.0,0.0,0.0,0.0,0.0,0.0,0.0,0.0,0.0,0.0,0.0,0.0,0.0,0.0,0.0,0.0,0.0,0.0,0.0,0.0,0.0,0.0,0.0,0.0,0.0,0.0,0.0,0.0,0.0,0.0,0.0,0.0,0.0,0.0,0.0,0.0,0.0,0.0,0.0,0.0,0.0,0.0,0.0,0.0,0.0,0.0,0.0,0.0,0.0,0.0,0.0,0.0,0.0,0.0,0.0,0.0,0.0,0.0,0.0,0.0,0.0,0.0,0.0,0.0,0.0,0.0,0.0,0.0,0.0,0.0,0.0,0.0,0.0,0.0,0.0,0.0,0.0,0.0,0.0,0.0,0.0,0.0,0.0,0.0,0.0,0.0,0.0,0.0,0.0,0.0,0.0,0.0,0.0,0.0,0.0,0.0,0.0,0.0,0.0,0.0,0.0,0.0,0.6194,0.4989,0.3992,0.4131,0.4233,0.4092,0.4288,0.4944,0.6205,0.664,0.0,0.0,0.0,0.0,0.0,0.0,0.0,0.0,0.0,0.0,0.0,0.0,0.0,0.0,0.0,0.0,0.0,0.0,0.0,0.0,0.0,0.0,0.0,0.0,0.0,0.0,0.0,0.0,0.0,0.0,0.0,0.0,0.0,0.0,0.0,0.0,0.0,0.0,0.0,0.0,0.0,0.0,0.0,0.0,0.0,0.0,0.0,0.0,0.0,0.0,0.0,0.0,0.0,0.0,0.0,0.0,0.0,0.0,0.0,0.0,0.0,0.0,0.0,0.0,0.0,0.0,0.0,0.0,0.0,0.0,0.0,0.0,0.0,0.0,0.0,0.0,0.0,0.0,0.0,0.0,0.0,0.0,0.0,0.0,0.0,0.0,0.0,0.0,0.0,0.0,0.0,0.0,0.0,0.0,0.0,0.0,0.0,0.0,0.0,0.0,0.0,0.0,0.7037,0.553,0.0,0.422,0.4291,0.425,0.4336,0.5039,0.6536,0.0,0.0,0.0,0.0,0.0,0.0,0.0,0.0,0.0,0.0,0.0,0.0,0.0,0.0,0.0,0.0,0.0,0.0,0.0,0.0,0.0,0.0,0.0,0.0,0.0,0.0,0.0,0.0,0.0,0.0,0.0,0.0,0.0,0.0,0.0,0.0,0.0,0.0,0.0,0.0,0.0,0.0,0.0,0.0,0.0,0.0,0.0,0.0,0.0,0.0,0.0,0.0,0.0,0.0,0.0,0.0,0.0,0.0,0.0,0.0,0.0,0.0,0.0,0.0,0.0,0.0,0.0,0.0,0.0,0.0,0.0,0.0,0.0,0.0,0.0,0.0,0.0,0.0,0.0,0.0,0.0,0.0,0.0,0.0,0.0,0.0,0.0,0.0,0.0,0.0,0.0,0.0,0.0,0.0,0.0,0.0,0.0,0.0,0.0,0.0,0.0,0.0,0.9578,0.8004,0.6345,0.0,0.4721,0.471,0.4544,0.4567,0.5261,0.6831,0.0,0.0,0.0,0.0,0.0,0.0,0.0,0.0,0.0,0.0,0.0,0.0,0.0,0.0,0.0,0.0,0.0,0.0,0.0,0.0,0.0,0.0,0.0,0.0,0.0,0.0,0.0,0.0,0.0,0.0,0.0,0.0,0.0,0.0,0.0,0.0,0.0,0.0,0.0,0.0,0.0,0.0,0.0,0.0,0.0,0.0,0.0,0.0,0.0,0.0,0.0,0.0,0.0,0.0,0.0,0.0,0.0,0.0,0.0,0.0,0.0,0.0,0.0,0.0,0.0,0.0,0.0,0.0,0.0,0.0,0.0,0.0,0.0,0.0,0.0,0.0,0.0,0.0,0.0,0.0,0.0,0.0,0.0,0.0,0.0,0.0,0.0,0.0,0.0,0.0,0.0,0.0,0.0,0.0,0.0,0.0,0.0,0.0,0.0,0.0,0.0,0.0,1.0429,0.9004,0.7464,0.577,0.5726,0.5531,0.4863,0.4926,0.5573,0.0,0.0,0.0,0.0,0.0,0.0,0.0,0.0,0.0,0.0,0.0,0.0,0.0,0.0,0.0,0.0,0.0,0.0,0.0,0.0,0.0,0.0,0.0,0.0,0.0,0.0,0.0,0.0,0.0,0.0,0.0,0.0,0.0,0.0,0.0,0.0,0.0,0.0,0.0,0.0,0.0,0.0,0.0,0.0,0.0,0.0,0.0,0.0,0.0,0.0,0.0,0.0,0.0,0.0,0.0,0.0,0.0,0.0,0.0,0.0,0.0,0.0,0.0,0.0,0.0,0.0,0.0,0.0,0.0,0.0,0.0,0.0,0.0,0.0,0.0,0.0,0.0,0.0,0.0,0.0,0.0,0.0,0.0,0.0,0.0,0.0,0.0,0.0,0.0,0.0,0.0,0.0,0.0,0.0,0.0,0.0,0.0,0.0,0.0,0.0,0.0,0.0,0.0,1.044,0.8902,0.7303,0.5773,0.5637,0.538,0.4715,0.4775,0.551,0.7045,0.0,0.0,0.0,0.0,0.0,0.0,0.0,0.0,0.0,0.0,0.0,0.0,0.0,0.0,0.0,0.0,0.0,0.0,0.0,0.0,0.0,0.0,0.0,0.0,0.0,0.0,0.0,0.0,0.0,0.0,0.0,0.0,0.0,0.0,0.0,0.0,0.0,0.0,0.0,0.0,0.0,0.0,0.0,0.0,0.0,0.0,0.0,0.0,0.0,0.0,0.0,0.0,0.0,0.0,0.0,0.0,0.0,0.0,0.0,0.0,0.0,0.0,0.0,0.0,0.0,0.0,0.0,0.0,0.0,0.0,0.0,0.0,0.0,0.0,0.0,0.0,0.0,0.0,0.0,0.0,0.0,0.0,0.0,0.0,0.0,0.0,0.0,0.0,0.0,0.0,0.0,0.0,0.0,0.0,0.0,0.0,0.0,0.0,0.0,0.0,0.0,0.0,1.0911,0.9159,0.7588,0.6668,0.66,0.6234,0.5201,0.5249,0.5726,0.6657,0.0,0.0,0.0,0.0,0.0,0.0,0.0,0.0,0.0,0.0,0.0,0.0,0.0,0.0,0.0,0.0,0.0,0.0,0.0,0.0,0.0,0.0,0.0,0.0,0.0,0.0,0.0,0.0,0.0,0.0,0.0,0.0,0.0,0.0,0.0,0.0,0.0,0.0,0.0,0.0,0.0,0.0,0.0,0.0,0.0,0.0,0.0,0.0,0.0,0.0,0.0,0.0,0.0,0.0,0.0,0.0,0.0,0.0,0.0,0.0,0.0,0.0,0.0,0.0,0.0,0.0,0.0,0.0,0.0,0.0,0.0,0.0,0.0,0.0,0.0,0.0,0.0,0.0,0.0,0.0,0.0,0.0,0.0,0.0,0.0,0.0,0.0,0.0,0.0,0.0,0.0,0.0,0.0,0.0,0.0,0.0,0.0,0.0,0.0,0.0,0.0,0.0,1.1602,0.9644,0.8158,0.8032,0.8127,0.7603,0.612,0.612,0.6161,0.6096,0.0,0.0,0.0,0.0,0.0,0.0,0.0,0.0,0.0,0.0,0.0,0.0,0.0,0.0,0.0,0.0,0.0,0.0,0.0,0.0,0.0,0.0,0.0,0.0,0.0,0.0,0.0,0.0,0.0,0.0,0.0,0.0,0.0,0.0,0.0,0.0,0.0,0.0,0.0,0.0,0.0,0.0,0.0,0.0,0.0,0.0,0.0,0.0,0.0,0.0,0.0,0.0,0.0,0.0,0.0,0.0,0.0,0.0,0.0,0.0,0.7895,0.0,0.0,0.0,0.0,0.0,0.0,0.0,0.0,0.0,0.0,0.0,0.0,0.0,0.0,0.0,0.0,0.0,0.0,0.0,0.0,0.0,0.0,0.0,0.0,0.0,0.0,0.0,0.0,0.0,0.0,0.0,0.0,0.0,0.0,0.0,0.0,0.0,0.0,0.0,0.0,0.0,1.1557,0.9617,0.8196,0.8159,0.8223,0.7848,0.6769,0.6755,0.678,0.6709,0.6898,0.0,0.0,0.0,0.0,0.0,0.0,0.0,0.0,0.0,0.0,0.0,0.0,0.0,0.0,0.0,0.0,0.0,0.0,0.0,0.0,0.0,0.0,0.0,0.0,0.0,0.0,0.0,0.0,0.0,0.0,0.0,0.0,0.0,0.0,0.0,0.0,0.0,0.0,0.0,0.0,0.0,0.0,0.0,0.0,0.0,0.0,0.0,0.0,0.0,0.0,0.0,0.0,0.0,0.0,0.0,0.0,0.0,0.0,0.0,0.0,0.884,0.0,0.0,0.0,0.0,0.0,0.0,0.0,0.0,0.0,0.0,0.0,0.0,0.0,0.0,0.0,0.0,0.0,0.0,0.0,0.0,0.0,0.0,0.0,0.0,0.0,0.0,0.0,0.0,0.0,0.0,0.0,0.0,0.0,0.0,0.0,0.0,0.0,0.0,0.0,0.0,1.1698,0.9451,0.8029,0.8747,0.886,0.8512,0.7606,0.7553,0.7218,0.6383,0.6774,0.0,0.0,0.0,0.0,0.0,0.0,0.0,0.0,0.0,0.0,0.0,0.0,0.0,0.0,0.0,0.0,0.0,0.0,0.0,0.0,0.0,0.0,0.0,0.0,0.0,0.0,0.0,0.0,0.0,0.0,0.0,0.0,0.0,0.0,0.0,0.0,0.0,0.0,0.0,0.0,0.0,0.0,0.0,0.0,0.0,0.0,0.0,0.0,0.0,0.0,0.0,0.0,0.0,0.9678,1.0031,1.0351,1.0753,1.0223,0.8919,0.7993,0.788,0.8435,0.9432,0.0,0.0,0.0,0.0,0.0,0.0,0.0,0.0,0.0,0.0,0.0,0.0,0.0,0.0,0.0,0.0,0.0,0.0,0.0,0.0,0.0,0.0,0.0,0.0,1.1989,1.2285,1.3016,0.0,0.0,0.0,0.0,0.0,0.0,0.0,0.0,0.0,0.0,0.0,1.1506,0.9268,0.8064,0.9411,0.9557,0.926,0.8498,0.8427,0.7778,0.6241,0.6939,0.7141,0.0,0.0,0.0,0.0,0.0,0.0,0.0,0.0,0.0,0.0,0.0,0.0,0.0,0.0,0.0,0.0,0.0,0.0,0.0,0.0,0.0,0.0,0.0,0.0,0.0,0.0,0.0,0.0,0.0,0.0,0.0,0.0,1.1844,1.1793,0.0,0.0,0.0,0.0,0.0,0.0,0.0,0.0,0.0,0.0,0.0,0.0,0.0,0.7251,0.8134,0.7884,0.8151,0.8955,0.9136,0.9241,0.9327,1.0016,0.9927,0.9274,0.9989,0.0,0.9418,0.958,0.0,0.0,0.0,0.0,0.0,0.0,0.0,0.0,0.0,0.0,0.0,0.0,0.0,0.0,0.0,0.0,0.0,0.0,0.0,0.0,0.0,0.0,1.1131,0.9978,1.0504,1.124,0.0,1.2611,1.4185,1.4949,1.519,0.0,0.0,0.0,0.0,0.0,0.0,0.0,1.0094,0.919,0.8902,0.9666,0.9806,0.973,0.9437,0.9355,0.8939,0.8006,0.8131,0.8302,0.8435,0.794,0.0,0.0,0.0,0.0,0.0,0.0,0.0,0.0,0.0,0.0,0.0,0.0,0.0,0.0,0.0,0.0,0.0,0.0,0.0,0.0,0.0,0.0,0.0,0.0,0.0,0.0,0.0,0.0,0.0,1.2686,1.2137,1.1359,1.1387,1.17,0.0,0.0,0.0,0.0,0.0,0.0,0.0,0.0,0.0,0.7948,0.6999,0.6757,0.7277,0.7526,0.7688,0.7792,0.9032,0.9439,0.9188,1.0116,1.0389,1.0139,1.0128,1.025,1.0446,1.045,1.1022,1.1975,0.0,0.0,0.0,0.0,1.349,1.3763,1.3859,1.4037,1.4237,1.4409,0.0,0.0,0.0,0.0,0.0,0.0,0.0,0.0,0.0,0.0,1.0638,0.9654,0.9821,1.0288,1.063,1.1774,1.3046,0.0,1.5117,1.5695,1.5289,0.0,0.0,0.0,0.0,1.0533,1.0596,0.9515,0.9021,0.9782,0.9875,0.9825,0.9668,0.9636,0.925,0.8413,0.8464,0.8574,0.8735,0.9385,1.024,0.0,0.0,0.0,0.0,0.0,0.0,0.0,0.0,0.0,0.0,0.0,0.0,0.0,0.0,0.0,0.0,0.0,0.0,0.0,0.0,0.0,0.0,0.0,0.0,0.0,0.0,0.0,0.0,1.215,1.1385,1.0665,0.9323,0.8936,0.0,0.0,0.0,0.0,0.0,0.0,0.7365,0.6638,0.6618,0.7508,0.6769,0.65,0.679,0.7271,0.7492,0.7394,0.9083,0.9729,0.9464,1.0411,1.0795,1.0676,1.0233,1.0387,1.0962,1.0792,1.0828,1.1108,1.1984,1.2693,1.3261,1.3373,1.3532,1.3704,1.3934,1.4105,1.4239,1.4489,1.4456,1.4399,1.4726,0.0,0.0,0.0,0.0,1.3207,1.2468,1.1539,1.0602,0.9722,0.9506,0.9696,1.0312,1.115,1.215,0.0,1.4905,1.5801,1.5086,0.0,0.0,0.0,0.0,1.0432,1.0607,0.972,0.9277,0.9857,0.9927,0.9886,0.9788,0.9975,0.9812,0.9177,0.9444,0.966,0.9747,1.0889,1.1496,1.1497,0.0,0.0,0.0,0.0,0.0,0.0,0.0,0.0,0.0,0.0,0.0,0.0,0.0,0.0,0.0,0.0,0.0,0.0,0.0,0.0,0.0,0.0,0.0,0.0,0.0,0.0,0.0,0.0,0.0,0.9514,0.6046,0.0,0.0,0.0,0.0,0.5124,0.4897,0.5296,0.6585,0.5011,0.5009,0.7059,0.6351,0.6473,0.7627,0.7229,0.7599,0.8701,0.9336,0.9779,1.0089,1.0702,1.0776,1.0449,1.0971,1.0994,1.0584,0.9945,1.0864,1.2607,1.1848,1.2506,1.3786,1.3159,1.3338,1.3843,1.3626,1.3828,1.4201,1.4214,1.4433,1.4837,1.5743,1.5471,0.0,0.0,1.4262,1.3376,1.2453,1.1678,1.0884,0.9765,0.9547,0.9614,0.9738,1.0391,1.1469,0.0,1.4335,1.4775,1.4175,0.0,1.3164,1.0755,1.0928,1.0713,0.9053,0.954,1.0012,0.9997,0.9992,0.9987,0.9987,1.0688,1.1125,1.1161,1.1948,1.2462,1.259,1.1888,1.261,1.4993,1.1994,0.0,0.0,0.0,0.0,0.0,0.0,0.0,0.0,0.0,0.0,0.0,0.0,0.0,0.0,0.0,0.0,0.0,0.0,0.0,0.0,0.0,0.0,0.0,0.0,0.0,0.0,0.0,0.0,0.2402,0.0382,0.0,-0.0175,0.0515,0.0898,0.0842,0.1865,0.3162,0.479,0.4736,0.5548,0.7428,0.7152,0.7187,0.7621,0.8545,0.9106,0.9321,1.1002,1.1844,1.1951,1.1783,1.1745,1.1779,1.105,1.0759,1.0728,0.9966,1.0626,1.2127,1.2514,1.3023,1.3532,1.3644,1.3824,1.406,1.418,1.4311,1.4475,1.4611,1.4766,1.4955,1.529,1.5151,1.4895,1.4897,1.4241,1.3427,1.2953,1.2148,1.1205,1.02,1.0031,1.0003,0.9591,1.0278,1.1205,1.2038,1.2851,1.3357,1.3142,1.2717,1.2078,1.1172,1.08,1.0377,0.9687,0.9899,1.0289,1.0775,1.0881,1.1129,1.1691,1.1997,1.2183,1.2194,1.254,1.2976,1.3543,1.3313,1.3338,1.3681,1.307,1.32,0.0,0.0,0.0,0.0,0.0,0.0,0.0,0.0,0.0,0.0,0.0,0.0,0.0,0.0,0.0,0.0,0.0,0.0,0.0,0.0,0.0,0.0,0.0,0.0,0.0,0.0,-0.0469,-0.2122,-0.4097,-0.5194,-0.4904,-0.4464,-0.4161,-0.418,-0.2818,-0.118,0.0602,0.1973,0.3468,0.5164,0.6661,0.7491,0.763,0.9298,1.0138,1.0148,1.2006,1.2709,1.2309,1.0272,0.9453,0.9514,0.7016,0.6928,0.8464,0.7659,0.881,1.1211,1.2366,1.3165,1.3689,1.4144,1.4353,1.4472,1.4965,1.5129,1.5133,1.5311,1.5135,1.4863,1.4883,1.4806,1.4675,1.4581,1.3943,1.3151,1.2498,1.1733,1.0857,0.9812,0.9696,0.9734,0.9394,0.9857,1.0496,1.1088,1.2181,1.2878,1.2323,1.2077,1.1832,1.1504,1.0746,1.0389,1.0914,1.0722,1.0855,1.1671,1.1815,1.2065,1.2642,1.3219,1.3431,1.3118,1.3705,1.417,1.4426,1.4473,1.4383,1.4114,1.4384,1.48,1.5353,0.0,0.0,0.0,0.0,0.0,0.0,0.0,0.0,0.0,0.0,0.0,0.0,0.0,0.0,0.0,0.0,0.0,0.0,0.0,0.0,0.0,0.0,0.0,-0.0833,-0.2188,-0.3658,-0.3721,-0.7253,-0.9244,-0.801,-0.92,-0.9961,-0.9698,-0.8888,-0.7557,-0.5655,-0.3334,-0.1284,0.0404,0.4743,0.7262,0.7643,0.9293,1.0399,1.0927,1.1908,1.1878,1.0786,0.5966,0.3775,0.3545,-0.0855,-0.0293,0.3681,0.2841,0.5343,0.9794,1.139,1.2919,1.4313,1.4589,1.4837,1.5124,1.5916,1.6152,1.6111,1.6207,1.5486,1.4582,1.4617,1.4443,1.4174,1.3899,1.3363,1.2549,1.1012,1.0417,0.9883,0.865,0.8551,0.8811,0.9104,0.9092,0.9385,1.0562,1.2465,1.3379,1.18,1.2214,1.244,1.154,1.0737,0.0,1.2445,1.1945,1.1767,1.2676,1.2767,1.2767,1.281,1.4305,1.4857,1.3992,1.5515,1.6101,1.5329,1.5293,1.5736,1.6719,1.5917,1.6265,1.7874,0.0,0.0,0.0,0.0,0.0,0.0,0.0,0.0,0.0,0.0,0.0,0.0,0.0,0.0,0.0,0.0,0.0,0.0,0.0,0.0,0.0,0.0,-1.0814,-0.6809,-0.8846,-1.1312,-1.2772,-1.3946,-1.4616,-1.4558,-1.276,-1.1461,-1.1139,-0.9396,-0.7266,-0.4851,-0.4059,-0.1343,0.3777,0.5428,0.6369,0.668,0.7809,0.7067,0.4468,0.4883,0.5213,0.5383,0.243,0.1118,0.1094,-0.1059,-0.1132,0.0285,0.0434,0.1919,0.475,1.1355,1.3834,1.3788,1.4393,1.4908,1.5354,1.589,1.6048,1.5894,1.5052,1.4531,1.4073,1.3155,1.2835,1.2621,1.1909,1.2189,1.243,1.1382,1.0564,0.9961,0.9905,0.9614,0.9201,0.8602,0.9237,1.0051,1.0447,1.2037,1.3073,1.2281,1.1831,1.1524,1.1414,1.108,0.0,1.1613,1.1863,1.257,1.4126,1.4114,1.4314,1.5096,1.5624,1.5575,1.4755,1.506,1.5278,1.5308,1.5115,1.5816,1.7533,1.733,1.8024,0.0,0.0,0.0,0.0,0.0,0.0,0.0,0.0,0.0,0.0,0.0,0.0,0.0,0.0,0.0,0.0,0.0,0.0,0.0,0.0,0.0,0.0,-1.5649,-1.5886,-1.397,-1.4537,-1.585,-1.7726,-1.7574,-1.7467,-1.7746,-1.5815,-1.4479,-1.443,-1.2982,-1.1278,-0.9326,-0.8068,-0.5564,-0.1539,0.0679,0.2055,0.2617,0.3428,0.3069,0.1488,-0.1145,-0.1504,0.003,-0.3822,-0.5424,-0.5243,-0.6668,-0.6693,-0.574,-0.5749,-0.4766,0.0,0.0,0.0,0.0,0.0,1.3489,1.594,1.6173,1.6499,1.6339,1.329,1.1618,1.0698,1.0231,0.9277,0.8318,0.8243,0.8068,0.7758,0.7131,0.6372,0.5987,0.6946,0.7204,0.7451,0.8372,0.9364,1.0269,1.1015,1.217,0.0,1.3201,1.2615,1.2146,1.2262,1.187,1.1871,1.2744,1.2731,1.3257,1.4814,1.4719,1.4815,1.5495,1.5856,0.0,0.0,0.0,1.5372,1.5266,1.5166,0.0,0.0,0.0,1.8895,2.0939,2.0448,0.0,0.0,2.2653,2.2225,0.0,0.0,0.0,0.0,0.0,0.0,0.0,0.0,0.0,0.0,0.0,0.0,0.0,0.0,0.0,0.0,-1.9314,-1.9963,-2.1029,-1.9368,-1.8538,-1.9802,-1.9216,-1.8705,-1.8716,-1.8217,-1.7985,-1.8176,-1.777,-1.7075,-1.6026,0.0,0.0,0.0,0.0,-0.3975,-0.282,-0.2358,-0.1539,-0.0464,-0.634,-0.7715,-0.5243,-1.0767,-1.3052,-1.277,-1.4316,-1.3961,-1.2404,-1.312,-1.2374,-1.0026,-0.1986,0.2188,0.3964,0.6252,1.0507,1.5085,1.5087,0.0,0.0,1.0402,0.7348,0.5715,0.6101,0.4482,0.2698,0.3542,0.245,0.0929,0.0523,-0.0237,-0.0514,0.0955,0.2315,0.429,0.7809,0.9287,1.0379,1.1943,1.2675,1.3285,1.4132,1.3821,1.3467,1.3505,1.2832,1.293,1.4601,1.4016,1.3878,1.505,0.0,0.0,1.4888,1.5427,1.5413,1.4621,1.5571,1.5838,1.5133,1.5363,1.625,1.7771,1.7956,1.9204,2.1556,2.1562,2.1929,2.2596,2.1245,2.0957,0.0,0.0,0.0,0.0,0.0,0.0,0.0,0.0,0.0,0.0,0.0,0.0,0.0,0.0,0.0,-2.0345,-2.1388,-2.2412,-2.3333,-2.307,-2.2296,-2.0998,-2.0687,-2.0281,-1.9473,-1.9305,-1.8925,-1.8187,-1.8264,-1.7811,-1.6535,-1.6196,-1.3643,-0.8354,-0.8293,-0.719,-0.4783,-0.5585,-0.7012,-0.9036,0.0,0.0,-1.0328,-1.2262,-1.3182,-1.3295,-1.4365,-1.42,-1.3213,-1.3794,-1.357,-1.2171,-0.5418,-0.0685,0.2431,0.3114,0.4427,0.5856,0.5802,0.5953,0.5785,0.3693,0.2712,0.2083,0.0672,-0.0134,0.0,-0.059,-0.086,-0.1495,-0.285,-0.4728,-0.6372,-0.6695,-0.3438,0.0746,0.4489,0.8511,1.1614,1.2395,1.3219,1.3748,1.361,1.3315,1.3217,1.3531,1.33,1.3216,1.3579,1.404,1.4696,1.5579,1.541,1.5325,1.5498,1.545,1.5123,1.4471,1.4942,1.5011,1.4502,1.5638,1.6801,1.7868,1.8523,1.9472,2.0735,2.0681,2.0759,2.0997,2.2009,2.2168,0.0,0.0,0.0,0.0,0.0,0.0,0.0,0.0,0.0,0.0,0.0,-1.8949,0.0,0.0,-2.1763,-2.2408,-2.3036,-2.3744,-2.4582,-2.4697,-2.4187,-2.2819,-2.2292,-2.17,-2.0789,-2.0337,-1.9875,-1.9348,-1.9044,-1.8566,-1.7793,-1.7109,-1.5449,-1.2598,-1.2802,-1.2151,-1.0466,-1.0881,-1.1827,-1.3246,-1.284,-1.3235,-1.4303,-1.4028,-1.4384,-1.5256,-1.5321,-1.5153,-1.4796,-1.4867,-1.4931,-1.4577,-1.0972,-0.7532,-0.4569,-0.3894,-0.3918,-0.4264,-0.4307,-0.4269,-0.433,-0.475,-0.492,-0.5012,-0.5625,-0.5647,-0.5638,-0.6382,-0.6027,-0.5585,-0.6439,-0.7541,-0.8401,-0.8404,-0.5305,-0.1508,0.1531,0.7607,1.253,1.2791,1.3468,1.3818,1.3257,1.3405,1.3694,1.3923,1.3871,1.3904,1.4167,1.4453,1.486,1.5435,1.5077,1.4879,1.5047,1.4778,1.4491,1.4253,1.4526,1.4626,1.4456,1.5643,1.6759,1.7725,1.863,1.9554,2.0504,2.0463,2.0464,2.0519,2.1365,2.1466,0.0,0.0,0.0,0.0,0.0,0.0,0.0,0.0,-1.9295,-1.9351,-2.0488,-2.1522,-2.1658,-2.2412,-2.3237,-2.3992,-2.4235,-2.4562,-2.5207,-2.5178,-2.4848,-2.4264,-2.3478,-2.2625,-2.163,-2.0957,-2.0543,-2.0482,-1.9834,-1.9357,-1.9195,-1.7916,-1.7312,-1.7627,-1.7388,-1.6816,-1.5858,-1.5823,-1.5691,-1.5446,-1.4571,-1.5117,-1.6923,-1.5759,-1.5919,-1.7127,-1.6481,-1.6407,-1.6706,-1.6279,-1.6435,-1.6879,-1.617,-1.4491,-1.231,-1.0935,-1.1155,-1.2125,-1.2079,-1.2073,-1.2051,-1.1616,-1.1393,-1.1225,-1.0788,-1.0495,-1.049,-1.1229,-1.0563,-0.9565,-0.9466,-0.9288,-0.9015,-0.8527,-0.6203,-0.3395,-0.0867,0.5698,1.1595,1.33,1.3736,1.3633,1.3008,1.3549,1.4119,1.423,1.4205,1.4314,1.4693,1.4465,1.4411,1.484,1.4395,1.4111,1.4211,1.4061,1.3955,1.3935,1.4223,1.453,1.4775,1.5632,1.6625,1.7771,1.8627,1.9503,2.0446,2.0475,2.0488,2.0486,2.05,2.0444,-1.6219,-1.6244,-1.6447,-1.7617,-1.8253,-1.8853,0.0,0.0,-2.0897,-2.0714,-2.1676,-2.2342,-2.1731,-2.2946,-2.407,-2.4159,-2.475,-2.5187,-2.5284,-2.4678,-2.4226,-2.4194,-2.3485,-2.2377,-2.0795,-2.0552,-2.0482,-2.0422,-2.0321,-2.0255,-2.0223,-2.0055,-1.9503,-1.8498,-1.9439,-1.8934,-1.6781,-1.7785,-1.7759,-1.6704,-1.6748,-1.691,-1.7155,-1.7118,-1.7208,-1.736,-1.7264,-1.7787,-1.8643,-1.813,-1.8164,-1.8537,-1.8431,-1.7708,-1.6464,-1.4227,-1.332,-1.3182,-1.3082,-1.3125,-1.3148,-1.2601,-1.2128,-1.1796,-1.2128,-1.2552,-1.2724,-1.1886,-1.1716,-1.1599,-1.0862,-1.0225,-0.9856,-1.0501,-0.8531,-0.5588,-0.2167,0.1355,0.6165,1.3997,1.4236,1.3136,1.2922,1.3287,1.37,1.4079,1.3879,1.3645,1.3513,1.3006,1.2928,1.3613,1.3629,1.3573,1.3599,1.3956,1.3954,1.3428,1.402,1.4731,1.546,1.588,1.6847,1.8458,1.8714,1.9289,2.0238,2.0351,2.0408,2.0409,2.0467,2.0465,-1.7052,-1.7732,0.0,0.0,-1.9734,-2.0456,-2.106,-2.1825,-2.2439,-2.2552,-2.3389,-2.4039,-2.3843,-2.4406,-2.489,0.0,-2.5125,-2.5139,-2.4678,-2.4322,-2.3763,-2.2858,-2.2444,-2.2004,-2.1385,-2.0829,-2.0475,-2.0414,-2.0357,-2.028,-2.0164,-2.0196,-1.9928,-1.9322,-1.9935,-1.9659,-1.8364,-1.8701,-1.8687,-1.8354,-1.8149,-1.835,-1.882,-1.8391,-1.8206,-1.8228,-1.8591,-1.9065,-1.9533,-1.8912,-1.8934,-1.9295,-1.9097,-1.8574,-1.7803,-1.6783,-1.5735,-1.4948,-1.5661,-1.5194,-1.4366,-1.4565,-1.3882,-1.3129,-1.3629,-1.3774,-1.3742,-1.3616,-1.3226,-1.2706,-1.2068,-1.1437,-1.092,-1.0644,-0.9725,-0.8316,-0.6333,-0.2652,0.1733,0.6796,0.8537,1.0216,1.3396,1.369,1.3359,1.2938,1.3263,1.2697,1.033,1.2411,1.4343,1.5009,1.4628,1.4247,1.4047,1.4787,1.5088,1.4709,1.5321,1.5827,1.6166,1.6835,1.7609,1.8465,1.9337,1.9938,2.0256,2.0386,2.039,2.0289,2.0395,2.0441,-1.8199,0.0,0.0,-2.0234,-2.1096,-2.197,-2.215,-2.3008,-2.3851,-2.4156,-2.4735,-2.5164,-2.5081,-2.5272,-2.5344,-2.511,-2.5208,-2.5119,-2.4514,-2.4033,-2.3416,-2.2508,-2.1764,-2.1494,-2.1855,-2.1024,-2.0441,-2.037,-2.0324,-2.0229,-2.0093,-2.012,-2.0208,-2.0298,-2.0463,-2.0514,-2.0391,-1.9969,-1.9825,-1.9972,-1.943,-1.9468,-2.0007,-1.9473,-1.9235,-1.9246,-1.9675,-1.996,-2.006,-1.9562,-1.9519,-1.9785,-1.9721,-1.9408,-1.8986,-1.9043,-1.7988,-1.6653,-1.7418,-1.6713,-1.5487,-1.5751,-1.5045,-1.4126,-1.445,-1.4605,-1.4715,-1.4854,-1.46,-1.4062,-1.3215,-1.2775,-1.2252,-1.1162,-1.0981,-1.0778,-0.982,-0.6636,-0.35,-0.2029,0.0964,0.5233,1.1373,1.0879,0.9951,1.0794,1.0648,0.9684,0.7578,1.1161,1.434,1.5489,1.5277,1.4962,1.4799,1.5558,1.6049,1.6028,1.651,1.6911,1.7185,1.7833,1.8412,1.8826,1.9901,2.0383,2.0268,2.0401,2.0504,2.0573,2.0446,2.0532,0.0,0.0,-2.1349,-2.1349,-2.2298,-2.3276,-2.3408,-2.422,-2.5015,-2.5215,-2.5327,-2.5154,-2.4386,-2.4921,-2.5215,-2.4368,-2.489,-2.5368,-2.5284,-2.387,-2.3165,-2.4029,-2.1943,-2.0818,0.0,-2.0989,-2.039,-2.0319,-2.0294,-2.0292,-2.0301,-2.028,-2.0677,-2.1514,-2.1494,-2.1924,-2.2892,-2.2032,-2.1555,-2.1425,-2.0698,-2.0253,-2.0092,-2.0265,-2.0331,-2.0265,-2.0257,-2.0296,-2.0285,-2.0277,-2.0153,-2.0052,-2.0702,-2.0838,-2.0756,-2.108,-1.9886,-1.8055,-1.7566,-1.702,-1.6409,-1.5534,-1.4897,-1.4451,-1.4182,-1.5122,-1.6068,-1.5159,-1.5647,-1.6022,-1.446,-1.4246,-1.4085,-1.2746,-1.2645,-1.2531,-1.1454,-1.0634,-1.0333,-1.1058,-0.7596,-0.2163,0.536,0.2968,0.1884,0.7387,0.5087,0.36,0.6025,0.8686,1.1319,1.3894,1.4895,1.5488,1.5742,1.6034,1.6382,1.6849,1.7122,1.7682,1.8604,1.8659,1.9068,1.9923,2.0183,2.0277,2.0208,2.0344,2.08,2.1545,2.0688,2.0789,0.0,0.0,-2.307,-2.4236,-2.441,-2.4478,-2.5202,-2.5165,-2.4912,-2.4582,-2.4522,-2.4292,-2.3489,-2.3533,-2.3809,-2.4154,-2.4393,-2.4521,-2.4514,-2.4033,-2.3584,-2.3353,-2.262,0.0,0.0,0.0,0.0,-2.1197,-2.0642,-2.0797,-2.1899,-2.1963,-2.2098,-2.2381,-2.2987,-2.3156,-2.2866,-2.271,-2.2277,-2.1567,-2.0774,-2.0351,-2.0291,-2.0328,-2.0662,-2.1191,-2.0579,-2.0627,-2.1114,-2.0535,-2.0573,-2.1007,-2.1147,-2.1525,-2.1909,-2.1224,-2.0441,-1.9729,-1.967,-1.8632,-1.7293,-1.6946,-1.6428,-1.5843,-1.5626,-1.6457,-1.7354,-1.6692,-1.6744,-1.6682,-1.5112,-1.4737,-1.4511,-1.353,-1.4011,-1.4314,-1.3001,-1.2698,-1.2691,-1.2496,-1.1858,-0.9287,-0.2876,-0.343,-0.386,-0.1132,0.1629,0.4946,0.9197,1.1046,1.3208,1.6345,1.6956,1.7168,1.7246,1.7871,1.8314,1.8484,1.8832,1.9161,1.9475,1.9504,1.9637,1.992,2.0317,2.0365,2.0069,2.0282,2.0408,2.0399,2.0333,2.0465,-2.3514,-2.4272,-2.5013,-2.6246,-2.5872,-2.5418,-2.6142,-2.5466,-2.4481,-2.3784,-2.3648,-2.3281,-2.2183,-2.2188,-2.2566,-2.3137,-2.323,-2.3422,-2.4023,-2.3841,-2.3664,-2.3785,-2.3323,-2.3135,0.0,0.0,0.0,-2.2153,-2.1595,-2.172,-2.2815,-2.2824,-2.2945,-2.3257,-2.3874,-2.4048,-2.3728,-2.3573,-2.2854,-2.1586,-2.1102,-2.0688,-2.0371,-2.0721,-2.1003,-2.1211,-2.0951,-2.0963,-2.1152,-2.0875,-2.1081,-2.1611,-2.2029,-2.2543,-2.2917,-2.1687,-2.115,-2.0944,-2.0351,-1.9251,-1.8057,-1.7734,-1.7465,-1.7163,-1.6775,-1.7305,-1.7927,-1.7424,-1.7288,-1.6968,-1.5833,-1.5672,-1.5613,-1.4716,-1.5586,-1.6123,-1.4486,-1.46,-1.4771,-1.3967,-1.4504,-1.3263,-0.7565,-0.6322,-0.6622,-0.8188,-0.3356,0.249,0.8065,1.1433,1.4511,1.7672,1.8008,1.8125,1.8437,1.8984,1.9308,1.9325,1.9846,2.0019,1.9727,1.983,1.9972,2.0154,2.0284,2.0318,2.0206,2.0359,2.0448,2.0487,2.0361,2.0458,-2.4861,-2.5922,-2.7042,-2.7368,-2.6741,-2.6076,-2.6269,-2.5124,-2.3783,-2.2908,-2.2697,-2.2197,0.0,0.0,-2.1553,-2.1617,-2.1654,-2.2242,-2.3936,-2.3456,-2.3537,0.0,0.0,0.0,0.0,0.0,0.0,-2.3247,0.0,-2.2963,-2.313,-2.2951,-2.3268,-2.4118,-2.4225,-2.4631,-2.5391,-2.4605,-2.3342,-2.1667,-2.1694,-2.1211,-2.0332,-2.1367,-2.1328,-2.0527,-2.1406,-2.1317,-2.0609,-2.1351,-2.1735,-2.1961,-2.3293,-2.3887,-2.3823,-2.2563,-2.2092,-2.1794,-1.982,-1.9037,-1.8745,-1.7896,-1.8026,-1.8346,-1.762,-1.7667,-1.7896,-1.7504,-1.7274,-1.7081,-1.6675,-1.7022,-1.7238,-1.6349,-1.7241,-1.7835,-1.6072,-1.6422,-1.6778,-1.5829,-1.5929,-1.4524,-0.9351,-0.6747,-0.7478,-1.3609,-0.9636,-0.369,0.2566,0.9508,1.4794,1.7268,1.7891,1.8477,1.9297,1.9375,1.9396,1.9458,2.0172,2.0268,1.9492,1.9768,2.0159,2.0596,2.0152,2.0135,2.0586,2.0528,2.0878,2.1594,2.0704,2.0746,-2.6307,-2.7129,-2.7956,-2.9289,-2.8025,-2.6454,-2.6518,-2.4755,-2.287,-2.2004,-2.135,-2.0985,0.0,0.0,0.0,-2.3129,-2.2904,0.0,-2.4755,-2.4812,0.0,0.0,0.0,-2.4953,-2.518,-2.5105,0.0,0.0,-2.3808,-2.356,-2.473,-2.4186,-2.4204,-2.4965,-2.5058,-2.5182,-2.5312,-2.4525,-2.3639,-2.263,-2.2049,-2.131,-2.0469,-2.0723,-2.1094,-2.1523,-2.1659,-2.1989,-2.2415,-2.2581,-2.3046,-2.3677,-2.4022,-2.4522,-2.488,-2.3803,-2.3282,-2.2948,-2.1671,-2.0623,-1.9812,-1.9584,-1.9688,-1.9731,-1.8947,-1.8951,-1.9163,-1.8646,-1.8278,-1.7942,-1.7458,-1.7282,-1.7411,-1.7822,-1.823,-1.8519,-1.8481,-1.8176,-1.7922,-1.7938,-1.8851,-1.9151,-1.7674,-1.7442,-1.7815,-1.8878,-1.3432,-0.7895,-0.4235,0.4461,1.0555,1.1224,1.6484,2.0039,2.0254,2.0273,2.0289,2.0294,2.0482,2.0522,2.0291,2.0379,2.0489,2.0596,2.0343,2.0269,2.0371,2.0309,2.0351,2.05,2.035,2.0419,-2.7555,-2.8318,-2.8853,-2.9532,-2.8344,-2.6787,-2.5987,-2.4192,-2.2355,-2.1109,-2.0476,0.0,0.0,0.0,0.0,0.0,0.0,0.0,-2.4437,-2.4774,-2.4909,0.0,-2.5391,0.0,-2.5508,-2.5598,-2.5662,0.0,-2.4749,-2.4538,-2.5395,-2.4965,-2.4866,-2.5293,-2.5368,-2.5379,-2.5335,-2.4902,-2.4266,-2.3481,-2.2707,-2.1867,-2.1036,-2.1089,-2.1387,-2.1855,0.0,-2.2296,-2.3105,-2.305,-2.3567,-2.4347,-2.4284,-2.4535,-2.4794,-2.3716,-2.2936,-2.245,-2.2537,-2.1828,-2.0898,-2.0905,-2.1009,-2.0986,-2.016,-1.9914,-1.9753,-1.892,-1.8485,-1.8203,-1.7855,-1.7642,-1.7666,-1.8534,-1.8976,-1.9228,-1.9264,-1.955,-1.9874,-2.0194,-2.0849,-2.1366,-2.1318,-2.1694,-2.1894,-2.1656,-1.7925,-1.4475,-1.2603,-0.2175,0.5823,0.7855,1.2881,1.7305,2.0332,2.0605,2.0449,2.0098,2.0392,2.0437,2.0082,2.0206,2.0387,2.059,2.0287,2.0108,2.0126,2.0672,2.0815,2.054,2.0739,2.0831,-2.8578,-2.9358,-2.971,-2.9079,-2.8174,-2.6958,-2.5064,-2.3461,-2.1956,-2.044,0.0,-2.0117,-2.0512,0.0,-1.9285,-2.231,0.0,-2.0655,-2.3676,-2.4205,-2.4532,-2.5236,-2.5368,-2.5447,-2.5508,-2.5564,-2.5634,-2.5683,-2.5576,-2.5517,-2.5493,-2.5376,-2.5303,-2.5303,-2.536,-2.5388,-2.5402,-2.5406,-2.4966,-2.4101,-2.3454,-2.2705,-2.1875,-2.1893,-2.1855,-2.1816,-2.1988,-2.2456,-2.3104,-2.3336,-2.3864,-2.4531,-2.4303,-2.4304,-2.4336,-2.3222,-2.2287,-2.1765,-2.3072,-2.2889,-2.2118,-2.2117,-2.2185,-2.2101,-2.1324,-2.0767,-2.0133,-1.911,-1.8619,-1.839,-1.8281,-1.8159,-1.8208,-1.892,-1.9477,-1.9749,-1.9321,-2.047,-2.1703,-2.2102,-2.2114,-2.2125,-2.2323,-2.2444,-2.2628,-2.2921,-2.2115,-2.1157,-2.0275,-0.9028,0.0474,0.4661,0.8363,1.2953,1.8964,2.0176,2.0293,1.9609,2.0215,2.0296,1.9593,1.9838,2.0176,2.0586,2.0176,2.0019,2.0164,2.1227,2.1558,2.1198,2.1348,2.1421,-2.9231,-2.9964,-3.0507,-2.9746,-2.8385,-2.6628,-2.4252,-2.247,0.0,0.0,0.0,-2.0432,-2.1863,-2.1435,0.0,-2.259,0.0,0.0,0.0,0.0,-2.5229,0.0,0.0,0.0,0.0,0.0,0.0,0.0,0.0,-2.5558,-2.5493,-2.5441,-2.5354,-2.5313,-2.537,-2.5404,-2.5401,-2.5397,-2.4995,-2.4188,-2.4049,-2.3563,-2.2746,-2.2167,-2.1855,-2.1835,-2.2563,0.0,-2.3112,-2.4514,-2.5219,-2.5317,-2.4562,-2.47,-2.5177,-2.4252,-2.4014,-2.42,-2.444,-2.4213,-2.3767,-2.3781,-2.3386,-2.2898,-2.2765,-2.2044,-2.1222,-2.103,-2.054,-2.0029,-1.9723,-1.9441,-1.9335,-1.9849,-1.9556,-1.9413,-2.0294,-2.044,-2.0853,-2.2383,-2.2533,-2.2671,-2.3524,-2.4273,-2.4538,-2.3898,-2.3269,-2.24,-2.1155,-1.2826,-0.6307,-0.4448,0.538,1.2279,1.3461,1.7891,2.0547,2.0391,2.0527,2.0536,2.0405,2.0453,2.0527,2.0605,2.0358,2.0663,2.1547,2.1108,2.1173,2.1671,2.1216,2.0859,-2.9372,-3.0053,-3.0338,-2.8651,-2.7725,-2.6384,-2.331,0.0,0.0,0.0,0.0,-2.0941,-2.2697,0.0,0.0,0.0,0.0,0.0,0.0,0.0,0.0,0.0,0.0,0.0,0.0,0.0,0.0,0.0,0.0,-2.5567,-2.5493,-2.5406,-2.5346,-2.5352,-2.537,-2.5421,-2.5454,-2.5421,-2.5207,-2.4812,-2.4401,-2.4004,-2.3594,-2.2852,-2.2715,-2.3046,-2.305,-2.3501,-2.4281,-2.4655,-2.5118,-2.5457,-2.4637,-2.4549,-2.4822,-2.4362,-2.3995,-2.3828,-2.4639,-2.444,-2.3915,-2.4362,-2.4024,-2.3365,-2.3152,-2.2768,-2.227,-2.1799,-2.1581,-2.1389,-2.0945,-2.0389,-2.0025,-2.0499,-2.0505,-2.0699,-2.1718,-2.2125,-2.2673,-2.3959,-2.4002,-2.3969,-2.4339,-2.4883,-2.5066,-2.4547,-2.4099,-2.3208,-2.1469,-1.7087,-1.3418,-1.1548,-0.3663,0.3934,1.0123,1.3474,1.6777,2.0371,2.0605,2.0605,2.0605,2.0605,2.0605,2.0605,2.0957,2.1269,2.1543,2.1816,2.2021,2.2144,2.1545,2.121,-2.9246,-2.9903,-2.9959,-2.7659,-2.6952,-2.5939,-2.257,-2.1734,0.0,0.0,-2.1038,-2.1554,-2.3206,0.0,0.0,0.0,0.0,0.0,0.0,0.0,0.0,0.0,0.0,0.0,0.0,0.0,0.0,0.0,0.0,0.0,-2.5493,-2.5406,-2.5352,-2.5395,-2.5434,-2.5453,-2.5492,-2.5453,-2.5432,-2.5432,-2.4794,-2.4501,-2.4473,-2.3709,-2.3669,-2.4176,-2.3514,-2.3938,-2.5082,-2.4638,-2.4857,-2.5393,-2.4583,-2.4388,-2.4531,-2.4274,-2.376,-2.3398,-2.4591,-2.4461,-2.3879,-2.4577,-2.4403,-2.3866,-2.3551,-2.3444,-2.3293,-2.2524,-2.2504,-2.2592,-2.211,-2.1466,-2.1035,-2.134,-2.1671,-2.2185,-2.3075,-2.366,-2.431,-2.5272,-2.5036,-2.4725,-2.479,-2.4896,-2.4956,-2.4965,-2.4447,-2.3451,-2.177,-2.0156,-1.8474,-1.6664,-1.1551,-0.4424,0.5077,0.7242,1.048,1.6097,1.7667,1.8477,1.8633,1.9902,2.0684,2.0879,2.1543,2.1797,2.1602,2.239,2.2639,2.2352,2.1656,2.1406,-2.904,-2.9609,-2.9834,-2.8143,-2.662,-2.491,-2.2372,0.0,0.0,-2.1562,-2.1798,-2.2219,-2.33,-2.3544,-2.3422,0.0,0.0,-2.3013,0.0,0.0,0.0,0.0,0.0,0.0,0.0,0.0,0.0,0.0,0.0,-2.5567,-2.5493,-2.5498,-2.5465,-2.5406,-2.5517,-2.5554,-2.5498,-2.5554,-2.5582,-2.5582,-2.5512,-2.5463,-2.5434,-2.4578,-2.4232,-2.4282,-2.4082,-2.4082,0.0,-2.4937,-2.5283,-2.5322,-2.4466,-2.4641,-2.5293,-2.4436,-2.4441,-2.4899,-2.4962,-2.486,-2.4691,-2.4766,-2.4741,-2.4697,-2.4644,-2.4447,-2.4185,-2.4092,-2.3878,-2.3602,-2.3309,-2.3187,-2.3054,-2.2785,-2.2711,-2.2968,-2.3965,-2.3613,-2.3551,-2.5036,-2.4273,-2.3675,-2.4636,-2.4478,-2.4431,-2.5065,-2.39,-2.2816,-2.244,-2.0254,-1.8815,-1.8949,-1.2288,-0.7115,-0.5293,-0.1397,0.1535,0.2892,0.8178,1.1562,1.2305,1.7656,2.0977,2.1777,2.1855,2.2246,2.293,2.2126,2.1803,2.193,2.0891,2.0523,-2.8154,-2.9219,-2.9696,-2.7603,-2.6227,-2.4778,-2.2354,0.0,0.0,-2.1726,-2.195,-2.2462,-2.4007,-2.441,-2.4278,-2.3531,0.0,0.0,0.0,0.0,0.0,0.0,0.0,0.0,0.0,0.0,0.0,0.0,0.0,-2.5658,-2.5611,-2.5547,-2.5517,-2.5526,-2.5531,-2.5577,-2.5629,-2.5574,-2.5556,-2.56,-2.5601,-2.5609,-2.5592,-2.5191,-2.5016,-2.5005,-2.4889,-2.4832,0.0,-2.5168,-2.5322,-2.5313,-2.5001,-2.5143,-2.5442,-2.5078,-2.5144,-2.5399,-2.5286,-2.5207,-2.5147,-2.5118,-2.5103,-2.5068,-2.4861,-2.4708,-2.4622,-2.47,-2.4661,-2.4601,-2.4601,-2.4238,-2.3683,-2.2901,-2.3185,-2.3725,-2.404,-2.4352,-2.4725,-2.5312,-2.4741,-2.4224,-2.445,-2.4381,-2.4384,-2.4732,-2.4063,-2.3272,-2.2587,-2.0907,-1.9363,-1.8267,-1.6344,-1.3343,-0.885,-0.8026,-0.5194,0.0817,0.2538,0.6013,1.2031,1.3652,1.6777,2.1797,2.1894,2.2051,2.2383,2.1682,2.141,2.1467,2.0507,2.011,-2.6576,-2.7915,-2.8613,-2.6429,-2.5291,-2.4116,0.0,0.0,-2.077,-2.1739,-2.2142,-2.2815,-2.4496,-2.4883,-2.479,-2.432,-2.4158,-2.4187,0.0,0.0,0.0,0.0,0.0,0.0,0.0,0.0,0.0,0.0,0.0,-2.5703,-2.5703,-2.5605,-2.5567,-2.5601,-2.5567,-2.5598,-2.568,-2.5597,-2.5586,-2.5622,-2.5626,-2.5634,-2.5635,-2.5566,-2.5529,-2.5486,-2.539,-2.5322,0.0,-2.5303,-2.5303,-2.5293,-2.5346,-2.5408,-2.5464,-2.5444,-2.5508,-2.5549,-2.543,-2.5414,-2.5421,-2.5368,-2.5354,-2.5329,-2.5075,-2.5003,-2.4998,-2.5077,-2.5149,-2.524,-2.5393,-2.497,-2.43,-2.352,-2.3902,-2.4419,-2.4372,-2.4987,-2.5468,-2.5253,-2.4851,-2.4442,-2.4112,-2.4109,-2.4132,-2.4119,-2.3985,-2.354,-2.2611,-2.1666,-2.0607,-1.9381,-2.0078,-1.8314,-1.2579,-1.3941,-1.2071,-0.4937,-0.3145,0.0824,0.7927,1.0537,1.4512,2.0254,2.1367,2.1894,2.1894,2.1432,2.1136,2.1,2.0247,1.9943,-2.4245,-2.5419,-2.6245,-2.463,-2.3621,-2.2575,0.0,0.0,-2.0758,-2.1619,-2.2428,-2.3361,-2.458,-2.4804,-2.4896,-2.5224,-2.462,0.0,0.0,0.0,0.0,0.0,0.0,0.0,0.0,0.0,0.0,0.0,0.0,0.0,-2.5703,-2.5703,-2.5662,-2.5603,-2.5661,-2.5679,-2.5603,-2.5679,-2.5703,-2.5703,-2.5703,-2.5703,-2.5703,-2.5625,-2.5551,-2.5505,-2.5428,-2.537,0.0,-2.5303,-2.5303,-2.5303,-2.5303,-2.5327,-2.5396,-2.5337,-2.5398,-2.5488,-2.5414,-2.5437,-2.5508,-2.5508,-2.5508,-2.5508,-2.5489,-2.5459,-2.5383,-2.5322,-2.5398,-2.5496,-2.5505,-2.5359,-2.517,-2.5081,-2.5028,-2.5034,-2.5155,-2.5297,-2.5236,-2.464,-2.4205,-2.3836,-2.3565,-2.3515,-2.3433,-2.3244,-2.3449,-2.3332,-2.2593,-2.2421,-2.269,-2.3544,-2.2709,-2.0899,-1.796,-1.9327,-1.9606,-1.7907,-0.9671,-0.4168,-0.2608,0.8984,1.5781,1.6738,2.0137,2.1894,2.1894,2.1432,2.1008,2.0585,2.0117,2.0047,-2.3235,-2.4153,-2.4704,-2.3639,-2.2776,-2.1877,-2.0759,0.0,-2.0754,-2.1723,-2.2609,-2.3526,-2.461,-2.4864,-2.4962,-2.5077,-2.5003,-2.5005,0.0,0.0,0.0,0.0,0.0,0.0,0.0,0.0,0.0,0.0,0.0,-2.6259,-2.5654,-2.6248,-2.6308,-2.5681,-2.5683,-2.5683,-2.568,-2.5683,-2.5703,-2.5703,-2.5703,-2.5703,-2.5703,-2.5583,-2.5526,-2.5493,-2.5387,-2.5322,-2.5303,-2.5303,-2.5303,-2.5303,-2.5303,-2.5329,-2.5401,-2.5389,-2.542,-2.5489,-2.5421,-2.5449,-2.5496,-2.5456,-2.5465,-2.5493,-2.5493,-2.5498,-2.5463,-2.5508,-2.5506,-2.5506,-2.5503,-2.5317,-2.5091,-2.4929,-2.4943,-2.4996,-2.4933,-2.5174,-2.5298,-2.4966,-2.455,-2.4078,-2.3603,-2.3678,-2.3603,-2.2906,-2.2791,-2.2429,-2.1469,-2.119,-2.1073,-2.1027,-2.1306,-2.1204,-2.0467,-2.0774,-1.9952,-1.747,-1.578,-0.9899,0.1208,0.2015,0.7908,2.0019,1.8418,1.8633,2.1016,2.0546,2.0258,2.0112,1.9968,2.0114,0.0,-2.2666,-2.3088,-2.2263,-2.1675,0.0,0.0,0.0,-2.1175,-2.18,-2.2836,-2.3849,-2.4561,-2.4771,-2.4831,-2.4898,-2.5037,0.0,0.0,0.0,0.0,0.0,0.0,0.0,0.0,0.0,0.0,0.0,-2.6034,-2.6126,-2.56,-2.611,-2.6197,-2.5631,-2.5662,-2.5703,-2.5703,-2.5703,-2.5684,-2.5664,-2.5684,-2.5684,-2.5664,-2.558,-2.5522,-2.5496,-2.5387,-2.5312,0.0,-2.5303,-2.5303,-2.5303,-2.5303,-2.5331,-2.5363,-2.5363,-2.5394,-2.5457,-2.542,-2.5447,-2.5497,-2.5488,-2.5515,-2.5587,-2.5587,-2.5543,-2.5511,-2.5579,-2.5546,-2.5484,-2.5385,-2.5164,-2.4935,-2.4718,-2.4814,-2.4886,-2.4815,-2.5041,-2.5178,-2.4881,-2.4525,-2.4058,-2.3491,-2.3522,-2.3416,-2.2767,-2.2542,-2.2293,-2.1864,-2.1517,-2.1393,-2.1552,-2.155,-2.1497,-2.1385,-2.0927,-1.9646,-1.7256,-1.7007,-1.2059,-0.1132,-0.1527,0.3557,1.5332,1.5457,1.646,1.8639,1.9374,1.956,1.9263,1.9586,1.9821,0.0,-2.1015,0.0,0.0,0.0,0.0,0.0,0.0,0.0,-2.1803,-2.3033,-2.4192,-2.4444,-2.4495,-2.4559,-2.4746,-2.479,0.0,0.0,0.0,0.0,0.0,0.0,0.0,0.0,0.0,0.0,0.0,-2.5561,-2.5561,-2.5503,-2.5566,-2.5571,-2.5493,-2.5629,-2.5683,-2.5683,-2.5683,-2.5644,-2.5585,-2.5662,-2.5643,-2.5585,-2.559,-2.5549,0.0,-2.5425,-2.5354,-2.5303,-2.5303,-2.5303,-2.5303,-2.5303,-2.5303,-2.5303,-2.5303,-2.5348,-2.5398,-2.5391,-2.5434,-2.5493,-2.5567,-2.5634,-2.5683,-2.5683,-2.5592,-2.5519,-2.5581,-2.5558,-2.5434,-2.5166,-2.496,-2.4746,-2.4538,-2.4639,-2.4795,-2.4784,-2.4879,-2.486,-2.4478,-2.4217,-2.387,-2.3328,-2.3157,-2.3002,-2.2721,-2.2572,-2.2657,-2.311,-2.2799,-2.2978,-2.4148,-2.2964,-2.1826,-2.1148,-2.0182,-1.8952,-1.7353,-1.4653,-1.1514,-0.7965,-0.2424,0.2003,0.5112,1.1899,1.5393,1.5408,1.8155,1.9106,1.8392,1.9143,1.9383,-1.9528,0.0,-1.9856,-1.962,-1.9583,0.0,0.0,0.0,0.0,0.0,0.0,0.0,0.0,-2.4393,-2.4528,-2.4559,-2.47,0.0,0.0,0.0,0.0,0.0,0.0,0.0,0.0,0.0,0.0,-2.5329,-2.6013,-2.6126,-2.5453,-2.611,-2.6199,-2.5513,-2.5539,-2.5542,-2.554,-2.554,-2.5531,-2.5531,-2.5544,-2.555,-2.5527,-2.5478,-2.5444,-2.5427,-2.5351,-2.5313,-2.5303,-2.5303,-2.5303,-2.5303,-2.5303,-2.5303,-2.5303,-2.5303,-2.5303,-2.5312,-2.5312,-2.5371,-2.5428,-2.5493,-2.552,-2.5551,-2.5551,-2.5564,-2.5582,-2.5607,-2.55,-2.5363,-2.5157,-2.4958,-2.4747,-2.4543,-2.4545,-2.4575,-2.4567,-2.4723,-2.4766,-2.4532,-2.442,-2.4211,-2.3674,-2.3896,-2.3541,-2.177,-2.1971,-2.1755,-2.0131,-2.0505,-2.1239,-2.2045,-2.2108,-2.2038,-2.1867,-2.0649,-1.9038,-1.697,-1.6518,-1.3506,-0.7244,-0.6185,-0.2039,0.5845,1.2195,1.5397,1.5407,1.8715,2.0213,2.0035,2.0229,2.0296,-1.8981,-1.9148,-1.9381,-1.9767,-1.9858,-1.9858,0.0,0.0,0.0,0.0,0.0,0.0,0.0,0.0,0.0,0.0,0.0,0.0,0.0,0.0,0.0,0.0,0.0,0.0,0.0,0.0,0.0,-2.5163,-2.5726,-2.5846,-2.5385,-2.5836,-2.5912,-2.542,-2.542,-2.5434,-2.55,-2.55,-2.5483,-2.5457,-2.5495,-2.5483,-2.5451,-2.5423,-2.5399,-2.5406,-2.5332,-2.5303,-2.5284,-2.5203,-2.5214,-2.5284,-2.5203,-2.5214,-2.5303,-2.5303,-2.5303,-2.5303,-2.5303,-2.5348,-2.5406,-2.5441,-2.5463,-2.5493,-2.5493,-2.5493,-2.5513,-2.5517,-2.5396,-2.5215,-2.5004,-2.4812,-2.4607,-2.441,-2.4426,-2.4495,-2.4495,-2.4594,-2.4572,-2.4317,-2.4192,-2.3983,-2.3548,-2.3188,-2.2703,-2.1989,-2.1356,-2.0788,-2.0323,-2.0511,-2.0971,-2.1766,-2.218,-2.2293,-2.2104,-2.1404,-2.0036,-1.7849,-1.7316,-1.4813,-0.972,-0.8474,-0.3593,0.5555,0.7811,1.0087,1.2521,1.5971,1.7472,1.717,1.9119,2.0062,-1.8585,-1.8877,-1.936,-2.0054,-2.0202,-2.0255,-2.0416,0.0,0.0,0.0,0.0,0.0,0.0,0.0,0.0,0.0,0.0,0.0,0.0,0.0,0.0,0.0,0.0,0.0,0.0,0.0,-2.5203,-2.5065,-2.5203,-2.5303,-2.5303,-2.5274,-2.5253,-2.5253,-2.5233,-2.5283,-2.5383,-2.5446,-2.5434,-2.5381,-2.5439,-2.5439,-2.5374,-2.5369,-2.5388,-2.5368,0.0,0.0,-2.5303,-2.513,-2.5133,-2.5235,-2.5072,-2.5094,-2.5226,-2.5215,-2.5224,-2.5224,-2.5214,-2.5274,-2.5332,-2.5332,-2.5408,-2.5477,-2.5477,-2.5428,-2.5376,-2.5383,-2.526,-2.5079,-2.4864,-2.467,-2.4495,-2.4266,-2.4339,-2.4444,-2.4391,-2.4426,-2.4337,-2.3948,-2.3694,-2.3426,-2.3099,-2.2036,-2.1506,-2.2335,-2.0811,-2.0063,-2.1408,-2.108,-2.1079,-2.2066,-2.2406,-2.2453,-2.2218,-2.2079,-2.1221,-1.9338,-1.767,-1.5403,-1.2342,-0.9326,-0.4024,0.3791,0.2525,0.3986,0.849,1.194,1.3252,1.2692,1.6849,1.8783,-1.8585,-1.866,-1.8752,-1.8858,-1.8894,-1.9128,0.0,0.0,0.0,0.0,0.0,0.0,0.0,0.0,0.0,0.0,0.0,0.0,0.0,0.0,0.0,0.0,0.0,0.0,0.0,-2.5099,-2.5099,-2.5234,-2.5274,-2.5303,-2.5303,-2.5141,-2.5046,-2.5046,-2.4949,-2.4896,-2.4911,-2.5186,-2.534,-2.5322,-2.5322,-2.5322,-2.5322,-2.5322,-2.5313,-2.5313,0.0,-2.5303,-2.5303,-2.5264,-2.5168,-2.5043,-2.5004,-2.4956,-2.4869,-2.487,-2.4885,-2.4873,-2.4877,-2.4956,-2.5061,-2.5061,-2.5186,-2.533,-2.533,-2.5312,-2.5313,-2.5322,-2.5284,-2.5214,-2.4883,-2.4775,-2.4654,-2.4284,-2.4228,-2.4171,-2.3881,-2.4037,-2.4057,-2.3441,-2.3027,-2.2659,-2.2322,-2.2087,-2.1706,-2.096,-2.0607,-2.0245,-1.9756,-1.9489,-1.9773,-2.1004,-2.1511,-2.2002,-2.2548,-2.1978,-2.1311,-2.0718,-1.8322,-1.4755,-0.9873,-0.7764,-0.5065,-0.1485,0.246,0.4902,0.5721,0.9213,1.083,1.0803,1.4362,1.6004,-1.8166,-1.8166,-1.8166,-1.8166,-1.8825,-1.974,0.0,0.0,0.0,0.0,0.0,0.0,0.0,0.0,0.0,0.0,0.0,0.0,0.0,0.0,0.0,0.0,0.0,0.0,0.0,-2.5083,-2.4917,-2.5012,-2.5096,-2.5192,-2.5284,-2.5214,-2.5163,-2.5163,-2.5096,-2.5012,-2.4917,-2.5053,-2.5107,-2.5043,-2.5043,-2.5043,-2.5043,-2.5043,-2.5043,-2.5043,0.0,-2.5072,-2.5141,-2.5049,-2.508,-2.5139,-2.4957,-2.491,-2.4891,-2.4831,-2.4799,-2.4799,-2.4799,-2.4842,-2.4891,-2.4891,-2.4962,-2.5043,-2.5043,-2.5043,-2.4929,-2.4453,-2.4662,-2.4943,-2.4622,-2.4366,-2.4155,-2.3959,-2.3917,-2.3937,-2.3958,-2.3937,-2.3795,-2.3282,-2.2905,-2.2559,-2.227,-2.1527,-2.0973,-2.1042,-2.0378,-1.99,-1.99,-1.9966,-2.0211,-2.0645,-2.1221,-2.1647,-2.1766,-2.1652,-2.0684,-1.8661,-1.7369,-1.4397,-0.9318,-0.9692,-0.7656,-0.2702,-0.166,0.0,0.2348,0.5785,0.7485,0.7597,1.2257,1.4783,-1.7811,-1.7811,-1.7811,-1.7883,-1.8828,0.0,0.0,0.0,0.0,0.0,0.0,0.0,0.0,0.0,0.0,0.0,0.0,0.0,0.0,0.0,0.0,0.0,0.0,0.0,-2.5441,-2.5023,-2.4804,-2.4804,-2.4911,-2.5077,-2.5214,-2.5224,-2.5233,-2.5171,-2.5138,-2.4941,-2.4547,-2.4528,-2.4615,-2.4804,-2.4804,-2.4804,-2.4804,-2.4804,-2.4804,-2.4804,-2.4804,-2.4869,-2.4937,-2.4869,-2.4993,-2.5158,-2.4931,-2.4865,-2.4862,-2.4717,-2.4654,-2.4654,-2.4654,-2.4685,-2.4731,-2.4731,-2.476,-2.4766,-2.4559,-2.4502,-2.4351,-2.3704,-2.3898,-2.4267,-2.4013,-2.3803,-2.3656,-2.3588,-2.3588,-2.3631,-2.3816,-2.3714,-2.3437,-2.293,-2.2476,-2.2065,-2.1697,-2.0574,-2.0043,-2.1001,-2.011,-1.967,-2.0539,-2.0764,-2.0826,-2.0733,-2.1255,-2.143,-2.1023,-2.1275,-2.0131,-1.6964,-1.6395,-1.4186,-0.9855,-1.1084,-0.9349,-0.4069,-0.5134,-0.4038,-0.0588,0.2448,0.3916,0.4056,0.9739,1.2894,-1.7811,-1.7811,-1.7878,-1.8103,-1.826,0.0,-2.0634,-2.0993,0.0,-2.3634,0.0,0.0,0.0,0.0,0.0,0.0,0.0,0.0,0.0,0.0,0.0,0.0,0.0,-2.5426,-2.4661,-2.4723,-2.4804,-2.4804,-2.4911,-2.501,-2.5022,-2.5022,-2.4949,-2.4847,-2.4654,-2.4089,-2.3143,-2.3143,-2.37,-2.4804,-2.4804,-2.4804,-2.4804,-2.4804,-2.4804,-2.4804,-2.4804,-2.4804,-2.4832,-2.4947,-2.4939,-2.4851,-2.4956,-2.4799,-2.4523,-2.432,-2.4247,-2.4247,-2.4247,-2.4357,-2.4528,-2.4528,-2.4639,-2.4653,-2.3855,-2.3591,-2.3591,-2.3515,-2.3238,-2.2941,-2.2923,-2.3211,-2.3466,-2.3287,-2.3253,-2.3165,-2.2873,-2.3045,-2.293,-2.1903,-2.1138,-2.0426,-1.9727,-1.9261,-1.9232,-1.9976,-1.9746,-1.9965,-2.1248,-2.0962,-2.0833,-2.137,-2.1541,-2.143,-2.1023,-2.1039,-2.0158,-1.8012,-1.6302,-1.4181,-1.1522,-0.9428,-0.8246,-0.7989,-0.4991,-0.31,-0.241,-0.0539,0.0352,0.0502,0.6141,0.886,-1.7811,-1.7811,-1.7833,-1.7927,-1.8078,0.0,0.0,-2.0758,-2.0963,-2.2313,-2.2698,0.0,0.0,0.0,0.0,0.0,0.0,0.0,0.0,0.0,0.0,0.0,0.0,-2.5208,-2.4395,-2.4375,-2.4478,-2.4591,-2.4666,-2.4737,-2.4864,-2.4883,-2.4855,-2.4804,-2.4731,-2.4198,-2.3206,-2.3188,-2.3093,-2.2938,-2.3442,-2.3683,-2.3702,-2.4204,-2.4428,-2.4428,-2.4428,-2.4495,-2.4626,-2.4657,-2.4719,-2.4793,-2.4706,-2.4539,-2.4301,-2.4226,-2.419,-2.419,-2.419,-2.4266,-2.4321,-2.4321,-2.4357,-2.4261,-2.3425,-2.3184,-2.3038,-2.233,-2.2225,-2.2455,-2.3073,-2.3123,-2.2975,-2.2905,-2.2531,-2.2223,-2.2318,-2.1749,-2.1206,-2.1238,-2.0683,-2.0245,-2.037,-2.0111,-2.0157,-2.0877,-2.0766,-2.0814,-2.1474,-2.1124,-2.0931,-2.1167,-2.0956,-2.0943,-2.1337,-2.0878,-1.9943,-1.8484,-1.6842,-1.474,-1.212,-1.0498,-0.9162,-0.817,-0.6858,-0.5112,-0.2979,-0.2307,-0.1287,0.0104,0.3592,0.6368,-1.7766,-1.7811,-1.7811,-1.7811,0.0,0.0,-2.0261,-2.0506,-2.0731,-2.1871,0.0,0.0,0.0,0.0,0.0,0.0,0.0,0.0,0.0,0.0,0.0,0.0,-2.4798,-2.4639,-2.4109,-2.4151,-2.4266,-2.4393,-2.4461,-2.4543,-2.47,-2.476,-2.4775,-2.47,-2.47,-2.4214,-2.3223,-2.2945,-2.2342,-2.14,-2.1951,-2.2483,-2.3033,-2.3566,-2.3951,-2.419,-2.419,-2.4266,-2.4411,-2.4469,-2.4622,-2.4753,-2.4296,-2.42,-2.4301,-2.4208,-2.419,-2.419,-2.419,-2.419,-2.4153,-2.3896,-2.3823,-2.3621,-2.2556,-2.2208,-2.2044,-2.128,-2.1211,-2.1597,-2.2464,-2.2447,-2.216,-2.1902,-2.1644,-2.1478,-2.1441,-2.0769,-2.0219,-2.0311,-1.9976,-1.9759,-2.0052,-2.004,-2.0196,-2.0959,-2.0916,-2.0953,-2.1379,-2.1181,-2.0926,-2.0781,-2.0483,-2.0534,-2.1134,-2.0634,-1.9893,-1.8987,-1.758,-1.5643,-1.314,-1.1495,-1.0128,-0.9051,-0.8276,-0.6747,-0.4379,-0.408,-0.2805,-0.0646,0.1354,0.427,-1.7704,-1.7811,-1.7811,0.0,0.0,0.0,-1.9833,-2.0208,-2.0917,-2.28,0.0,0.0,0.0,0.0,0.0,0.0,0.0,0.0,0.0,0.0,0.0,-2.4382,-2.3983,-2.3692,-2.3692,-2.3996,-2.4208,-2.4208,-2.4393,-2.4495,-2.4495,-2.4685,-2.47,-2.4512,-2.4495,-2.4021,-2.2978,-2.2189,-2.1345,-2.0484,-2.0484,-2.1365,-2.2997,-2.3015,-2.3437,-2.419,-2.419,-2.419,-2.4208,-2.4411,-2.4615,-2.4707,-2.3713,-2.3805,-2.4467,-2.4282,-2.419,-2.419,-2.419,-2.419,-2.4061,-2.3254,-2.2997,-2.2667,-2.0998,-2.0503,-2.0503,-2.0503,-2.0298,-2.0224,-2.0738,-2.1032,-2.0974,-2.017,-2.0602,-2.0957,-2.0154,-2.0304,-2.0237,-1.9138,-1.8879,-1.8734,-1.8284,-1.8558,-1.9049,-1.9779,-1.9891,-2.0161,-2.0911,-2.0991,-2.0829,-2.0348,-2.0314,-2.0314,-2.0314,-2.028,-2.0093,-1.9621,-1.846,-1.6833,-1.4699,-1.2192,-1.0946,-1.1199,-0.8866,-0.7425,-0.7035,-0.593,-0.4311,-0.2211,-0.0692,0.2309,-1.7704,-1.7811,0.0,0.0,0.0,0.0,0.0,-2.0467,0.0,0.0,0.0,0.0,0.0,0.0,0.0,0.0,0.0,0.0,0.0,0.0,0.0,-2.3204,-2.3283,-2.3346,-2.3346,-2.3649,-2.3837,-2.3837,-2.4134,-2.4284,-2.4284,-2.4358,-2.4339,-2.4284,-2.4284,-2.3511,-2.1879,-2.1643,-2.0735,-1.9165,-1.9921,-2.0951,-2.2171,-2.274,-2.3437,-2.419,-2.419,-2.419,-2.419,-2.4245,-2.4321,-2.4358,-2.4044,-2.408,-2.4282,-2.4208,-2.419,-2.4116,-2.3547,-2.3364,-2.3217,-2.2409,-2.2152,-2.1933,-2.0679,-2.0299,-2.0192,-1.9797,-1.9615,-1.952,-1.9504,-1.9553,-1.9655,-1.9917,-1.979,-1.9519,-1.9283,-1.8542,-1.8103,-1.8722,-1.8391,-1.8309,-1.9118,-1.9592,-1.9919,-2.0155,-2.0463,-2.0639,-2.0518,-2.0516,-2.0449,-2.0314,-2.0008,-1.9939,-2.028,-1.9707,-1.9398,-1.9645,-1.8229,-1.6523,-1.4609,-1.304,-1.2036,-1.1643,-0.9926,-0.8758,-0.812,-0.6797,-0.5346,-0.3739,-0.2238,-0.0054,-1.7502,0.0,0.0,0.0,0.0,0.0,0.0,0.0,0.0,0.0,0.0,0.0,0.0,0.0,0.0,0.0,0.0,0.0,0.0,0.0,-2.2537,-2.2537,-2.2815,-2.2996,-2.2996,-2.3038,-2.3056,-2.3056,-2.3075,-2.3086,-2.3086,-2.3491,-2.3731,-2.3731,-2.3618,-2.3009,-2.1893,-2.1146,-2.0203,-1.9084,-1.9414,-2.0209,-2.1478,-2.252,-2.3272,-2.3749,-2.4061,-2.419,-2.4153,-2.351,-2.3603,-2.41,-2.3125,-2.3345,-2.4116,-2.3474,-2.3456,-2.3621,-2.2795,-2.252,-2.2392,-2.1548,-2.1238,-2.0986,-2.0029,-1.965,-1.9482,-1.9114,-1.9032,-1.8969,-1.8687,-1.862,-1.8711,-1.907,-1.9012,-1.8894,-1.8894,-1.8369,-1.8103,-1.8933,-1.8822,-1.8822,-1.9463,-1.9989,-2.0246,-2.0089,-2.0296,-2.028,-1.9814,-1.9743,-1.9743,-1.9743,-1.9477,-1.9456,-1.9707,-1.9214,-1.8968,-1.9043,-1.8104,-1.6863,-1.5301,-1.3663,-1.2628,-1.2199,-1.0822,-0.9621,-0.8644,-0.8339,-0.6908,-0.4406,-0.3733,-0.1683,-1.7175,0.0,0.0,0.0,0.0,0.0,0.0,0.0,0.0,0.0,0.0,0.0,0.0,0.0,0.0,0.0,0.0,0.0,-2.231,-2.231,-2.231,-2.231,-2.2527,-2.2626,-2.2583,-2.2253,-2.2038,-2.1967,-2.1586,-2.1348,-2.1348,-2.23,-2.2887,-2.296,-2.2715,-2.2542,-2.245,-2.0733,-1.979,-1.9611,-1.8972,-1.9396,-2.0799,-2.2167,-2.2905,-2.3107,-2.3694,-2.4025,-2.3969,-2.2429,-2.2648,-2.3768,-2.1494,-2.2006,-2.3804,-2.23,-2.2227,-2.2776,-2.1933,-2.166,-2.1551,-2.0671,-2.0238,-1.9955,-1.9183,-1.8784,-1.8568,-1.8524,-1.8528,-1.8469,-1.8229,-1.8166,-1.8121,-1.7924,-1.838,-1.887,-1.8894,-1.9177,-1.9454,-1.952,-1.9767,-1.9829,-1.9496,-1.9927,-2.0193,-1.9818,-1.9711,-1.953,-1.8968,-1.8893,-1.8893,-1.8817,-1.8779,-1.8765,-1.8817,-1.8779,-1.8574,-1.8224,-1.8145,-1.7639,-1.6591,-1.4369,-1.3052,-1.287,-1.1589,-1.0179,-0.8776,-0.9923,-0.8469,-0.459,-0.5027,-0.281,0.0,0.0,0.0,0.0,0.0,0.0,0.0,0.0,0.0,0.0,0.0,0.0,0.0,0.0,0.0,0.0,0.0,0.0,-2.231,-2.231,-2.231,-2.231,-2.2349,-2.215,-2.1581,-2.1633,-2.1487,-2.0894,-2.0994,-2.1093,-2.1093,-2.1491,-2.2042,-2.2658,-2.2578,-2.2132,-2.1343,-2.0688,-1.9629,-1.8232,-1.8905,-1.9377,-1.9687,-2.0823,-2.2147,-2.3508,-2.2685,-2.2666,-2.318,-2.219,-2.2006,-2.2244,-2.173,-2.184,-2.2245,-2.168,-2.1735,-2.1915,-2.0898,-2.066,-2.0634,-1.9824,-1.9423,-1.9201,-1.8799,-1.8496,-1.8243,-1.8035,-1.7971,-1.7949,-1.7905,-1.79,-1.8014,-1.8545,-1.8534,-1.8526,-1.8822,-1.897,-1.9199,-1.972,-1.9656,-1.9541,-1.9622,-1.9997,-2.028,-2.0177,-1.9909,-1.953,-1.8968,-1.8893,-1.8727,-1.8341,-1.7907,-1.7827,-1.8263,-1.7907,-1.7947,-1.8688,-1.8341,-1.7973,-1.776,-1.6384,-1.4982,-1.3616,-1.2222,-1.0864,-0.9482,-0.8697,-0.7558,-0.6086,-0.4518,-0.3463,0.0,0.0,0.0,0.0,0.0,0.0,0.0,0.0,0.0,0.0,0.0,0.0,0.0,0.0,0.0,0.0,0.0,0.0,-2.231,-2.2006,-2.1769,-2.1769,-2.1431,-2.1059,-2.067,-2.044,-2.0144,-1.975,-1.9687,-1.9668,-1.9668,-2.0265,-2.0994,-2.1765,-2.1633,-2.1291,-2.0776,-2.0431,-1.9604,-1.8335,-1.9252,-1.9681,-1.9658,-2.0499,-2.1633,-2.2873,-2.1852,-2.1642,-2.199,-2.1313,-2.1258,-2.1552,-2.0871,-2.1105,-2.1676,-2.0626,-2.059,-2.0879,-1.9812,-1.9489,-1.9519,-1.9101,-1.8805,-1.8589,-1.8443,-1.822,-1.7971,-1.7856,-1.7811,-1.7811,-1.7811,-1.7811,-1.7952,-1.8484,-1.8602,-1.8785,-1.951,-1.9853,-2.0139,-2.0624,-2.0571,-2.0448,-2.0351,-2.0139,-2.0,-2.0,-1.9839,-1.9406,-1.8612,-1.8535,-1.8302,-1.7787,-1.7463,-1.7299,-1.73,-1.7024,-1.7107,-1.7666,-1.7464,-1.7436,-1.7706,-1.7162,-1.599,-1.4283,-1.3223,-1.1871,-1.0234,-0.9151,-0.7917,-0.6563,-0.4692,-0.3655,0.0,0.0,0.0,0.0,0.0,0.0,0.0,0.0,0.0,0.0,0.0,0.0,0.0,0.0,0.0,0.0,0.0,0.0,-2.2124,-2.1566,-2.1204,-2.1204,-2.05,-1.9951,-1.9816,-1.9266,-1.8843,-1.8724,-1.8356,-1.8125,-1.8125,-1.9026,-1.9876,-2.0615,-2.0551,-2.0501,-2.0501,-2.032,-1.9841,-1.9096,-1.9697,-2.0002,-2.001,-2.0373,-2.1031,-2.1786,-2.0951,-2.0664,-2.0749,-2.0173,-2.0336,-2.0861,-1.9656,-2.0051,-2.113,-1.9468,-1.9327,-1.9794,-1.8853,-1.8552,-1.861,-1.861,-1.8427,-1.8211,-1.8198,-1.8008,-1.7811,-1.7811,-1.7811,-1.7811,-1.7811,-1.7766,-1.782,-1.821,-1.8609,-1.9185,-2.0273,-2.0855,-2.1239,-2.1437,-2.1352,-2.1197,-2.0926,-2.0208,-1.9711,-1.9782,-1.9747,-1.9369,-1.838,-1.8185,-1.7907,-1.7353,-1.7229,-1.6925,-1.6305,-1.6262,-1.6262,-1.625,-1.6237,-1.6464,-1.6954,-1.6995,-1.6219,-1.456,-1.4143,-1.2994,-1.0931,-0.9972,-0.8528,-0.6538,-0.4969,-0.3553,0.0,0.0,0.0,0.0,0.0,0.0,0.0,0.0,0.0,0.0,0.0,0.0,0.0,0.0,0.0,0.0,0.0,-2.1356,-2.1356,-2.1271,-2.1204,-2.1204,-2.05,-1.9748,-1.9113,-1.8961,-1.864,-1.7997,-1.7884,-1.7839,-1.7839,-1.8207,-1.8777,-1.9586,-2.0114,-2.0454,-2.0501,-2.0849,-2.0636,-1.9849,-1.9951,-2.0002,-1.9968,-1.943,-1.9728,-2.0662,-1.9442,-1.9316,-1.9907,-1.9142,-1.9022,-1.929,-1.8859,-1.8966,-1.9306,-1.8574,-1.852,-1.8765,-1.8385,-1.842,-1.859,-1.859,-1.8419,-1.821,-1.8211,-1.8008,-1.7811,-1.7811,-1.7811,-1.7811,-1.7811,-1.7572,-1.7526,-1.8219,-1.8632,-1.9188,-2.0258,-2.0782,-2.1053,-2.107,-2.0465,-2.0035,-2.0348,-2.0,-1.9818,-2.0158,-1.9909,-1.9479,-1.8855,-1.838,-1.7907,-1.7353,-1.6879,-1.6355,-1.5764,-1.572,-1.5684,-1.5636,-1.5636,-1.5636,-1.5724,-1.5724,-1.5173,-1.3956,-1.4329,-1.359,-1.1581,-0.973,-0.805,-0.6538,-0.4488,-0.3398,0.0,0.0,0.0,0.0,0.0,0.0,0.0,0.0,0.0,0.0,0.0,0.0,0.0,0.0,0.0,0.0,0.0,-2.0534,-2.0534,-2.0162,-1.9891,-1.9891,-1.9232,-1.8633,-1.8318,-1.8128,-1.7947,-1.7805,-1.7635,-1.7595,-1.7789,-1.8297,-1.895,-1.9726,-2.0448,-2.0858,-2.0883,-2.1511,-2.1651,-2.1269,-2.0873,-2.045,-1.9968,-1.9249,-1.9158,-1.9555,-1.8569,-1.8599,-1.9277,-1.9077,-1.9061,-1.9182,-1.9209,-1.9054,-1.8734,-1.8334,-1.827,-1.833,-1.8078,-1.8048,-1.8147,-1.8147,-1.8073,-1.7991,-1.7991,-1.7901,-1.7811,-1.7811,-1.7811,-1.7811,-1.7811,-1.7549,-1.7429,-1.7945,-1.8282,-1.8759,-1.97,-2.0463,-2.0926,-2.0649,-2.0296,-2.0035,-1.9965,-1.9818,-1.9747,-1.9929,-1.9803,-1.953,-1.8968,-1.8419,-1.7907,-1.7353,-1.6514,-1.5732,-1.5141,-1.4424,-1.4182,-1.4505,-1.3793,-1.3886,-1.5016,-1.4336,-1.3886,-1.3726,-1.3679,-1.3042,-1.1751,-0.9717,-0.839,-0.7717,-0.5575,-0.433,0.0,0.0,0.0,0.0,0.0,0.0,0.0,0.0,0.0,0.0,0.0,0.0,0.0,0.0,0.0,0.0,0.0,-1.9572,-1.9572,-1.92,-1.887,-1.8773,-1.8118,-1.7681,-1.7681,-1.7439,-1.7392,-1.7641,-1.7439,-1.7368,-1.7542,-1.8067,-1.8701,-1.9427,-2.031,-2.0851,-2.1009,-2.1866,-2.231,-2.2293,-2.1532,-2.0771,-1.9985,-1.9336,-1.8917,-1.8716,-1.8272,-1.8386,-1.8934,-1.9315,-1.9521,-1.9572,-1.9524,-1.9328,-1.8994,-1.8343,-1.8203,-1.8319,-1.7929,-1.7811,-1.7811,-1.7811,-1.7811,-1.7811,-1.7811,-1.7726,-1.7681,-1.7681,-1.7612,-1.7542,-1.7542,-1.7296,-1.7106,-1.7364,-1.7768,-1.8376,-1.94,-2.0238,-2.0715,-2.0382,-2.0212,-2.0054,-1.9747,-1.969,-1.969,-1.969,-1.969,-1.953,-1.8968,-1.8419,-1.7907,-1.7353,-1.6416,-1.5511,-1.4744,-1.3679,-1.311,-1.3273,-1.2171,-1.2153,-1.3632,-1.2753,-1.2464,-1.2926,-1.2366,-1.1935,-1.1747,-0.9703,-0.8626,-0.8357,-0.6392,-0.4984,0.0,0.0,0.0,0.0,0.0,0.0,0.0,0.0,0.0,0.0,0.0,0.0,0.0,0.0,0.0,0.0,0.0,-1.8475,-1.8475,-1.8717,-1.8773,-1.846,-1.7765,-1.7344,-1.7344,-1.732,-1.732,-1.732,-1.732,-1.7175,-1.6866,-1.6898,-1.7225,-1.7887,-1.899,-1.9888,-2.0525,-2.1692,-2.231,-2.2293,-2.1532,-2.0771,-2.0002,-1.9571,-1.8989,-1.8348,-1.8674,-1.886,-1.8961,-1.9672,-2.0116,-2.0252,-1.9304,-1.9499,-2.009,-1.8433,-1.8257,-1.8765,-1.8048,-1.7811,-1.7811,-1.7811,-1.7811,-1.7811,-1.7811,-1.7572,-1.7344,-1.7344,-1.7101,-1.6841,-1.6841,-1.6607,-1.6355,-1.6359,-1.7075,-1.819,-1.9888,-2.0299,-2.0348,-2.0299,-2.0,-1.9711,-1.9711,-1.969,-1.969,-1.969,-1.969,-1.953,-1.8968,-1.8419,-1.7907,-1.7353,-1.6795,-1.5976,-1.4789,-1.4054,-1.3137,-1.1963,-1.1258,-1.0906,-1.1015,-1.0965,-1.0914,-1.0956,-1.0312,-1.0543,-1.1702,-0.9688,-0.8357,-0.7606,-0.618,-0.4718,0.0,0.0,0.0,0.0,0.0,0.0,0.0,0.0,0.0,0.0,0.0,0.0,0.0,0.0,0.0,0.0,0.0,0.0,-1.765,-1.7617,-1.7592,-1.7675,-1.7264,-1.6977,-1.6977,-1.6773,-1.685,-1.7272,-1.6901,-1.6799,-1.7101,-1.7362,-1.7818,-1.8467,-1.96,-2.052,-2.1187,-2.1615,-2.1853,-2.1853,-2.1104,-2.0606,-2.0295,-1.9668,-1.9104,-1.866,-1.9264,-1.9684,-1.9974,-2.0531,-2.0849,-2.0875,-2.0526,-2.0288,-2.0067,-1.9442,-1.9376,-1.9562,-1.9292,-1.8887,-1.8504,-1.8504,-1.8027,-1.7479,-1.7479,-1.7248,-1.6977,-1.6977,-1.6892,-1.6789,-1.6789,-1.6858,-1.7082,-1.7683,-1.8097,-1.8616,-1.9677,-1.963,-1.9507,-1.9859,-1.9536,-1.9207,-1.9207,-1.9207,-1.908,-1.8727,-1.865,-1.8612,-1.8419,-1.7907,-1.7368,-1.6773,-1.5896,-1.5017,-1.419,-1.311,-1.2288,-1.1814,-1.0771,-1.0364,-1.0762,-0.9961,-0.971,-1.0167,-0.951,-0.9607,-1.0501,-0.934,-0.862,-0.8349,-0.6897,-0.6195,0.0,0.0,0.0,0.0,0.0,0.0,0.0,0.0,0.0,0.0,0.0,0.0,0.0,0.0,0.0,0.0,0.0,0.0,-1.6935,-1.6876,-1.6841,-1.6952,-1.6773,-1.6633,-1.6633,-1.6421,-1.6485,-1.6935,-1.6538,0.0,-1.6783,-1.7239,-1.7987,-1.9037,-2.001,-2.0789,-2.1399,-2.1399,-2.1399,-2.1399,-2.091,-2.0521,-2.0293,-1.9874,-1.9441,-1.8965,-1.972,-2.0128,-2.0355,-2.1066,-2.1323,-2.1334,-2.1252,-2.1025,-2.0694,-2.0187,-2.017,-2.0365,-2.0086,-1.9664,-1.9208,-1.8857,-1.8252,-1.7585,-1.724,-1.6901,-1.6633,-1.6633,-1.6554,-1.651,-1.6702,-1.7109,-1.7639,-1.85,-1.855,-1.8658,-1.9504,-1.9406,-1.9281,-1.9639,-1.9406,-1.9169,-1.9169,-1.9006,-1.8779,-1.8419,-1.8224,-1.8027,-1.7867,-1.7504,-1.7008,-1.6219,-1.5443,-1.4687,-1.3862,-1.2783,-1.1953,-1.1516,-1.0415,-0.9917,-1.0115,-0.904,-0.8633,-0.9079,-0.8408,-0.8415,-0.9086,-0.8896,-0.8533,-0.8049,-0.7074,-0.6588,0.0,0.0,0.0,0.0,0.0,0.0,0.0,0.0,0.0,0.0,0.0,0.0,0.0,0.0,0.0,0.0,0.0,0.0,-1.6301,-1.6581,-1.6659,-1.6355,-1.6301,-1.6301,-1.6301,-1.6301,-1.6301,-1.6332,-1.6332,-1.6182,-1.5887,-1.6443,-1.756,-1.9355,-1.9973,-2.0516,-2.0959,-2.0959,-2.1007,-2.0991,-2.0991,-2.0623,-1.9969,-2.0219,-1.9924,-1.9269,-1.9968,-2.0108,-2.0001,-2.1122,-2.1582,-2.1546,-2.13,-2.164,-2.2096,-2.061,-2.0542,-2.1136,-2.0306,-2.0018,-1.9816,-1.8759,-1.8367,-1.8142,-1.7101,-1.6554,-1.6301,-1.6301,-1.6067,-1.5948,-1.6562,-1.7234,-1.7876,-1.8548,-1.832,-1.8252,-1.9417,-1.969,-1.969,-1.969,-1.969,-1.969,-1.969,-1.9244,-1.8841,-1.8841,-1.8366,-1.7854,-1.7299,-1.7271,-1.6841,-1.572,-1.5588,-1.5084,-1.3909,-1.3168,-1.219,-1.0864,-1.0167,-0.951,-0.8804,-0.8103,-0.7723,-0.7723,-0.6966,-0.6966,-0.767,-0.8427,-0.8049,-0.6642,-0.6588,-0.5882,-1.7666,0.0,0.0,0.0,0.0,0.0,0.0,0.0,0.0,0.0,0.0,0.0,0.0,0.0,0.0,0.0,0.0,0.0,-1.6274,-1.6163,-1.6136,-1.6301,-1.6095,-1.5926,-1.5926,-1.5926,-1.6237,0.0,-1.6755,-1.6864,-1.7486,-1.7904,-1.8513,-1.937,-1.9973,-2.0348,-2.0483,-2.0483,-2.0649,-2.0991,-2.0991,-2.1053,-2.1122,-2.0895,-2.0522,-1.9983,-1.9889,-1.9803,-1.9825,-2.0782,-2.115,-2.1165,-2.1064,-2.1374,-2.1744,-2.133,-2.1518,-2.1887,-2.1126,-2.0327,-1.9498,-1.8682,-1.7714,-1.6833,-1.6537,-1.6191,-1.5926,-1.5926,-1.5885,-1.6053,-1.713,-1.7906,-1.848,-1.8797,-1.8745,-1.8714,-1.9051,-1.9132,-1.9244,-1.9603,-1.9406,-1.9132,-1.9132,-1.8688,-1.8039,-1.7205,-1.6634,-1.6262,-1.6102,-1.6058,-1.5928,-1.5632,-1.5231,-1.4652,-1.3862,-1.2735,-1.1706,-1.0864,-1.0167,-0.951,-0.8804,-0.8103,-0.7723,-0.7723,-0.6966,-0.6696,-0.6912,-0.767,-0.7777,-0.7402,-0.6858,-0.6095,0.0,0.0,0.0,0.0,0.0,0.0,-1.7263,-1.7116,-1.6944,0.0,0.0,0.0,0.0,0.0,0.0,0.0,0.0,0.0,-1.6052,-1.5926,-1.5885,-1.6067,-1.5926,-1.5799,-1.5799,-1.5799,-1.6156,-1.6984,-1.6819,-1.7194,-1.8355,-1.8579,-1.8959,-1.9504,-1.9871,-2.007,-2.007,-2.007,-2.0208,-2.0481,-2.0481,-2.0565,-2.0781,-2.0565,-2.0296,-2.0035,-1.9818,-1.969,-1.9762,-2.0243,-2.0565,-2.0731,-2.0926,-2.1244,-2.1582,-2.1399,-2.1553,-2.1765,-2.1287,-2.0582,-1.9756,-1.8734,-1.7848,-1.7045,-1.6304,-1.5955,-1.5799,-1.5799,-1.5964,-1.6413,-1.7413,-1.8026,-1.8452,-1.8823,-1.8727,-1.8612,-1.8855,-1.8893,-1.9006,-1.9332,-1.9132,-1.8893,-1.8893,-1.8263,-1.7518,-1.6831,-1.6089,-1.5499,-1.5276,-1.5231,-1.5141,-1.4858,-1.4744,-1.4329,-1.3515,-1.2957,-1.2101,-1.0864,-1.0415,-0.9814,-0.8857,-0.7777,-0.7235,-0.7235,-0.6258,-0.5991,-0.6588,-0.702,-0.7069,-0.674,-0.6041,-0.5496,0.0,0.0,0.0,0.0,0.0,0.0,-1.6439,-1.6768,-1.7088,-1.6958,0.0,0.0,0.0,0.0,0.0,0.0,0.0,0.0,-1.5799,-1.5858,-1.5903,-1.5903,-1.5978,-1.6023,-1.6023,-1.6023,-1.6263,-1.6876,-1.6995,-1.7548,-1.8747,-1.8807,-1.9076,-1.966,-1.969,-1.969,-1.969,-1.969,-1.9711,-1.9782,-1.9782,-1.9782,-1.9854,-1.9782,-1.9782,-1.9747,-1.9711,-1.9645,-1.957,-1.957,-1.9834,-2.028,-2.0698,-2.1118,-2.1413,-2.0974,-2.0972,-2.1155,-2.0855,-2.0615,-2.0163,-1.8729,-1.8253,-1.7899,-1.6291,-1.5799,-1.5799,-1.5799,-1.6293,-1.6919,-1.7468,-1.7817,-1.8114,-1.8598,-1.838,-1.8185,-1.8688,-1.8765,-1.8727,-1.8817,-1.8855,-1.8893,-1.8893,-1.8027,-1.7244,-1.7055,-1.6151,-1.5276,-1.4698,-1.4606,-1.4422,-1.3956,-1.4376,-1.4247,-1.3113,-1.3409,-1.288,-1.1015,-1.0762,-1.0167,-0.8956,-0.7503,-0.6696,-0.6696,-0.5336,-0.5171,-0.6372,-0.6421,-0.6204,-0.5597,-0.4842,-0.4519,0.0,0.0,0.0,0.0,0.0,0.0,-1.7126,-1.7181,-1.721,0.0,0.0,0.0,0.0,0.0,0.0,0.0,0.0,0.0,0.0,-1.6219,-1.6517,-1.6517,-1.6995,-1.7341,-1.7341,-1.7341,-1.761,-1.8268,-1.8807,-1.9226,-1.948,-1.9495,-1.9555,-1.969,-1.969,-1.969,-1.969,-1.969,-1.9874,-2.0193,-2.0193,-2.0398,-2.0731,-2.0364,-2.0193,-2.0143,-1.9839,-1.939,-1.8897,-1.8897,-1.9266,-1.9854,-1.9909,-2.0193,-2.0487,-1.9937,-2.0289,-2.0873,-1.9707,-1.9432,-1.939,-1.7972,-1.7318,-1.6879,-1.6038,-1.5799,-1.5799,-1.5799,-1.6623,-1.7421,-1.7113,-1.7892,-1.8508,-1.78,-1.7544,-1.7585,-1.8145,-1.7907,-1.7747,-1.8185,-1.8612,-1.8893,-1.8893,-1.8027,-1.6983,-1.5985,-1.5285,-1.4652,-1.405,-1.3956,-1.4097,-1.4468,-1.4606,-1.4422,-1.3684,-1.3226,-1.258,-1.1657,-1.061,-0.9865,-0.9614,-0.8243,-0.7509,-0.7509,-0.6032,-0.5167,-0.4901,-0.5437,-0.5928,-0.6367,-0.5062,-0.4519,0.0,0.0,0.0,-1.6552,0.0,0.0,0.0,-1.7118,-1.7274,-1.7209,-1.7377,0.0,0.0,0.0,0.0,0.0,0.0,0.0,0.0,-1.6712,-1.6712,-1.6712,-1.7294,-1.7697,-1.7697,-1.7697,-1.7999,-1.8657,-1.9496,-1.9909,-1.9711,-1.9909,-1.9909,-1.9726,-1.969,-1.969,-1.969,-1.969,-1.9818,-2.0,-2.0,-2.0139,-2.0345,-2.0104,-2.0,-1.9984,-1.9436,-1.9016,-1.8672,-1.8343,-1.8403,-1.8747,-1.9076,-1.9493,-1.9803,-1.9247,-1.9653,-2.0241,-1.8811,-1.8517,-1.8578,-1.741,-1.6849,-1.6592,-1.5964,-1.5799,-1.5858,-1.6159,-1.6697,-1.7215,-1.7283,-1.7641,-1.788,-1.7339,-1.745,-1.7787,-1.8027,-1.8302,-1.8496,-1.8496,-1.8496,-1.8419,-1.8145,-1.7422,-1.6587,-1.5636,-1.5016,-1.4468,-1.3862,-1.3552,-1.36,-1.4201,-1.4236,-1.4014,-1.342,-1.3341,-1.2725,-1.1416,-1.0661,-1.0012,-0.9316,-0.8249,-0.7509,-0.7182,-0.6086,-0.5492,-0.5555,-0.5167,-0.5167,-0.5555,-0.4846,-0.4519,0.0,0.0,0.0,0.0,0.0,-1.6522,0.0,0.0,0.0,-1.7146,0.0,0.0,0.0,0.0,0.0,0.0,0.0,0.0,0.0,0.0,0.0,-1.7053,-1.7667,-1.8104,-1.8104,-1.8104,-1.8328,-1.8852,-1.9695,-2.0035,-1.9711,-2.0,-2.0035,-1.9711,-1.969,-1.969,-1.969,-1.9555,-1.9495,-1.9495,-1.9495,-1.9495,-1.9495,-1.963,-1.9615,-1.9465,-1.8942,-1.8553,-1.8283,-1.7712,-1.7428,-1.7445,-1.8343,-1.8925,-1.9208,-1.8688,-1.9094,-1.9625,-1.8061,-1.7862,-1.8129,-1.7044,-1.6622,-1.6428,-1.5963,-1.5799,-1.5904,-1.6426,-1.6631,-1.6851,-1.732,-1.7369,-1.7222,-1.7029,-1.7474,-1.7947,-1.7947,-1.8535,-1.9006,-1.865,-1.8185,-1.7706,-1.7353,-1.674,-1.6083,-1.544,-1.4982,-1.4422,-1.3732,-1.342,-1.3334,-1.36,-1.3815,-1.3695,-1.2968,-1.3467,-1.2986,-1.1116,-1.1015,-1.0415,-0.9061,-0.8315,-0.7563,-0.6804,-0.6253,-0.6086,-0.6367,-0.5222,-0.4677,-0.468,-0.4601,-0.4563,0.0,0.0,0.0,0.0,-1.6522,0.0,0.0,0.0,-1.6595,-1.6595,0.0,0.0,0.0,0.0,0.0,0.0,0.0,0.0,-1.5632,0.0,-1.7917,-1.841,-1.9061,-1.9465,-1.9465,-1.9465,-1.9495,-1.957,-1.9702,-1.9747,-1.969,-1.9747,-1.9747,-1.969,-1.969,-1.969,-1.969,-1.9106,-1.8807,-1.8807,-1.8807,-1.8807,-1.8837,-1.942,-1.9375,-1.8807,-1.8732,-1.8044,-1.6936,-1.6846,-1.6488,-1.6203,-1.7999,-1.8736,-1.8695,-1.8044,-1.8635,-1.9441,-1.7475,-1.761,-1.844,-1.7115,-1.6353,-1.5903,-1.5829,-1.5799,-1.5846,-1.6024,-1.6474,-1.6795,-1.6534,-1.7244,-1.7758,-1.6777,-1.6983,-1.7394,-1.7394,-1.7118,-1.6993,-1.7394,-1.7034,-1.6795,-1.7229,-1.6403,-1.5499,-1.4869,-1.4744,-1.4294,-1.3162,-1.3884,-1.4107,-1.3104,-1.3978,-1.4154,-1.3027,-1.3467,-1.3188,-1.1765,-1.1665,-1.1065,-0.9762,-0.9054,-0.8321,-0.7616,-0.7503,-0.6848,-0.5651,-0.5487,-0.5378,-0.5382,-0.488,-0.4663,0.0,0.0,0.0,0.0,0.0,0.0,-1.7024,0.0,-1.6522,0.0,0.0,0.0,0.0,0.0,0.0,0.0,-1.6489,0.0,0.0,0.0,-1.7616,0.0,0.0,0.0,-1.9151,-1.9121,-1.9121,-1.9121,-1.9383,-1.9585,-1.9696,-1.9909,-1.9929,-1.9726,-1.9316,-1.9121,-1.9121,-1.8837,-1.8702,-1.8702,-1.9091,-1.9271,-1.9286,-1.9555,-1.9331,-1.8687,-1.8298,-1.7578,-1.6682,-1.6338,-1.6024,-1.5918,-1.7101,-1.7533,-1.7503,-1.7219,-1.7712,-1.8313,-1.6727,-1.6787,-1.7384,-1.6473,-1.6248,-1.6338,-1.6338,-1.6593,-1.701,-1.7441,-1.7758,-1.7835,-1.7362,-1.765,-1.7812,-1.666,-1.6829,-1.722,-1.6917,-1.689,-1.693,-1.6851,-1.665,-1.6563,-1.6815,-1.6157,-1.541,-1.4789,-1.4698,-1.4387,-1.3515,-1.3873,-1.4107,-1.3978,-1.3752,-1.361,-1.342,-1.3324,-1.288,-1.1864,-1.1408,-1.0813,-0.9865,-0.9517,-0.9047,-0.8374,-0.7937,-0.7396,-0.6794,-0.6362,-0.6145,-0.6095,-0.5125,-0.4643,-1.8986,0.0,0.0,0.0,0.0,0.0,0.0,0.0,0.0,0.0,0.0,0.0,0.0,0.0,0.0,-1.6827,0.0,-1.6624,0.0,0.0,0.0,0.0,0.0,0.0,0.0,-1.855,-1.8593,-1.8263,-1.8852,-1.9272,-1.9426,-1.9873,-2.0,-1.9726,-1.9226,-1.8972,-1.8972,-1.8792,-1.8702,-1.8717,-1.9181,-1.942,-1.942,-1.96,-1.9226,-1.8403,-1.7891,-1.7219,-1.6413,-1.5964,-1.5799,-1.5844,-1.6293,-1.6547,-1.6712,-1.6712,-1.7234,-1.779,-1.6323,-1.6084,-1.6398,-1.6144,-1.6234,-1.6473,-1.6652,-1.704,-1.756,-1.8278,-1.848,-1.8405,-1.8049,-1.8044,-1.7838,-1.6824,-1.6927,-1.7152,-1.6624,-1.6797,-1.6955,-1.6572,-1.6492,-1.6541,-1.6689,-1.6083,-1.5454,-1.5017,-1.4971,-1.4744,-1.4143,-1.4329,-1.4595,-1.4709,-1.3931,-1.3515,-1.3779,-1.3238,-1.2666,-1.2138,-1.1266,-1.0568,-1.0115,-1.0064,-0.9658,-0.8804,-0.8468,-0.8127,-0.7829,-0.7214,-0.6867,-0.6829,-0.5846,-0.5377,0.0,0.0,0.0,-1.9048,0.0,0.0,0.0,0.0,-1.72,0.0,0.0,0.0,0.0,0.0,-1.6346,-1.5847,-1.6158,0.0,0.0,0.0,0.0,0.0,0.0,0.0,0.0,-1.8171,-1.8263,-1.7229,-1.8125,-1.8717,-1.8732,-1.9366,-1.9711,-1.969,-1.966,-1.966,-1.966,-1.9016,-1.8702,-1.8702,-1.8732,-1.8732,-1.8747,-1.939,-1.8972,-1.7712,-1.7697,-1.6997,-1.5829,-1.5814,-1.5799,-1.5799,-1.5829,-1.6189,-1.6712,-1.6712,-1.7533,-1.8388,-1.6473,-1.5814,-1.5933,-1.6488,-1.6293,-1.5948,-1.6517,-1.6726,-1.6901,-1.7716,-1.7921,-1.7941,-1.8068,-1.8078,-1.7973,-1.7409,-1.7299,-1.7146,-1.6612,-1.6527,-1.6527,-1.6484,-1.6484,-1.6655,-1.7188,-1.6361,-1.5588,-1.5588,-1.5588,-1.5365,-1.4744,-1.57,-1.5976,-1.4835,-1.4663,-1.4422,-1.3862,-1.3238,-1.2881,-1.2881,-1.1584,-1.0813,-1.0771,-1.0771,-1.0167,-0.8804,-0.9413,-0.9231,-0.8211,-0.7847,-0.7589,-0.7457,-0.7279,-0.7215,-2.02,0.0,-1.9995,-1.9233,0.0,0.0,0.0,0.0,0.0,0.0,0.0,0.0,0.0,0.0,-1.6459,-1.6271,-1.6396,-1.6459,0.0,0.0,0.0,0.0,0.0,0.0,0.0,0.0,-1.7838,-1.703,-1.8027,-1.8523,-1.8041,-1.9091,-1.9495,-1.9046,-1.9031,-1.9031,-1.9031,-1.8807,-1.8702,-1.8717,-1.9151,-1.9121,-1.8732,-1.939,-1.8972,-1.7712,-1.8194,-1.7593,-1.6413,-1.6877,-1.6817,-1.6428,-1.6892,-1.716,-1.7249,-1.6428,-1.6652,-1.7279,-1.6607,-1.6129,-1.5903,-1.6502,-1.6861,-1.7101,-1.7294,-1.7966,-1.8743,-1.8998,-1.9081,-1.9016,-1.8707,-1.8612,-1.8419,-1.7504,-1.7585,-1.7478,-1.6239,-1.6245,-1.6395,-1.6052,-1.5969,-1.6124,-1.6689,-1.6454,-1.6182,-1.6133,-1.584,-1.5365,-1.4789,-1.5421,-1.5732,-1.532,-1.4926,-1.4789,-1.4949,-1.405,-1.3334,-1.2929,-1.2461,-1.1792,-1.0864,-1.0813,-1.0167,-0.8804,-0.92,-0.9241,-0.8843,-0.8996,-0.8865,-0.8644,-0.8817,-0.8369,-2.0769,-2.0633,-2.0319,-1.9771,-1.9446,0.0,-1.8618,0.0,0.0,0.0,0.0,0.0,0.0,0.0,-1.6522,-1.6522,-1.6522,-1.6522,0.0,-1.6522,0.0,0.0,0.0,0.0,0.0,0.0,-1.7362,-1.6739,-1.7751,-1.8303,-1.8056,-1.9091,-1.9495,-1.9076,-1.9046,-1.9046,-1.9046,-1.9046,-1.9046,-1.9061,-1.948,-1.9346,-1.8717,-1.9151,-1.8747,-1.7712,-1.8179,-1.7832,-1.71,-1.7518,-1.7443,-1.707,-1.7122,-1.751,-1.7909,-1.6608,-1.6234,-1.6473,-1.716,-1.6862,-1.6263,-1.7148,-1.7535,-1.7727,-1.7987,-1.8676,-1.939,-1.9615,-1.969,-1.9603,-1.9281,-1.9043,-1.8727,-1.8027,-1.7827,-1.7598,-1.6716,-1.653,-1.6449,-1.6299,-1.6106,-1.6137,-1.6689,-1.6637,-1.6509,-1.6416,-1.6114,-1.5776,-1.5377,-1.5688,-1.5908,-1.5908,-1.5197,-1.4698,-1.4641,-1.392,-1.3334,-1.2929,-1.2881,-1.2363,-1.1216,-1.1166,-1.0669,-0.951,-0.9566,-0.9612,-0.9722,-0.9701,-0.9639,-0.9495,-0.9639,-0.9207]},{"header":{"parameterUnit":"m.s-1","parameterCategory":1,"la1":30.6,"la2":29.2853,"lo1":-89.7004,"lo2":-87.6739,"dy":0.0162,"dx":0.0183,"nx":112,"ny":82,"refTime":"2023-05-08T12:00:00:Z","depth":0,"parameterNumber":3,"parameterNumberName":"V-component_of_WINDS"},"data":[0.0,0.0,0.0,0.0,0.0,0.0,0.0,0.0,0.0,0.0,0.0,0.0,0.0,0.0,0.0,0.0,0.0,0.0,0.0,0.0,0.0,0.0,0.0,0.0,0.0,0.0,0.0,0.0,0.0,0.0,0.0,0.0,0.0,0.0,0.0,0.0,0.0,0.0,0.0,0.0,0.0,0.0,0.0,0.0,0.0,0.0,0.0,0.0,0.0,0.0,0.0,0.0,0.0,0.0,0.0,0.0,0.0,0.0,0.0,0.0,0.0,0.0,0.0,0.0,0.0,0.0,0.0,0.0,0.0,0.0,0.0,0.0,0.0,0.0,0.0,0.0,0.0,0.0,0.0,0.0,0.0,0.0,0.0,0.0,0.0,0.0,0.0,0.0,0.0,0.0,0.0,-0.3829,-0.2859,-0.206,-0.1501,-0.1383,-0.1513,-0.1959,0.0,0.0,0.0,0.0,0.0,0.0,0.0,0.0,0.0,0.0,0.0,0.0,0.0,0.0,0.0,0.0,0.0,0.0,0.0,0.0,0.0,0.0,0.0,0.0,0.0,0.0,0.0,0.0,0.0,0.0,0.0,0.0,0.0,0.0,0.0,0.0,0.0,0.0,0.0,0.0,0.0,0.0,0.0,0.0,0.0,0.0,0.0,0.0,0.0,0.0,0.0,0.0,0.0,0.0,0.0,0.0,0.0,0.0,0.0,0.0,0.0,0.0,0.0,0.0,0.0,0.0,0.0,0.0,0.0,0.0,0.0,0.0,0.0,0.0,0.0,0.0,0.0,0.0,0.0,0.0,0.0,0.0,0.0,0.0,0.0,0.0,0.0,0.0,0.0,0.0,0.0,0.0,0.0,0.0,0.0,0.0,0.0,0.0,0.0,0.0,0.0,0.0,0.0,0.0,-0.4805,-0.3884,-0.3379,-0.2993,-0.267,-0.3279,-0.3694,-0.3726,0.0,0.0,0.0,0.0,0.0,0.0,0.0,0.0,0.0,0.0,0.0,0.0,0.0,0.0,0.0,0.0,0.0,0.0,0.0,0.0,0.0,0.0,0.0,0.0,0.0,0.0,0.0,0.0,0.0,0.0,0.0,0.0,0.0,0.0,0.0,0.0,0.0,0.0,0.0,0.0,0.0,0.0,0.0,0.0,0.0,0.0,0.0,0.0,0.0,0.0,0.0,0.0,0.0,0.0,0.0,0.0,0.0,0.0,0.0,0.0,0.0,0.0,0.0,0.0,0.0,0.0,0.0,0.0,0.0,0.0,0.0,0.0,0.0,0.0,0.0,0.0,0.0,0.0,0.0,0.0,0.0,0.0,0.0,0.0,0.0,0.0,0.0,0.0,0.0,0.0,0.0,0.0,0.0,0.0,0.0,0.0,0.0,0.0,0.0,0.0,0.0,0.0,0.0,-0.51,-0.4313,-0.371,-0.3308,-0.3168,-0.3365,-0.3321,-0.3669,-0.4594,-0.439,0.0,0.0,0.0,0.0,0.0,0.0,0.0,0.0,0.0,0.0,0.0,0.0,0.0,0.0,0.0,0.0,0.0,0.0,0.0,0.0,0.0,0.0,0.0,0.0,0.0,0.0,0.0,0.0,0.0,0.0,0.0,0.0,0.0,0.0,0.0,0.0,0.0,0.0,0.0,0.0,0.0,0.0,0.0,0.0,0.0,0.0,0.0,0.0,0.0,0.0,0.0,0.0,0.0,0.0,0.0,0.0,0.0,0.0,0.0,0.0,0.0,0.0,0.0,0.0,0.0,0.0,0.0,0.0,0.0,0.0,0.0,0.0,0.0,0.0,0.0,0.0,0.0,0.0,0.0,0.0,0.0,0.0,0.0,0.0,0.0,0.0,0.0,0.0,0.0,0.0,0.0,0.0,0.0,0.0,0.0,0.0,0.0,0.0,0.0,0.0,0.0,0.0,-0.4608,-0.38,-0.3455,-0.3079,-0.3077,-0.3657,-0.3061,-0.3295,-0.4839,-0.459,0.0,0.0,0.0,0.0,0.0,0.0,0.0,0.0,0.0,0.0,0.0,0.0,0.0,0.0,0.0,0.0,0.0,0.0,0.0,0.0,0.0,0.0,0.0,0.0,0.0,0.0,0.0,0.0,0.0,0.0,0.0,0.0,0.0,0.0,0.0,0.0,0.0,0.0,0.0,0.0,0.0,0.0,0.0,0.0,0.0,0.0,0.0,0.0,0.0,0.0,0.0,0.0,0.0,0.0,0.0,0.0,0.0,0.0,0.0,0.0,0.0,0.0,0.0,0.0,0.0,0.0,0.0,0.0,0.0,0.0,0.0,0.0,0.0,0.0,0.0,0.0,0.0,0.0,0.0,0.0,0.0,0.0,0.0,0.0,0.0,0.0,0.0,0.0,0.0,0.0,0.0,0.0,0.0,0.0,0.0,0.0,0.0,0.0,0.0,0.0,0.0,0.0,-0.4159,-0.3397,-0.3233,-0.292,-0.2909,-0.3388,-0.3202,-0.3462,-0.4385,-0.419,0.0,0.0,0.0,0.0,0.0,0.0,0.0,0.0,0.0,0.0,0.0,0.0,0.0,0.0,0.0,0.0,0.0,0.0,0.0,0.0,0.0,0.0,0.0,0.0,0.0,0.0,0.0,0.0,0.0,0.0,0.0,0.0,0.0,0.0,0.0,0.0,0.0,0.0,0.0,0.0,0.0,0.0,0.0,0.0,0.0,0.0,0.0,0.0,0.0,0.0,0.0,0.0,0.0,0.0,0.0,0.0,0.0,0.0,0.0,0.0,0.0,0.0,0.0,0.0,0.0,0.0,0.0,0.0,0.0,0.0,0.0,0.0,0.0,0.0,0.0,0.0,0.0,0.0,0.0,0.0,0.0,0.0,0.0,0.0,0.0,0.0,0.0,0.0,0.0,0.0,0.0,0.0,0.0,0.0,0.0,0.0,0.0,0.0,0.0,0.0,0.0,0.0,-0.4291,-0.3677,0.0,-0.286,-0.2894,-0.3188,-0.3136,-0.3103,-0.3083,0.0,0.0,0.0,0.0,0.0,0.0,0.0,0.0,0.0,0.0,0.0,0.0,0.0,0.0,0.0,0.0,0.0,0.0,0.0,0.0,0.0,0.0,0.0,0.0,0.0,0.0,0.0,0.0,0.0,0.0,0.0,0.0,0.0,0.0,0.0,0.0,0.0,0.0,0.0,0.0,0.0,0.0,0.0,0.0,0.0,0.0,0.0,0.0,0.0,0.0,0.0,0.0,0.0,0.0,0.0,0.0,0.0,0.0,0.0,0.0,0.0,0.0,0.0,0.0,0.0,0.0,0.0,0.0,0.0,0.0,0.0,0.0,0.0,0.0,0.0,0.0,0.0,0.0,0.0,0.0,0.0,0.0,0.0,0.0,0.0,0.0,0.0,0.0,0.0,0.0,0.0,0.0,0.0,0.0,0.0,0.0,0.0,0.0,0.0,0.0,0.0,0.0,-0.4907,-0.4414,-0.3812,0.0,-0.295,-0.2929,-0.2937,-0.2937,-0.271,-0.217,0.0,0.0,0.0,0.0,0.0,0.0,0.0,0.0,0.0,0.0,0.0,0.0,0.0,0.0,0.0,0.0,0.0,0.0,0.0,0.0,0.0,0.0,0.0,0.0,0.0,0.0,0.0,0.0,0.0,0.0,0.0,0.0,0.0,0.0,0.0,0.0,0.0,0.0,0.0,0.0,0.0,0.0,0.0,0.0,0.0,0.0,0.0,0.0,0.0,0.0,0.0,0.0,0.0,0.0,0.0,0.0,0.0,0.0,0.0,0.0,0.0,0.0,0.0,0.0,0.0,0.0,0.0,0.0,0.0,0.0,0.0,0.0,0.0,0.0,0.0,0.0,0.0,0.0,0.0,0.0,0.0,0.0,0.0,0.0,0.0,0.0,0.0,0.0,0.0,0.0,0.0,0.0,0.0,0.0,0.0,0.0,0.0,0.0,0.0,0.0,0.0,0.0,-0.5171,-0.444,-0.3721,-0.3248,-0.3207,-0.3034,-0.2627,-0.2592,-0.2366,0.0,0.0,0.0,0.0,0.0,0.0,0.0,0.0,0.0,0.0,0.0,0.0,0.0,0.0,0.0,0.0,0.0,0.0,0.0,0.0,0.0,0.0,0.0,0.0,0.0,0.0,0.0,0.0,0.0,0.0,0.0,0.0,0.0,0.0,0.0,0.0,0.0,0.0,0.0,0.0,0.0,0.0,0.0,0.0,0.0,0.0,0.0,0.0,0.0,0.0,0.0,0.0,0.0,0.0,0.0,0.0,0.0,0.0,0.0,0.0,0.0,0.0,0.0,0.0,0.0,0.0,0.0,0.0,0.0,0.0,0.0,0.0,0.0,0.0,0.0,0.0,0.0,0.0,0.0,0.0,0.0,0.0,0.0,0.0,0.0,0.0,0.0,0.0,0.0,0.0,0.0,0.0,0.0,0.0,0.0,0.0,0.0,0.0,0.0,0.0,0.0,0.0,0.0,-0.5149,-0.4683,-0.4027,-0.3283,-0.3205,-0.2861,-0.2038,-0.1785,-0.1992,-0.274,0.0,0.0,0.0,0.0,0.0,0.0,0.0,0.0,0.0,0.0,0.0,0.0,0.0,0.0,0.0,0.0,0.0,0.0,0.0,0.0,0.0,0.0,0.0,0.0,0.0,0.0,0.0,0.0,0.0,0.0,0.0,0.0,0.0,0.0,0.0,0.0,0.0,0.0,0.0,0.0,0.0,0.0,0.0,0.0,0.0,0.0,0.0,0.0,0.0,0.0,0.0,0.0,0.0,0.0,0.0,0.0,0.0,0.0,0.0,0.0,0.0,0.0,0.0,0.0,0.0,0.0,0.0,0.0,0.0,0.0,0.0,0.0,0.0,0.0,0.0,0.0,0.0,0.0,0.0,0.0,0.0,0.0,0.0,0.0,0.0,0.0,0.0,0.0,0.0,0.0,0.0,0.0,0.0,0.0,0.0,0.0,0.0,0.0,0.0,0.0,0.0,0.0,-0.5117,-0.4567,-0.3992,-0.3601,-0.3602,-0.321,-0.2141,-0.191,-0.2141,-0.2912,0.0,0.0,0.0,0.0,0.0,0.0,0.0,0.0,0.0,0.0,0.0,0.0,0.0,0.0,0.0,0.0,0.0,0.0,0.0,0.0,0.0,0.0,0.0,0.0,0.0,0.0,0.0,0.0,0.0,0.0,0.0,0.0,0.0,0.0,0.0,0.0,0.0,0.0,0.0,0.0,0.0,0.0,0.0,0.0,0.0,0.0,0.0,0.0,0.0,0.0,0.0,0.0,0.0,0.0,0.0,0.0,0.0,0.0,0.0,0.0,0.0,0.0,0.0,0.0,0.0,0.0,0.0,0.0,0.0,0.0,0.0,0.0,0.0,0.0,0.0,0.0,0.0,0.0,0.0,0.0,0.0,0.0,0.0,0.0,0.0,0.0,0.0,0.0,0.0,0.0,0.0,0.0,0.0,0.0,0.0,0.0,0.0,0.0,0.0,0.0,0.0,0.0,-0.5105,-0.4269,-0.3718,-0.4026,-0.4141,-0.3791,-0.2773,-0.2677,-0.2679,-0.2682,0.0,0.0,0.0,0.0,0.0,0.0,0.0,0.0,0.0,0.0,0.0,0.0,0.0,0.0,0.0,0.0,0.0,0.0,0.0,0.0,0.0,0.0,0.0,0.0,0.0,0.0,0.0,0.0,0.0,0.0,0.0,0.0,0.0,0.0,0.0,0.0,0.0,0.0,0.0,0.0,0.0,0.0,0.0,0.0,0.0,0.0,0.0,0.0,0.0,0.0,0.0,0.0,0.0,0.0,0.0,0.0,0.0,0.0,0.0,0.0,0.5375,0.0,0.0,0.0,0.0,0.0,0.0,0.0,0.0,0.0,0.0,0.0,0.0,0.0,0.0,0.0,0.0,0.0,0.0,0.0,0.0,0.0,0.0,0.0,0.0,0.0,0.0,0.0,0.0,0.0,0.0,0.0,0.0,0.0,0.0,0.0,0.0,0.0,0.0,0.0,0.0,0.0,-0.5206,-0.4282,-0.3585,-0.3761,-0.3618,-0.3453,-0.332,-0.3258,-0.3252,-0.3309,-0.3668,0.0,0.0,0.0,0.0,0.0,0.0,0.0,0.0,0.0,0.0,0.0,0.0,0.0,0.0,0.0,0.0,0.0,0.0,0.0,0.0,0.0,0.0,0.0,0.0,0.0,0.0,0.0,0.0,0.0,0.0,0.0,0.0,0.0,0.0,0.0,0.0,0.0,0.0,0.0,0.0,0.0,0.0,0.0,0.0,0.0,0.0,0.0,0.0,0.0,0.0,0.0,0.0,0.0,0.0,0.0,0.0,0.0,0.0,0.0,0.0,0.5497,0.0,0.0,0.0,0.0,0.0,0.0,0.0,0.0,0.0,0.0,0.0,0.0,0.0,0.0,0.0,0.0,0.0,0.0,0.0,0.0,0.0,0.0,0.0,0.0,0.0,0.0,0.0,0.0,0.0,0.0,0.0,0.0,0.0,0.0,0.0,0.0,0.0,0.0,0.0,0.0,-0.4726,-0.3771,-0.3224,-0.3736,-0.367,-0.3591,-0.3607,-0.3974,-0.3939,-0.3305,-0.3813,0.0,0.0,0.0,0.0,0.0,0.0,0.0,0.0,0.0,0.0,0.0,0.0,0.0,0.0,0.0,0.0,0.0,0.0,0.0,0.0,0.0,0.0,0.0,0.0,0.0,0.0,0.0,0.0,0.0,0.0,0.0,0.0,0.0,0.0,0.0,0.0,0.0,0.0,0.0,0.0,0.0,0.0,0.0,0.0,0.0,0.0,0.0,0.0,0.0,0.0,0.0,0.0,0.0,1.047,0.9603,0.7417,0.6022,0.5608,0.5987,0.4898,0.4234,0.3956,0.4806,0.0,0.0,0.0,0.0,0.0,0.0,0.0,0.0,0.0,0.0,0.0,0.0,0.0,0.0,0.0,0.0,0.0,0.0,0.0,0.0,0.0,0.0,0.0,0.0,0.3466,0.3639,0.364,0.0,0.0,0.0,0.0,0.0,0.0,0.0,0.0,0.0,0.0,0.0,-0.4018,-0.3078,-0.2737,-0.366,-0.3716,-0.3671,-0.3673,-0.441,-0.4378,-0.3197,-0.3632,-0.3311,0.0,0.0,0.0,0.0,0.0,0.0,0.0,0.0,0.0,0.0,0.0,0.0,0.0,0.0,0.0,0.0,0.0,0.0,0.0,0.0,0.0,0.0,0.0,0.0,0.0,0.0,0.0,0.0,0.0,0.0,0.0,0.0,1.3746,1.3686,0.0,0.0,0.0,0.0,0.0,0.0,0.0,0.0,0.0,0.0,0.0,0.0,0.0,1.166,1.2347,1.1856,1.1219,1.0485,1.0013,0.8505,0.6115,0.4994,0.4498,0.4599,0.4872,0.0,0.3853,0.3252,0.0,0.0,0.0,0.0,0.0,0.0,0.0,0.0,0.0,0.0,0.0,0.0,0.0,0.0,0.0,0.0,0.0,0.0,0.0,0.0,0.0,0.0,0.3536,0.4031,0.3746,0.3517,0.0,0.3976,0.3734,0.3901,0.2815,0.0,0.0,0.0,0.0,0.0,0.0,0.0,-0.3378,-0.2527,-0.224,-0.3117,-0.2998,-0.3045,-0.3481,-0.3851,-0.3933,-0.3627,-0.2899,-0.1897,-0.0608,-0.0381,0.0,0.0,0.0,0.0,0.0,0.0,0.0,0.0,0.0,0.0,0.0,0.0,0.0,0.0,0.0,0.0,0.0,0.0,0.0,0.0,0.0,0.0,0.0,0.0,0.0,0.0,0.0,0.0,0.0,1.3966,1.4086,1.4671,1.5043,1.5247,0.0,0.0,0.0,0.0,0.0,0.0,0.0,0.0,0.0,1.3293,1.2824,1.2843,1.3473,1.284,1.2423,1.2173,1.1878,1.0078,0.6987,0.5436,0.5294,0.6183,0.5414,0.5918,0.718,0.5882,0.6141,0.7483,0.0,0.0,0.0,0.0,0.7286,0.6713,0.6648,0.636,0.5897,0.5352,0.0,0.0,0.0,0.0,0.0,0.0,0.0,0.0,0.0,0.0,0.3951,0.4048,0.3844,0.377,0.4295,0.4198,0.3957,0.0,0.3629,0.2768,0.0367,0.0,0.0,0.0,0.0,-0.2798,-0.279,-0.2284,-0.2166,-0.2805,-0.2762,-0.2864,-0.3235,-0.3389,-0.3367,-0.3208,-0.2709,-0.1842,-0.0515,0.043,0.0828,0.0,0.0,0.0,0.0,0.0,0.0,0.0,0.0,0.0,0.0,0.0,0.0,0.0,0.0,0.0,0.0,0.0,0.0,0.0,0.0,0.0,0.0,0.0,0.0,0.0,0.0,0.0,0.0,1.4101,1.4378,1.5445,1.5748,1.6038,0.0,0.0,0.0,0.0,0.0,0.0,1.527,1.4317,1.3722,1.3614,1.343,1.3475,1.3768,1.3254,1.3108,1.3409,1.3403,1.1442,0.7802,0.6411,0.668,0.8192,0.6903,0.7863,1.0267,0.8739,0.7724,0.7352,0.9405,0.9179,0.7656,0.7337,0.7082,0.6832,0.635,0.606,0.5789,0.5131,0.5226,0.5491,0.5106,0.0,0.0,0.0,0.0,0.4355,0.3842,0.3861,0.399,0.383,0.3792,0.3844,0.4036,0.4141,0.4065,0.0,0.4064,0.3793,0.1453,0.0,0.0,0.0,0.0,-0.248,-0.2327,-0.2088,-0.2099,-0.2526,-0.2567,-0.2649,-0.2853,-0.2978,-0.2977,-0.2784,-0.2486,-0.179,-0.0596,0.1025,0.1411,0.0401,0.0,0.0,0.0,0.0,0.0,0.0,0.0,0.0,0.0,0.0,0.0,0.0,0.0,0.0,0.0,0.0,0.0,0.0,0.0,0.0,0.0,0.0,0.0,0.0,0.0,0.0,0.0,0.0,0.0,1.5151,1.5251,0.0,0.0,0.0,0.0,1.6631,1.6271,1.5714,1.4877,1.4655,1.4243,1.3632,1.2809,1.2704,1.3413,1.2334,1.234,1.3399,1.3396,1.14,0.7706,0.7598,0.8382,0.9787,0.9706,1.0433,1.1601,1.0298,0.9739,0.9718,0.9854,0.9003,0.7681,0.7598,0.728,0.6902,0.6943,0.6485,0.5882,0.5851,0.5289,0.4643,0.4477,0.429,0.0,0.0,0.3822,0.3584,0.3689,0.3349,0.307,0.3434,0.3522,0.3452,0.3211,0.3477,0.3699,0.0,0.3541,0.3107,0.1709,0.0,-0.0086,-0.0376,-0.139,-0.2107,-0.2028,-0.1898,-0.1924,-0.2193,-0.2215,-0.2237,-0.2237,-0.2665,-0.2851,-0.2705,-0.1973,-0.12,-0.044,0.1249,0.1772,0.0884,0.0944,0.0,0.0,0.0,0.0,0.0,0.0,0.0,0.0,0.0,0.0,0.0,0.0,0.0,0.0,0.0,0.0,0.0,0.0,0.0,0.0,0.0,0.0,0.0,0.0,0.0,0.0,0.0,0.0,1.4747,1.4585,0.0,1.6034,1.6867,1.7144,1.6756,1.7027,1.6656,1.5426,1.4685,1.4083,1.368,1.3451,1.3588,1.4109,1.3221,1.2649,1.2369,1.2381,1.124,0.9129,0.9123,0.9855,1.1081,1.0259,1.0619,1.1759,1.1315,1.0083,0.8492,0.8481,0.7942,0.7082,0.6326,0.6119,0.6114,0.5622,0.528,0.5055,0.496,0.4409,0.3798,0.4061,0.4202,0.4026,0.2896,0.2224,0.1708,0.119,0.069,0.0367,0.0557,0.0745,0.1051,0.1734,0.2185,0.269,0.3367,0.3115,0.2627,0.217,0.1561,0.0871,0.0024,-0.1135,-0.1994,-0.2236,-0.1992,-0.193,-0.229,-0.2164,-0.2113,-0.2193,-0.2359,-0.2423,-0.237,-0.2099,-0.1536,-0.0562,0.0843,0.1461,0.1167,0.2129,0.2179,0.0,0.0,0.0,0.0,0.0,0.0,0.0,0.0,0.0,0.0,0.0,0.0,0.0,0.0,0.0,0.0,0.0,0.0,0.0,0.0,0.0,0.0,0.0,0.0,0.0,0.0,1.4328,1.4632,1.4287,1.4467,1.5554,1.6233,1.6535,1.6309,1.6618,1.6364,1.532,1.4495,1.391,1.3541,1.3657,1.3868,1.4126,1.3279,1.1161,0.7822,0.7834,0.8293,0.9108,0.7361,0.8474,1.1748,1.0907,1.1033,1.1812,1.1794,1.0735,0.8998,0.8069,0.7148,0.6275,0.55,0.5048,0.4632,0.3836,0.3493,0.339,0.3115,0.2567,0.2023,0.2158,0.2147,0.1802,0.0509,-0.0274,-0.092,-0.1729,-0.2281,-0.2632,-0.2698,-0.2105,-0.1325,-0.0616,0.0344,0.1219,0.1781,0.2534,0.2914,0.2423,0.1778,0.1009,0.005,-0.1082,-0.1926,-0.2295,-0.206,-0.1987,-0.2295,-0.2163,-0.21,-0.2201,-0.2301,-0.2338,-0.2313,-0.2355,-0.1897,-0.0882,-0.0032,0.0565,0.0863,0.2666,0.2777,0.1074,0.0,0.0,0.0,0.0,0.0,0.0,0.0,0.0,0.0,0.0,0.0,0.0,0.0,0.0,0.0,0.0,0.0,0.0,0.0,0.0,0.0,0.0,0.0,1.4664,1.4859,1.4809,1.4652,1.4235,1.4234,1.4986,1.4795,1.4767,1.515,1.4939,1.4672,1.4356,1.4023,1.3651,1.3216,1.3301,1.3236,1.2975,1.1948,0.7418,-0.0477,-0.0364,0.2255,0.6806,0.1796,0.3875,1.1415,1.1178,1.1207,1.1413,1.1087,1.0954,1.0735,0.8544,0.6653,0.5104,0.5023,0.3941,0.2395,0.1603,0.1129,0.0844,0.0354,-0.0237,-0.0892,-0.144,-0.2062,-0.2723,-0.3177,-0.3706,-0.429,-0.499,-0.5452,-0.585,-0.617,-0.4838,-0.3582,-0.3794,-0.212,-0.0739,-0.132,0.1531,0.3647,0.2347,0.1122,0.019,-0.0252,-0.1176,0.0,-0.2194,-0.2106,-0.2101,-0.2235,-0.228,-0.228,-0.2259,-0.2555,-0.2687,-0.253,-0.2666,-0.2335,-0.1375,-0.1338,-0.0894,0.0036,0.2379,0.3125,0.2195,0.0,0.0,0.0,0.0,0.0,0.0,0.0,0.0,0.0,0.0,0.0,0.0,0.0,0.0,0.0,0.0,0.0,0.0,0.0,0.0,0.0,0.0,1.0814,1.1675,1.1847,1.1612,1.0909,1.0701,1.1014,1.2001,1.2484,1.2729,1.2702,1.2582,1.2584,1.2803,1.1305,1.1347,1.3282,1.2633,0.9486,0.3741,0.3396,-0.1599,-1.1129,-0.8457,-0.7839,-0.9093,-1.0524,-0.5891,0.2927,-0.2815,-0.2052,0.2661,-0.4844,-0.7915,-0.6879,0.3607,0.4933,0.0753,-0.0786,-0.1468,-0.1715,-0.2552,-0.2902,-0.3089,-0.3893,-0.4443,-0.5192,-0.7329,-0.6646,-0.5553,-0.766,-0.8775,-0.924,-0.8813,-0.9103,-0.9535,-0.9565,-0.8849,-0.7963,-0.725,-0.5523,-0.4163,-0.4381,-0.3911,-0.2749,-0.0322,-0.0336,-0.0654,-0.0523,-0.1829,0.0,-0.2574,-0.2876,-0.3192,-0.3489,-0.3848,-0.4003,-0.3799,-0.3607,-0.3382,-0.3103,-0.3616,-0.3457,-0.2356,-0.2326,-0.1175,0.1264,0.2822,0.3057,0.0,0.0,0.0,0.0,0.0,0.0,0.0,0.0,0.0,0.0,0.0,0.0,0.0,0.0,0.0,0.0,0.0,0.0,0.0,0.0,0.0,0.0,0.8989,0.827,0.8603,0.9351,0.9571,0.8789,0.8477,0.8519,0.914,0.9131,0.9224,0.9551,0.9346,0.9132,0.8928,0.9701,1.0689,1.1893,0.8626,0.4644,0.0046,-0.3282,-0.7943,-1.3866,-1.2173,-1.2252,-1.3887,-1.3898,-0.999,-0.3438,-0.7373,-0.6841,-0.3639,-0.8981,-1.2918,0.0,0.0,0.0,0.0,0.0,-0.9711,-0.8166,-0.869,-0.8316,-0.7663,-0.8104,-0.8597,-0.9218,-1.0456,-0.9776,-0.8881,-1.0363,-1.1207,-1.1611,-1.1412,-1.1675,-1.2074,-1.234,-1.1528,-1.0495,-0.9673,-0.7892,-0.6417,-0.6232,-0.6101,0.0,-0.2987,-0.2452,-0.2306,-0.2217,-0.285,-0.3237,-0.2971,-0.3501,-0.3864,-0.3797,-0.436,-0.4778,-0.496,-0.4509,0.0,0.0,0.0,-0.3655,-0.2726,-0.1963,0.0,0.0,0.0,0.3289,0.271,0.2014,0.0,0.0,0.0395,-0.0242,0.0,0.0,0.0,0.0,0.0,0.0,0.0,0.0,0.0,0.0,0.0,0.0,0.0,0.0,0.0,0.0,0.6416,0.5913,0.5733,0.7145,0.8012,0.7601,0.6994,0.6624,0.6536,0.5613,0.537,0.6303,0.586,0.5139,0.4257,0.0,0.0,0.0,0.0,-0.0278,-0.0862,-0.7836,-1.1499,-1.1807,-1.2443,-1.2406,-1.1776,-1.1296,-0.9746,-0.7373,-0.6114,-0.6289,-0.7343,-0.6293,-0.9668,-1.3864,0.2612,-0.2727,-1.9703,-1.9982,-1.7748,-1.4632,-1.4826,0.0,0.0,-1.2126,-1.2537,-1.2913,-1.2104,-1.2149,-1.2425,-1.2151,-1.2178,-1.2505,-1.331,-1.3592,-1.3858,-1.4578,-1.3474,-1.2114,-1.1577,-0.9873,-0.8256,-0.7535,-0.6528,-0.5742,-0.5531,-0.4793,-0.4246,-0.4323,-0.3923,-0.3586,-0.3438,-0.4052,-0.4309,-0.3822,0.0,0.0,-0.5902,-0.535,-0.4897,-0.468,-0.3991,-0.3366,-0.2907,-0.1209,-0.0106,0.031,0.2324,0.3559,0.3946,0.3802,0.3375,0.2674,0.2092,0.1282,0.0,0.0,0.0,0.0,0.0,0.0,0.0,0.0,0.0,0.0,0.0,0.0,0.0,0.0,0.0,0.593,0.5036,0.4458,0.4535,0.4851,0.5096,0.5235,0.511,0.4963,0.481,0.459,0.4587,0.4873,0.3882,0.3141,0.2953,0.2493,0.213,0.1929,0.0671,-0.1994,-0.6177,-0.7723,-0.9608,-1.1776,0.0,0.0,-1.1673,-0.8155,-0.6252,-0.5816,-0.6813,-0.6659,-0.5952,-0.8329,-1.0988,-1.3166,-0.9479,-1.0446,-1.4148,-1.6207,-1.5188,-1.3,-1.436,-1.4552,-1.4409,-1.5383,-1.5784,-1.582,-1.5395,-1.5312,0.0,-1.5008,-1.4584,-1.4533,-1.576,-1.571,-1.5478,-1.6063,-1.6002,-1.5529,-1.4456,-1.3359,-1.2026,-1.0173,-0.9043,-0.8139,-0.7351,-0.5963,-0.4745,-0.404,-0.4193,-0.4326,-0.4216,-0.4698,-0.5132,-0.5326,-0.5156,-0.5578,-0.7063,-0.6439,-0.573,-0.5124,-0.4004,-0.3569,-0.4056,-0.2863,-0.1359,0.0351,0.1377,0.2477,0.3656,0.2723,0.2411,0.2718,0.324,0.3363,0.0,0.0,0.0,0.0,0.0,0.0,0.0,0.0,0.0,0.0,0.0,0.8437,0.0,0.0,0.4974,0.4865,0.4426,0.4133,0.4334,0.4355,0.421,0.387,0.3581,0.3195,0.2645,0.2317,0.2045,0.182,0.1206,0.0567,-0.0039,-0.0037,0.0,0.0,-0.2517,-0.5505,-0.8978,-0.7339,-0.7607,-0.9713,-0.7526,-0.7224,-0.8467,-0.6283,-0.5307,-0.5365,-0.6741,-0.7514,-0.7992,-1.0265,-1.1048,-1.0935,-1.1613,-1.2723,-1.4061,-1.5333,-1.5569,-1.5377,-1.6215,-1.6508,-1.6593,-1.7127,-1.7302,-1.7195,-1.6571,-1.6399,-1.6257,-1.56,-1.5301,-1.5343,-1.5936,-1.59,-1.5884,-1.6674,-1.6697,-1.6415,-1.5903,-1.469,-1.3204,-1.1568,-1.0103,-0.8845,-0.8084,-0.6904,-0.5778,-0.5033,-0.5117,-0.5026,-0.4298,-0.5512,-0.6231,-0.5618,-0.5045,-0.5489,-0.742,-0.6852,-0.6151,-0.5543,-0.472,-0.4332,-0.4489,-0.3432,-0.2132,-0.058,0.0325,0.1711,0.3615,0.3013,0.2241,0.139,0.305,0.3785,0.0,0.0,0.0,0.0,0.0,0.0,0.0,0.0,0.9884,0.8921,0.7609,0.6426,0.5803,0.456,0.3732,0.3961,0.4164,0.4331,0.4501,0.444,0.4047,0.3033,0.2519,0.1781,0.0661,0.0091,-0.0403,-0.1029,-0.1083,-0.1481,-0.2485,-0.1371,-0.0642,-0.0577,-0.4904,-0.7797,-0.9017,-0.6353,-0.5828,-0.745,-0.626,-0.569,-0.5621,-0.5159,-0.4981,-0.5033,-0.5999,-0.7564,-0.95,-1.0471,-0.9924,-0.8647,-0.9909,-1.2052,-1.4478,-1.4845,-1.608,-1.7641,-1.7908,-1.7983,-1.7951,-1.7887,-1.7798,-1.7535,-1.6771,-1.6634,-1.6545,-1.5669,-1.5586,-1.5762,-1.5754,-1.5768,-1.6016,-1.6918,-1.6927,-1.6689,-1.654,-1.5343,-1.388,-1.2457,-1.078,-0.937,-0.8692,-0.7822,-0.6963,-0.6261,-0.517,-0.4003,-0.2923,-0.4526,-0.5568,-0.5074,-0.3857,-0.4348,-0.7596,-0.7165,-0.6582,-0.6204,-0.5567,-0.5074,-0.4836,-0.3825,-0.2894,-0.2064,-0.0976,0.0596,0.2556,0.2787,0.1792,-0.0313,0.1884,0.301,1.1569,1.1802,1.1786,1.1883,1.1295,1.0504,0.0,0.0,0.8127,0.6333,0.5004,0.399,0.3248,0.3174,0.3169,0.3234,0.392,0.4498,0.4515,0.4351,0.3729,0.2436,0.2261,0.1418,-0.0499,-0.0763,-0.1029,-0.1652,-0.1689,-0.1772,-0.1903,-0.2685,-0.2958,-0.2682,-0.4533,-0.5251,-0.4536,-0.4147,-0.4883,-0.6622,-0.698,-0.7048,-0.6757,-0.4707,-0.3776,-0.3809,-0.4224,-0.5142,-0.6328,-0.6376,-0.7018,-0.7916,-0.811,-0.9169,-1.0794,-1.2422,-1.4097,-1.571,-1.682,-1.7182,-1.7213,-1.7666,-1.7401,-1.6847,-1.6465,-1.6733,-1.7117,-1.6664,-1.6425,-1.6413,-1.6886,-1.6686,-1.6567,-1.7136,-1.7786,-1.7857,-1.6459,-1.6311,-1.5751,-1.3341,-1.2052,-1.1023,-1.0141,-0.9047,-0.795,-0.6867,-0.2136,0.1344,0.148,0.1252,-0.0226,-0.3679,-0.0804,-0.1277,-0.7852,-0.7896,-0.7537,-0.7481,-0.606,-0.5325,-0.5551,-0.4704,-0.4201,-0.4092,-0.2547,-0.1603,-0.1194,-0.0133,-0.0267,-0.1561,-0.0223,0.0983,0.9403,0.9829,0.0,0.0,0.9839,0.9322,0.8616,0.8106,0.7291,0.5623,0.4652,0.3915,0.3245,0.3159,0.3222,0.0,0.3923,0.4433,0.4351,0.4234,0.3657,0.2251,0.2062,0.1442,-0.0233,-0.0682,-0.1163,-0.1741,-0.214,-0.2625,-0.3284,-0.3561,-0.3829,-0.3975,-0.4192,-0.4539,-0.4964,-0.389,-0.4143,-0.5699,-0.6382,-0.6095,-0.4999,-0.4035,-0.358,-0.3667,-0.4635,-0.5064,-0.5052,-0.6008,-0.6381,-0.6409,-0.7092,-0.8076,-0.9367,-1.1267,-1.2628,-1.3638,-1.4992,-1.5327,-1.5205,-1.5687,-1.583,-1.5856,-1.6099,-1.6488,-1.6894,-1.7195,-1.7005,-1.6862,-1.7396,-1.7117,-1.6896,-1.7803,-1.81,-1.8039,-1.7399,-1.6744,-1.5823,-1.4329,-1.3273,-1.2283,-1.1291,-0.9765,-0.6991,-0.1962,0.0695,0.3761,0.8254,0.8214,0.5363,-0.0951,-0.0128,-0.0934,-0.5427,-0.7373,-0.815,-0.7739,-0.6741,-0.6395,-0.6904,-0.6336,-0.5849,-0.547,-0.3802,-0.3561,-0.4816,-0.3001,-0.2368,-0.2851,-0.2324,-0.1071,0.8294,0.0,0.0,0.9009,0.8631,0.8105,0.7358,0.6979,0.6447,0.519,0.4473,0.3929,0.3413,0.3159,0.3056,0.3194,0.3767,0.4204,0.4267,0.4184,0.3604,0.2217,0.2,0.1456,0.0143,-0.0688,-0.1385,-0.2006,-0.2586,-0.3249,-0.3906,-0.3865,-0.3928,-0.4176,-0.3839,-0.3988,-0.4754,-0.3386,-0.3051,-0.3702,-0.4575,-0.4495,-0.3618,-0.3609,-0.3608,-0.3654,-0.4724,-0.4792,-0.4264,-0.5471,-0.5551,-0.4933,-0.6171,-0.7208,-0.8206,-1.0072,-1.135,-1.2267,-1.3426,-1.3839,-1.3945,-1.4496,-1.4785,-1.5082,-1.5978,-1.6364,-1.6632,-1.7468,-1.7477,-1.7288,-1.7457,-1.703,-1.6786,-1.7691,-1.7574,-1.7332,-1.7535,-1.674,-1.5788,-1.5158,-1.4225,-1.3284,-1.2466,-0.8849,-0.3995,0.2098,0.4302,0.7431,1.3463,1.1864,0.8405,0.3754,0.1303,-0.0751,-0.2676,-0.5018,-0.6525,-0.6928,-0.6421,-0.6576,-0.7741,-0.7524,-0.6747,-0.5487,-0.487,-0.5035,-0.6052,-0.471,-0.3939,-0.3674,-0.3605,-0.2658,0.0,0.0,0.8734,0.8734,0.8006,0.7172,0.6437,0.5871,0.5374,0.4673,0.3898,0.3312,0.3156,0.2619,0.2428,0.2992,0.3222,0.3622,0.4401,0.4209,0.3565,0.2314,0.1968,0.1319,0.0,-0.1054,-0.2008,-0.263,-0.3214,-0.335,-0.2763,-0.3303,-0.3414,-0.2976,-0.3501,-0.3277,-0.2103,-0.2073,-0.1413,-0.0187,-0.1357,-0.2532,-0.3588,-0.3619,-0.3585,-0.3619,-0.3663,-0.367,-0.3622,-0.3667,-0.369,-0.3807,-0.521,-0.6123,-0.6844,-0.841,-1.0187,-1.1894,-1.2472,-1.3238,-1.4139,-1.5067,-1.4962,-1.477,-1.6242,-1.6502,-1.6494,-1.7438,-1.7763,-1.7716,-1.6931,-1.6316,-1.599,-1.6314,-1.5897,-1.5613,-1.6132,-1.6219,-1.6065,-1.5647,-1.4828,-1.4053,-1.3695,-0.5611,0.1426,0.3289,0.9038,1.3796,1.5595,1.0125,0.7457,1.1052,0.4589,-0.0034,-0.0103,-0.021,-0.165,-0.4871,-0.4388,-0.5154,-0.7706,-0.7777,-0.6473,-0.3648,-0.5787,-0.5814,-0.3609,-0.4697,-0.4802,-0.3896,-0.3694,-0.3572,0.0,0.0,0.7108,0.7236,0.7057,0.6673,0.605,0.5694,0.5295,0.4445,0.4104,0.3685,0.3092,0.3203,0.3346,0.3126,0.3537,0.3993,0.4267,0.4184,0.3788,0.2919,0.2278,0.0,0.0,0.0,0.0,-0.2181,-0.2718,-0.3155,-0.3566,-0.3774,-0.3797,-0.3645,-0.3435,-0.3357,-0.3315,-0.1937,-0.1119,-0.08,-0.2275,-0.2364,-0.1286,-0.2857,-0.272,-0.1296,-0.2892,-0.3359,-0.3014,-0.3436,-0.3674,-0.3799,-0.4688,-0.5217,-0.5615,-0.6794,-0.7898,-0.8939,-1.0349,-1.1085,-1.1664,-1.2886,-1.3663,-1.4454,-1.5971,-1.6385,-1.6612,-1.8057,-1.7955,-1.7503,-1.817,-1.7719,-1.699,-1.6487,-1.6261,-1.5759,-1.4313,-1.4608,-1.4794,-1.3637,-1.3055,-1.2493,-1.1642,-0.5823,0.0989,0.7691,1.2807,1.5929,1.6092,1.3824,1.0089,0.4571,0.1595,0.0,0.0,0.0,-0.048,-0.1617,-0.1441,-0.1719,-0.2607,-0.7003,-0.9001,-0.8048,-0.4272,-0.2726,-0.3494,-0.3167,-0.3598,-0.4803,-0.3998,-0.3609,0.6854,0.6903,0.6937,0.6788,0.6751,0.6633,0.5975,0.5413,0.487,0.4247,0.4117,0.3948,0.3266,0.3365,0.3473,0.3355,0.3524,0.3814,0.4128,0.415,0.3907,0.3237,0.2503,0.177,0.0,0.0,0.0,-0.1549,-0.2317,-0.2908,-0.3257,-0.3717,-0.3943,-0.3736,-0.3302,-0.3326,-0.3758,-0.2166,-0.1298,-0.1226,-0.1939,-0.1492,-0.0044,-0.1585,-0.1469,-0.0093,-0.1649,-0.2342,-0.241,-0.3027,-0.3104,-0.2989,-0.4382,-0.4792,-0.4819,-0.6065,-0.677,-0.7263,-0.8691,-0.9756,-1.0636,-1.1849,-1.3042,-1.4337,-1.6059,-1.6494,-1.6717,-1.8442,-1.8059,-1.7418,-1.8456,-1.7715,-1.6525,-1.592,-1.5654,-1.51,-1.3332,-1.3496,-1.3714,-1.2742,-1.2279,-1.1327,-0.8976,-0.2651,0.3843,0.9054,1.1899,1.3602,1.404,1.5955,1.2838,0.1236,0.0,0.0,0.0,0.0,-0.135,-0.4506,-0.1736,0.0,0.0,-0.1909,-0.4109,-0.6548,-0.2266,-0.0754,-0.2258,-0.3179,-0.4021,-0.4683,-0.3958,-0.3653,0.6603,0.7311,0.801,0.7205,0.6978,0.6744,0.5944,0.4941,0.414,0.4039,0.4002,0.3914,0.0,0.0,0.2981,0.3714,0.3236,0.3126,0.4059,0.4083,0.3833,0.0,0.0,0.0,0.0,0.0,0.0,-0.0812,0.0,-0.2566,-0.2074,-0.3277,-0.3789,-0.339,-0.3189,-0.3243,-0.3456,-0.264,-0.1888,-0.1183,-0.0473,-0.0046,0.0,0.0,0.0,0.0,-0.0047,-0.0698,-0.1758,-0.2386,-0.2093,-0.1488,-0.4107,-0.4752,-0.4362,-0.6046,-0.6701,-0.6872,-0.7608,-0.9131,-1.0931,-1.1958,-1.3037,-1.4333,-1.6359,-1.6765,-1.6835,-1.8365,-1.8045,-1.7306,-1.7726,-1.6366,-1.4853,-1.4592,-1.4212,-1.3685,-1.2957,-1.283,-1.2816,-1.2761,-1.2223,-1.0312,-0.5674,0.3364,0.9275,0.7312,0.6873,0.7566,0.9746,1.5591,1.4538,0.1397,0.0,0.0,0.0,0.0,-0.3595,-1.1982,-0.5076,-0.0486,-0.0,0.628,0.6843,0.0629,0.0396,0.022,-0.0,-0.441,-0.5545,-0.3614,-0.3604,-0.3705,0.6865,0.6388,0.5815,0.5826,0.5575,0.5262,0.5035,0.4476,0.4033,0.388,0.3765,0.37,0.0,0.0,0.0,0.4026,0.3833,0.0,0.4365,0.4375,0.0,0.0,0.0,0.2073,0.1926,0.0767,0.0,0.0,-0.0987,-0.1854,-0.2927,-0.3184,-0.3617,-0.4178,-0.3577,-0.3539,-0.4236,-0.3447,-0.2485,-0.1434,-0.1349,-0.0884,0.0,0.0,0.0,-0.0047,-0.0946,-0.1008,-0.0538,-0.1282,-0.1662,-0.1863,-0.2578,-0.3174,-0.3718,-0.4465,-0.5429,-0.6418,-0.6937,-0.7916,-0.9134,-1.0304,-1.183,-1.3498,-1.4737,-1.5761,-1.6658,-1.7464,-1.697,-1.6297,-1.6786,-1.5976,-1.474,-1.3862,-1.3551,-1.2847,-1.0724,-1.1084,-1.1308,-0.9488,-0.7616,-0.4731,0.0231,0.3312,0.4899,0.4358,0.4724,0.5375,0.6308,0.5735,0.3894,0.0367,0.0,0.0,0.0,0.0,-0.0975,-0.3214,-0.7455,-0.6867,-0.0266,0.1693,0.4215,0.7598,0.6074,0.3483,-0.0,-0.0355,-0.1557,-0.3523,-0.3588,-0.3646,0.687,0.6538,0.6199,0.5807,0.5574,0.5389,0.5405,0.4922,0.4345,0.4103,0.398,0.0,0.0,0.0,0.0,0.0,0.0,0.0,0.4254,0.4368,0.4392,0.0,0.3456,0.0,0.2232,0.1174,0.0336,0.0,-0.0918,-0.1877,-0.2781,-0.3398,-0.3938,-0.446,-0.3622,-0.3398,-0.3843,-0.3833,-0.3464,-0.2675,-0.2738,-0.2347,-0.1563,-0.046,0.0,-0.0048,0.0,-0.0633,-0.005,-0.0855,-0.1132,-0.1169,-0.1858,-0.2362,-0.288,-0.3703,-0.4823,-0.6016,-0.6783,-0.7516,-0.8338,-0.9748,-1.1407,-1.3113,-1.4182,-1.5211,-1.6139,-1.652,-1.5858,-1.5072,-1.5453,-1.4738,-1.3617,-1.2268,-1.2089,-1.1496,-0.883,-0.8909,-0.8952,-0.7101,-0.4765,-0.2057,0.1117,0.2952,0.3713,0.2947,0.3282,0.3011,0.1352,0.0477,-0.1158,-0.4198,-0.181,0.0,0.0,0.0,0.0,0.0,-0.4661,-0.6937,-0.5853,-0.2079,0.1828,0.571,0.7534,0.717,0.4508,0.2127,0.0454,-0.0538,-0.3146,-0.4096,0.7125,0.7388,0.7822,0.6713,0.6375,0.6348,0.6365,0.5687,0.4918,0.4625,0.0,0.4276,0.3894,0.0,0.2968,0.3834,0.0,0.3179,0.4068,0.4105,0.416,0.4336,0.3622,0.2843,0.2232,0.1452,0.0727,0.0168,-0.1228,-0.212,-0.2174,-0.3566,-0.4405,-0.4519,-0.3677,-0.3174,-0.3063,-0.4024,-0.4402,-0.425,-0.3977,-0.3596,-0.3074,-0.0956,0.0,0.0,0.0432,0.049,0.0252,-0.0407,-0.0364,0.0,-0.1274,-0.1859,-0.2183,-0.3315,-0.4585,-0.5781,-0.6834,-0.7548,-0.827,-0.9674,-1.1182,-1.2696,-1.3782,-1.4609,-1.531,-1.5475,-1.4744,-1.3858,-1.3776,-1.2952,-1.1768,-1.0219,-1.0085,-0.9632,-0.7272,-0.6651,-0.6223,-0.5154,-0.2911,-0.1014,-0.0195,0.2458,0.3939,0.2409,0.2227,0.0785,-0.3211,-0.196,-0.299,-0.9002,-0.5483,-0.1994,-0.0165,0.0,0.0,0.0,0.0,-0.3442,-1.1142,-0.4081,0.0,0.0,0.5881,0.8913,0.8925,0.3791,0.1886,0.2838,-0.1821,-0.3922,0.8867,0.8592,0.8246,0.7762,0.7407,0.6948,0.6385,0.5864,0.0,0.0,0.0,0.4483,0.4797,0.4166,0.0,0.3932,0.0,0.0,0.0,0.0,0.349,0.0,0.0,0.0,0.0,0.0,0.0,0.0,0.0,-0.1563,-0.2174,-0.3067,-0.3846,-0.4463,-0.4359,-0.391,-0.3231,-0.4079,-0.4464,-0.4428,-0.3594,-0.2269,-0.0596,-0.0193,0.0,0.0143,0.2621,0.0,0.1819,0.166,0.1322,0.0884,0.0643,-0.0593,-0.2203,-0.2442,-0.418,-0.6428,-0.6663,-0.7576,-0.8709,-0.8951,-0.9987,-1.1106,-1.1288,-1.2599,-1.4046,-1.4052,-1.366,-1.2945,-1.1734,-1.0611,-0.9588,-0.8323,-0.7802,-0.7306,-0.6301,-0.5049,-0.3771,-0.2649,-0.1082,0.0445,0.1542,0.223,0.2525,0.2249,0.1219,-0.0342,-0.2551,-0.3738,-0.4839,-0.6039,-1.2675,-1.2387,-0.0971,0.0,0.0,0.0,0.0,-0.0672,-0.2235,-0.0804,0.0,0.0,0.1156,0.1808,0.179,0.6103,0.5574,0.0615,0.2183,0.0046,0.9402,0.9188,0.8915,0.8351,0.7754,0.7255,0.7127,0.0,0.0,0.0,0.0,0.5611,0.5764,0.0,0.0,0.0,0.0,0.0,0.0,0.0,0.0,0.0,0.0,0.0,0.0,0.0,0.0,0.0,0.0,-0.1396,-0.2174,-0.3345,-0.3901,-0.3732,-0.4245,-0.3799,-0.2395,-0.3799,-0.4501,-0.4487,-0.3484,-0.1942,0.0,0.0,0.0,0.0151,0.2983,0.3933,0.3358,0.2537,0.1977,0.1613,0.1237,0.0268,-0.103,-0.1864,-0.3426,-0.5228,-0.5802,-0.6663,-0.7483,-0.7623,-0.8803,-1.0281,-1.0612,-1.1414,-1.2155,-1.1836,-1.1415,-1.0722,-0.938,-0.8602,-0.7838,-0.6365,-0.5112,-0.4164,-0.3927,-0.3257,-0.2333,-0.1098,0.0314,0.1886,0.3637,0.3276,0.2911,0.3286,0.1421,-0.081,-0.3017,-0.4819,-0.6617,-0.8429,-1.1029,-1.0665,-0.5786,-0.2074,0.0,0.0,0.0,0.0,0.0,0.0,0.0,0.0,0.0,0.0,0.0,0.3212,0.4983,0.5316,0.3172,-0.0139,0.9786,0.9788,0.9807,0.8987,0.824,0.7745,0.7882,0.743,0.0,0.0,0.6734,0.659,0.6436,0.0,0.0,0.0,0.0,0.0,0.0,0.0,0.0,0.0,0.0,0.0,0.0,0.0,0.0,0.0,0.0,0.0,-0.2174,-0.3345,-0.3732,-0.3118,-0.3574,-0.3125,-0.1671,-0.3125,-0.3858,-0.3858,-0.3044,-0.209,-0.0962,-0.031,0.0361,0.1056,0.32,0.4275,0.4423,0.3189,0.2667,0.2613,0.2043,0.1118,0.0,-0.1432,-0.2812,-0.4073,-0.5115,-0.5873,-0.6343,-0.6528,-0.7753,-0.9221,-0.9695,-0.9951,-1.0007,-0.9619,-0.9264,-0.8672,-0.7291,-0.6871,-0.6281,-0.4245,-0.2517,-0.1357,-0.1512,-0.1551,-0.1115,0.0221,0.1751,0.342,0.5213,0.4783,0.4232,0.4178,0.2031,-0.0512,-0.3254,-0.4979,-0.7138,-1.0262,-0.8088,-0.7184,-0.9066,-0.3552,0.0412,0.1338,0.054,0.0,0.0,0.0,0.0,0.0,0.0,0.0,-0.0,-0.0733,0.208,0.797,0.3478,-0.0093,1.0498,1.0704,1.0712,1.0104,0.9492,0.8821,0.8088,0.0,0.0,0.7742,0.7241,0.6687,0.6462,0.5761,0.4978,0.0,0.0,0.4006,0.0,0.0,0.0,0.0,0.0,0.0,0.0,0.0,0.0,0.0,0.0,-0.1396,-0.2174,-0.2343,-0.2676,-0.3345,-0.2345,-0.1899,-0.2119,-0.1899,-0.1789,-0.1789,-0.1672,-0.2508,-0.3971,-0.1234,0.1482,0.4118,0.4355,0.4463,0.0,0.4341,0.4288,0.4294,0.4204,0.2481,-0.0055,-0.0907,-0.2515,-0.4446,-0.5249,-0.5968,-0.6558,-0.6578,-0.6745,-0.6907,-0.695,-0.7416,-0.7858,-0.7828,-0.828,-0.8242,-0.5974,-0.5406,-0.4638,-0.1743,-0.0396,0.015,0.0052,0.0,0.0411,0.1751,0.3682,0.5194,0.5462,0.6445,0.6318,0.3802,0.2617,0.0847,-0.2309,-0.3571,-0.4866,-0.6757,-0.8805,-0.8865,-0.6009,-0.2213,0.1719,0.5738,0.223,0.0,0.0,0.0,0.0,0.0,0.0,0.0,-0.0,-0.311,-0.2725,0.1005,0.4298,0.3619,1.0247,1.0635,1.0808,1.0047,0.9546,0.8957,0.8081,0.0,0.0,0.7269,0.7026,0.676,0.6545,0.5917,0.5271,0.4841,0.0,0.0,0.0,0.0,0.0,0.0,0.0,0.0,0.0,0.0,0.0,0.0,0.0,-0.056,-0.0838,-0.173,-0.212,-0.2009,-0.1953,-0.1564,-0.0895,-0.19,-0.2124,-0.151,-0.179,-0.2805,-0.434,-0.044,0.2464,0.4522,0.4501,0.449,0.0,0.4494,0.4522,0.4463,0.396,0.2754,0.1166,0.0,-0.1263,-0.2558,-0.3779,-0.4388,-0.4718,-0.5167,-0.5336,-0.55,-0.6372,-0.6794,-0.6886,-0.6445,-0.6206,-0.5793,-0.4449,-0.3083,-0.15,0.065,0.1317,0.1451,0.1418,0.1063,0.1025,0.1992,0.3587,0.5149,0.6551,0.6876,0.642,0.4807,0.3221,0.178,0.069,-0.0684,-0.1652,-0.1839,-0.4648,-0.6186,-0.537,-0.2038,0.189,0.6314,0.4954,0.2772,0.0105,0.0,0.0,0.0,0.0,0.0,-0.0,-0.5557,-0.7529,-0.6054,-0.0179,0.1627,0.9673,1.016,1.0414,0.9619,0.9205,0.8778,0.0,0.0,0.7406,0.7168,0.7194,0.7139,0.6679,0.6204,0.5666,0.5169,0.4587,0.421,0.0,0.0,0.0,0.0,0.0,0.0,0.0,0.0,0.0,0.0,0.0,0.0,0.0,-0.1006,-0.1396,-0.1118,-0.1396,-0.1174,-0.0448,-0.1566,-0.1733,-0.1063,-0.1399,-0.213,-0.3091,0.0112,0.2627,0.4494,0.4477,0.4522,0.0,0.4519,0.4519,0.446,0.3901,0.3176,0.2284,0.1111,0.0056,-0.0948,-0.2225,-0.2783,-0.3065,-0.3622,-0.3846,-0.4012,-0.4988,-0.5429,-0.5542,-0.5273,-0.4491,-0.3547,-0.2613,-0.0708,0.1327,0.268,0.3094,0.3052,0.2615,0.2131,0.2004,0.2989,0.427,0.5868,0.7893,0.7775,0.7034,0.5791,0.4229,0.3151,0.3027,0.1991,0.1531,0.208,0.0044,-0.1763,-0.2817,-0.0365,0.3094,0.753,0.7934,0.6589,0.3467,0.1201,0.0,0.0,0.0,0.0,-0.0,-0.6912,-1.0309,-1.0186,-0.5331,-0.122,0.8824,0.9252,0.9552,0.8965,0.8597,0.8272,0.0,0.0,0.7555,0.7815,0.8163,0.8044,0.6817,0.6588,0.615,0.4732,0.4341,0.0,0.0,0.0,0.0,0.0,0.0,0.0,0.0,0.0,0.0,0.0,0.0,0.0,0.0,0.0,-0.0336,-0.1062,-0.0392,-0.0504,-0.1454,-0.0504,0.0,0.0,0.0,-0.0056,-0.0056,0.0,0.1675,0.4497,0.4484,0.4473,0.0,0.4519,0.4519,0.4519,0.4519,0.3898,0.295,0.2384,0.1275,-0.0111,-0.0887,-0.1612,-0.2232,-0.2232,-0.2232,-0.2232,-0.223,-0.2732,-0.3511,-0.4294,-0.34,-0.1895,-0.039,0.1607,0.3481,0.4197,0.4922,0.5093,0.3591,0.3274,0.3715,0.5069,0.6486,0.7918,0.9401,0.968,0.8878,0.6446,0.5738,0.5119,0.4136,0.4206,0.4359,0.4364,0.4569,0.4157,0.2845,0.3538,0.5947,1.0391,1.1028,1.1224,1.1184,0.3976,0.0,0.0,0.0,0.0,-0.0,-0.6912,-1.0303,-1.032,-1.025,-0.4033,0.8457,0.8791,0.8991,0.8604,0.829,0.7963,0.7607,0.0,0.7451,0.7216,0.7401,0.7418,0.6709,0.6199,0.5706,0.5273,0.4747,0.4409,0.0,0.0,0.0,0.0,0.0,0.0,0.0,0.0,0.0,0.0,0.0,0.0745,0.0728,0.0286,-0.0115,-0.0336,-0.0112,-0.0168,-0.0448,-0.0168,0.0,0.0,0.0,0.0,0.0056,0.1061,0.2009,0.2961,0.4021,0.4522,0.4519,0.4519,0.4519,0.4519,0.4519,0.4012,0.3231,0.3005,0.2336,0.1392,0.0666,-0.0056,-0.0779,-0.1278,-0.1781,-0.2174,-0.2174,-0.2343,-0.2508,-0.2232,-0.1448,-0.0334,0.1113,0.2773,0.4368,0.5584,0.5701,0.537,0.4903,0.3987,0.3555,0.4515,0.5837,0.7419,0.9357,0.9327,0.8532,0.7112,0.5947,0.5127,0.4858,0.5431,0.6292,0.7498,0.7232,0.6331,0.4772,0.5083,0.6724,0.9935,0.8837,1.0207,1.4932,1.1425,0.6404,0.0131,0.0,0.0,-0.0,-0.2205,-0.5666,-1.0303,-1.0284,-0.5815,0.0,0.825,0.8404,0.8103,0.7889,0.0,0.0,0.0,0.755,0.7294,0.7585,0.7692,0.7101,0.6637,0.6249,0.5977,0.555,0.0,0.0,0.0,0.0,0.0,0.0,0.0,0.0,0.0,0.0,0.0,0.1763,0.1541,0.151,0.1083,0.0858,0.0839,0.028,0.0,0.0,0.0,0.0,0.0,0.0,0.0,0.0056,0.1509,0.2289,0.2567,0.3624,0.4236,0.0,0.4519,0.4519,0.4519,0.4519,0.4239,0.379,0.379,0.3287,0.2563,0.2112,0.1445,0.0723,-0.0056,-0.078,-0.1397,-0.1397,-0.1786,-0.1952,-0.0614,-0.0167,0.0445,0.25,0.3929,0.5186,0.6681,0.6475,0.586,0.5558,0.4754,0.4326,0.5062,0.6343,0.7933,0.979,0.9029,0.8063,0.7728,0.6199,0.5198,0.5553,0.6578,0.7576,0.849,0.8707,0.8576,0.7942,0.7772,0.8696,1.1046,1.0524,1.2165,1.6719,1.4843,1.182,0.7854,0.2656,-0.1657,-0.4994,-0.4965,-0.6355,-0.888,-0.7177,-0.453,0.0,0.7649,0.0,0.0,0.0,0.0,0.0,0.0,0.0,0.7882,0.8383,0.8567,0.7883,0.7723,0.745,0.6804,0.6642,0.0,0.0,0.0,0.0,0.0,0.0,0.0,0.0,0.0,0.0,0.0,0.2293,0.2293,0.2287,0.2237,0.2181,0.2174,0.0895,0.0168,0.0112,0.0112,0.0112,0.0167,0.028,0.028,0.0223,0.1677,0.2629,0.0,0.3347,0.3846,0.4519,0.4519,0.4519,0.4519,0.4519,0.4519,0.4519,0.4519,0.4015,0.34,0.3456,0.2954,0.2174,0.1396,0.0727,0.0168,0.0168,-0.0838,-0.1561,0.0502,0.0669,0.0888,0.3649,0.4965,0.5941,0.7385,0.7182,0.647,0.5779,0.5629,0.5797,0.6445,0.7694,0.9103,1.0509,0.8889,0.7641,0.827,0.6526,0.5439,0.6192,0.7573,0.825,0.7846,0.922,1.0586,1.1602,1.1129,1.15,1.3255,1.4846,1.5994,1.6606,1.4882,1.6028,2.0505,0.7044,-0.4053,-1.2256,-1.289,-1.1087,-0.6968,-0.2861,-0.1653,0.7108,0.0,0.7178,0.7141,0.7128,0.0,0.0,0.0,0.0,0.0,0.0,0.0,0.0,0.8103,0.7616,0.745,0.6966,0.0,0.0,0.0,0.0,0.0,0.0,0.0,0.0,0.0,0.0,0.4012,0.3367,0.3092,0.3125,0.2514,0.2177,0.2176,0.1842,0.1506,0.1171,0.1171,0.1338,0.1673,0.2854,0.2798,0.1729,0.3241,0.403,0.4141,0.4242,0.4349,0.4519,0.4519,0.4519,0.4519,0.4519,0.4519,0.4519,0.4519,0.4405,0.4236,0.4236,0.3735,0.301,0.2174,0.184,0.1675,0.1675,0.106,0.0447,0.095,0.1839,0.289,0.4097,0.5362,0.6573,0.7503,0.7563,0.7396,0.7219,0.674,0.6578,0.7267,0.77,0.8396,0.9806,0.8697,0.7877,0.863,0.7086,0.6187,0.7277,0.7565,0.7888,0.8407,0.9499,1.0277,1.0547,1.0922,1.1954,1.3803,1.3799,1.3864,1.4064,1.5406,1.7558,2.0552,0.7041,-0.1009,-0.3135,-0.9899,-1.2692,-1.1626,-1.0587,-0.6742,0.7765,0.7398,0.7054,0.7194,0.7228,0.7228,0.0,0.0,0.0,0.0,0.0,0.0,0.0,0.0,0.0,0.0,0.0,0.0,0.0,0.0,0.0,0.0,0.0,0.0,0.0,0.0,0.0,0.4948,0.4247,0.3863,0.3907,0.3516,0.3239,0.3234,0.3234,0.2785,0.1839,0.1839,0.2062,0.2563,0.3413,0.3355,0.2619,0.3913,0.4307,0.4024,0.4353,0.4519,0.4515,0.4842,0.4787,0.4515,0.4842,0.4787,0.4519,0.4519,0.4519,0.4519,0.4519,0.4015,0.3345,0.2899,0.2508,0.2174,0.2174,0.2174,0.2176,0.212,0.295,0.4106,0.5144,0.6244,0.7289,0.8049,0.7937,0.7723,0.7723,0.7402,0.7337,0.8019,0.8448,0.9026,1.0056,0.9134,0.8319,0.8606,0.7146,0.6356,0.7147,0.7771,0.8366,0.8849,1.0108,1.1054,1.1384,1.1743,1.2459,1.3634,1.359,1.3813,1.4411,1.6022,1.8064,2.0552,1.3261,0.774,0.425,-0.228,-0.6359,-0.8144,-1.1601,-1.0611,0.8716,0.8013,0.7335,0.7598,0.7704,0.7674,0.7633,0.0,0.0,0.0,0.0,0.0,0.0,0.0,0.0,0.0,0.0,0.0,0.0,0.0,0.0,0.0,0.0,0.0,0.0,0.0,0.4842,0.5328,0.4842,0.4519,0.4519,0.457,0.468,0.468,0.4791,0.4174,0.2892,0.2674,0.2785,0.3229,0.3236,0.3236,0.3284,0.4132,0.4135,0.3622,0.0,0.0,0.4519,0.5113,0.4999,0.4563,0.5101,0.4992,0.4505,0.4673,0.4732,0.4732,0.4787,0.4343,0.3729,0.3729,0.3176,0.2565,0.2565,0.301,0.3566,0.3511,0.3944,0.4761,0.6199,0.7074,0.7723,0.8593,0.8321,0.7883,0.7984,0.7937,0.8084,0.8894,0.9393,0.9944,1.0588,0.9811,0.9018,0.8686,0.7523,0.6762,0.7111,0.8357,0.922,0.9197,1.0687,1.1938,1.257,1.2812,1.3068,1.3415,1.393,1.4809,1.6084,1.6738,1.8153,2.0452,2.0568,1.7441,1.1014,0.7828,0.4083,-0.0305,-0.7723,-1.1175,0.8716,0.8553,0.8447,0.8495,0.8511,0.8466,0.0,0.0,0.0,0.0,0.0,0.0,0.0,0.0,0.0,0.0,0.0,0.0,0.0,0.0,0.0,0.0,0.0,0.0,0.0,0.5449,0.5164,0.4677,0.457,0.4519,0.4519,0.5058,0.5324,0.5324,0.5932,0.615,0.5923,0.4725,0.4184,0.4294,0.4294,0.4294,0.4294,0.4408,0.4463,0.4349,0.0,0.4519,0.4519,0.4625,0.4608,0.4529,0.4634,0.4569,0.4609,0.54,0.5688,0.5742,0.6145,0.5819,0.5156,0.5156,0.4725,0.4125,0.4125,0.4236,0.4349,0.4294,0.4401,0.4787,0.6204,0.6696,0.7128,0.848,0.8699,0.8798,0.9347,0.9047,0.8995,1.0254,0.9834,0.9502,1.0173,1.0124,1.0064,1.0223,0.9555,0.9173,0.9529,0.9717,0.9805,0.9628,1.0608,1.1454,1.1926,1.2946,1.3839,1.444,1.4771,1.5616,1.7101,1.7645,1.858,1.9984,2.0399,2.0034,1.8858,1.8278,1.4703,0.8252,0.1225,-0.2036,0.9558,0.9558,0.9558,0.9558,0.903,0.843,0.0,0.0,0.0,0.0,0.0,0.0,0.0,0.0,0.0,0.0,0.0,0.0,0.0,0.0,0.0,0.0,0.0,0.0,0.0,0.637,0.5982,0.566,0.5277,0.4897,0.4515,0.4787,0.4948,0.4948,0.5277,0.566,0.5982,0.5382,0.5222,0.5609,0.5609,0.5609,0.5609,0.5609,0.5609,0.5609,0.0,0.5386,0.5058,0.5496,0.516,0.4546,0.5078,0.5579,0.6091,0.6249,0.6298,0.6298,0.6529,0.6367,0.6091,0.6091,0.5878,0.5609,0.5609,0.5609,0.5584,0.5477,0.5524,0.5873,0.6886,0.7741,0.8495,0.9197,0.9361,0.9309,0.9256,0.9309,0.9614,1.061,1.0681,1.082,1.1531,1.1266,1.0976,1.1012,1.0383,1.003,1.0415,1.0954,1.1318,1.1502,1.219,1.2815,1.3338,1.3595,1.4215,1.5315,1.5503,1.6131,1.7342,1.6957,1.7713,1.9856,1.9461,1.9687,2.0609,2.1218,1.9888,1.6671,1.1993,0.6313,1.0283,1.0283,1.0283,1.0118,0.9336,0.0,0.0,0.0,0.0,0.0,0.0,0.0,0.0,0.0,0.0,0.0,0.0,0.0,0.0,0.0,0.0,0.0,0.0,0.0,0.7839,0.7116,0.6588,0.6588,0.5923,0.5273,0.4787,0.4732,0.4791,0.5007,0.5171,0.5529,0.6177,0.6172,0.6308,0.6588,0.6588,0.6588,0.6588,0.6588,0.6588,0.6588,0.6588,0.6258,0.5814,0.6258,0.5655,0.4549,0.5299,0.6431,0.766,0.7263,0.7128,0.7128,0.7128,0.702,0.6858,0.6858,0.675,0.6578,0.6523,0.6508,0.6468,0.6241,0.6571,0.7131,0.7629,0.8781,0.9799,1.0012,1.0012,0.9909,0.9562,0.9762,1.0312,1.1308,1.1514,1.1794,1.2653,1.2059,1.1456,1.1462,1.0976,1.068,1.0921,1.1808,1.2514,1.2705,1.3346,1.405,1.4652,1.4283,1.4559,1.5888,1.6253,1.6907,1.7963,1.7231,1.7769,1.9781,1.933,1.9628,2.0734,2.1914,2.2494,2.2429,2.0305,1.3827,1.0283,1.0283,1.0166,0.9677,0.9506,0.0,0.9403,0.9512,0.0,0.8954,0.0,0.0,0.0,0.0,0.0,0.0,0.0,0.0,0.0,0.0,0.0,0.0,0.0,0.8017,0.7716,0.7031,0.6588,0.6588,0.5923,0.5487,0.5433,0.5433,0.576,0.6426,0.7128,0.7711,0.8195,0.8195,0.7644,0.6588,0.6588,0.6588,0.6588,0.6588,0.6588,0.6588,0.6588,0.6588,0.648,0.6105,0.5358,0.4494,0.4569,0.6298,0.8684,0.8672,0.8646,0.8646,0.8646,0.8209,0.7616,0.7616,0.7182,0.6548,0.628,0.6211,0.6211,0.6191,0.716,0.818,0.823,0.8968,0.99,1.0551,1.072,1.0864,1.1466,1.1116,1.1308,1.3226,1.202,1.109,1.2327,1.163,1.1103,1.1533,1.1923,1.1937,1.1417,1.2286,1.2579,1.1603,1.2879,1.405,1.4652,1.4663,1.4984,1.5866,1.7029,1.8316,1.9757,2.0451,2.0409,1.9649,2.1198,2.1713,2.1152,2.2435,2.3044,2.3022,2.272,2.0256,1.0283,1.0283,1.0244,1.004,0.9765,0.0,0.0,1.0013,1.0395,1.0287,1.1071,0.0,0.0,0.0,0.0,0.0,0.0,0.0,0.0,0.0,0.0,0.0,0.0,0.868,0.84,0.8156,0.7777,0.7343,0.7015,0.6686,0.6199,0.6204,0.6312,0.6588,0.6858,0.7225,0.7708,0.7702,0.7615,0.7398,0.7617,0.7695,0.7701,0.7864,0.7996,0.7996,0.7996,0.7723,0.7295,0.7597,0.645,0.4483,0.4523,0.6289,0.8785,0.8818,0.8804,0.8804,0.8804,0.8593,0.8374,0.8374,0.8209,0.7941,0.7668,0.7589,0.7597,0.7798,0.8699,0.9532,0.9264,1.0054,1.1082,1.1358,1.1233,1.1019,1.0825,1.0962,1.1454,1.251,1.2675,1.2897,1.374,1.2998,1.2412,1.2919,1.2539,1.2383,1.2839,1.3588,1.392,1.3485,1.4336,1.4732,1.419,1.4824,1.5651,1.657,1.7213,1.8121,1.9396,2.0275,2.07,2.0608,2.1265,2.1711,2.1888,2.2911,2.3578,2.3906,2.3338,2.2393,1.0361,1.0283,1.0283,1.0283,0.0,0.0,1.0268,1.0561,1.0849,1.1024,0.0,0.0,0.0,0.0,0.0,0.0,0.0,0.0,0.0,0.0,0.0,0.0,0.9894,0.9335,0.9134,0.891,0.8593,0.8103,0.783,0.7503,0.6966,0.675,0.6696,0.6966,0.6966,0.7172,0.7658,0.7566,0.7584,0.7789,0.7989,0.8239,0.8383,0.8577,0.8717,0.8804,0.8804,0.8533,0.8109,0.8605,0.7645,0.5828,0.5721,0.6939,0.8785,0.8811,0.8804,0.8804,0.8804,0.8804,0.8791,0.8697,0.8671,0.8597,0.821,0.8138,0.8187,0.8382,0.9113,0.9786,0.9709,1.0827,1.1907,1.1768,1.163,1.136,1.0749,1.1277,1.1969,1.2385,1.3097,1.3835,1.4435,1.3773,1.3367,1.3807,1.3261,1.3093,1.395,1.4422,1.4789,1.496,1.5365,1.5264,1.4457,1.5129,1.5966,1.6798,1.7276,1.8155,1.9573,2.0738,2.1353,2.1323,2.1844,2.2241,2.2528,2.3437,2.4154,2.4659,2.3848,2.3323,1.0428,1.0283,1.0283,0.0,0.0,0.0,1.1508,1.1202,1.0831,1.0814,0.0,0.0,0.0,0.0,0.0,0.0,0.0,0.0,0.0,0.0,0.0,1.1305,1.0428,0.9814,0.9814,0.9211,0.8811,0.8811,0.8103,0.7723,0.7723,0.702,0.6966,0.767,0.7723,0.7921,0.842,0.8076,0.7769,0.7506,0.7506,0.7829,0.837,0.8377,0.853,0.8804,0.8804,0.8804,0.8811,0.8825,0.8777,0.8749,0.8339,0.843,0.8784,0.8778,0.8804,0.8804,0.8804,0.8804,0.8758,0.8464,0.837,0.8306,0.7695,0.7513,0.7513,0.7513,0.7996,0.8689,0.9505,1.0948,1.2109,1.1704,1.1895,1.21,1.1694,1.2321,1.3017,1.3153,1.3219,1.3424,1.403,1.3732,1.3588,1.4043,1.4123,1.4248,1.4642,1.4698,1.4926,1.5543,1.5588,1.5588,1.5588,1.5632,1.584,1.6391,1.729,1.8695,2.0703,2.2339,2.2693,2.1628,2.3249,2.3729,2.3011,2.4005,2.4764,2.5274,2.4404,2.3441,1.0428,1.0283,0.0,0.0,0.0,0.0,0.0,1.1698,0.0,0.0,0.0,0.0,0.0,0.0,0.0,0.0,0.0,0.0,0.0,0.0,0.0,1.1633,1.0981,1.0517,1.0517,0.9917,0.951,0.951,0.8844,0.848,0.848,0.8268,0.8262,0.848,0.848,0.8499,0.8618,0.8525,0.843,0.8333,0.815,0.8042,0.807,0.8277,0.853,0.8804,0.8804,0.8804,0.8804,0.8824,0.8612,0.8387,0.8574,0.8705,0.8778,0.8811,0.8804,0.8778,0.8571,0.8504,0.845,0.8156,0.8063,0.8037,0.8042,0.8047,0.8261,0.9074,0.9461,0.9786,1.0371,1.0894,1.1348,1.1557,1.1426,1.127,1.1133,1.1643,1.2384,1.317,1.3922,1.4694,1.562,1.5307,1.501,1.5119,1.4799,1.4722,1.5252,1.532,1.541,1.5588,1.5915,1.6003,1.5632,1.6318,1.6714,1.6484,1.7758,1.9176,2.0671,2.1809,2.2401,2.2366,2.3243,2.3582,2.3417,2.4099,2.4622,2.5015,2.4958,2.4531,1.0725,0.0,0.0,0.0,0.0,0.0,0.0,0.0,0.0,0.0,0.0,0.0,0.0,0.0,0.0,0.0,0.0,0.0,0.0,0.0,1.2236,1.2236,1.1625,1.1216,1.1216,1.0439,0.9965,0.9965,0.9206,0.8747,0.8747,0.8666,0.8637,0.8637,0.883,0.8948,0.8901,0.8867,0.8837,0.8848,0.8593,0.8526,0.8623,0.8476,0.847,0.8644,0.8758,0.8804,0.8791,0.8615,0.8532,0.8416,0.836,0.8497,0.8778,0.8544,0.8537,0.8597,0.8297,0.8252,0.8261,0.7896,0.7835,0.7951,0.8143,0.8442,0.8776,0.9374,0.9541,0.9665,1.0199,1.0321,1.0479,1.0954,1.0977,1.0908,1.0908,1.1478,1.221,1.2831,1.3801,1.4771,1.5691,1.5688,1.5676,1.5908,1.5644,1.5632,1.6188,1.6275,1.6275,1.6275,1.6562,1.6617,1.6318,1.6925,1.7229,1.7146,1.8025,1.906,2.0213,2.1447,2.2207,2.2468,2.3077,2.3518,2.3749,2.3879,2.4291,2.4986,2.4976,2.4845,1.1207,0.0,0.0,0.0,0.0,0.0,0.0,0.0,0.0,0.0,0.0,0.0,0.0,0.0,0.0,0.0,0.0,0.0,1.2881,1.2881,1.2881,1.2881,1.2295,1.1904,1.1818,1.0914,1.0277,1.0244,0.933,0.8788,0.8788,0.856,0.8443,0.847,0.8948,0.9222,0.9242,0.9231,0.9228,0.9197,0.8948,0.9148,0.9699,0.89,0.8507,0.8524,0.8682,0.8744,0.8724,0.833,0.8412,0.8651,0.793,0.8064,0.8664,0.8172,0.8145,0.829,0.8037,0.8044,0.8057,0.7677,0.7718,0.7961,0.8143,0.8659,0.9157,0.8935,0.8837,0.8958,0.9439,0.9558,0.9686,1.0244,1.0665,1.0949,1.0908,1.1694,1.2394,1.2436,1.327,1.4209,1.4825,1.529,1.5776,1.6337,1.6466,1.668,1.7229,1.7312,1.7312,1.7394,1.7435,1.7422,1.7394,1.7435,1.7626,1.7987,1.8066,1.8507,1.9426,2.1005,2.1938,2.2068,2.2745,2.341,2.395,2.352,2.3916,2.5071,2.4709,2.4665,0.0,0.0,0.0,0.0,0.0,0.0,0.0,0.0,0.0,0.0,0.0,0.0,0.0,0.0,0.0,0.0,0.0,0.0,1.2881,1.2881,1.2881,1.2881,1.2774,1.2532,1.2148,1.1442,1.083,1.0532,0.979,0.9336,0.9336,0.8902,0.8738,0.904,0.9237,0.9394,0.9447,0.9979,1.0218,1.0054,0.9789,0.9767,0.9977,0.96,0.9458,0.9438,0.8482,0.825,0.8437,0.8131,0.8009,0.8096,0.7909,0.7949,0.8151,0.8431,0.8289,0.8031,0.8179,0.7982,0.7664,0.7264,0.7553,0.815,0.8766,0.9171,0.9496,0.9843,0.9961,1.0,1.0079,1.0127,1.0244,1.0653,1.1247,1.1521,1.1032,1.2027,1.3134,1.3617,1.4216,1.4927,1.596,1.5835,1.5632,1.5764,1.6194,1.668,1.7229,1.7312,1.7463,1.7867,1.8302,1.838,1.7947,1.8302,1.8263,1.7504,1.7867,1.821,1.8391,1.9525,2.062,2.1685,2.2278,2.2906,2.3617,2.3896,2.4342,2.4872,2.4985,2.5035,0.0,0.0,0.0,0.0,0.0,0.0,0.0,0.0,0.0,0.0,0.0,0.0,0.0,0.0,0.0,0.0,0.0,0.0,1.2881,1.2705,1.2568,1.2568,1.2373,1.2158,1.1934,1.1388,1.0994,1.0779,0.9977,0.9486,0.9486,0.9129,0.9074,0.9407,0.9802,0.9985,1.0021,1.0749,1.0923,1.0586,1.0671,1.0742,1.0785,1.0054,0.9802,0.9945,0.9051,0.8634,0.8496,0.7969,0.7948,0.8219,0.77,0.7629,0.7943,0.8229,0.8214,0.8119,0.841,0.8222,0.7787,0.7572,0.7934,0.8569,0.9448,0.979,0.9961,1.0205,1.0283,1.0283,1.0283,1.0283,1.0469,1.1216,1.1399,1.1511,1.1897,1.2346,1.2954,1.3781,1.4138,1.4586,1.5475,1.5876,1.6051,1.6051,1.6281,1.6795,1.7585,1.7666,1.7907,1.8419,1.8727,1.8878,1.8797,1.9074,1.8999,1.8454,1.8646,1.8698,1.8496,1.8977,1.9924,2.1275,2.179,2.2444,2.3258,2.3684,2.4186,2.471,2.5013,2.5205,0.0,0.0,0.0,0.0,0.0,0.0,0.0,0.0,0.0,0.0,0.0,0.0,0.0,0.0,0.0,0.0,0.0,0.0,1.2773,1.2451,1.218,1.218,1.1836,1.1577,1.1498,1.1123,1.0879,1.0811,1.0071,0.9637,0.9637,0.9331,0.9321,0.9723,1.0302,1.0615,1.0615,1.1322,1.1455,1.1025,1.143,1.1606,1.1553,1.0437,1.0031,1.0217,0.9603,0.9146,0.8701,0.8048,0.8113,0.8481,0.7545,0.7497,0.79,0.7915,0.8104,0.8402,0.8741,0.8602,0.8286,0.8286,0.8593,0.9129,1.0035,1.0293,1.0283,1.0283,1.0283,1.0283,1.0283,1.0361,1.0654,1.1657,1.1572,1.1642,1.2853,1.2843,1.2888,1.3788,1.4133,1.4365,1.4789,1.5788,1.6466,1.638,1.6423,1.6837,1.7827,1.8027,1.8302,1.8855,1.8968,1.9214,1.9692,1.9728,1.9728,1.9713,1.9697,1.9534,1.9163,1.9126,1.9763,2.1086,2.1368,2.195,2.2917,2.335,2.3916,2.4615,2.4979,2.5279,0.0,0.0,0.0,0.0,0.0,0.0,0.0,0.0,0.0,0.0,0.0,0.0,0.0,0.0,0.0,0.0,0.0,1.2268,1.2268,1.2219,1.218,1.218,1.1836,1.1459,1.1035,1.0947,1.0762,1.0391,1.0273,1.0196,1.0196,0.9732,0.9567,0.9872,1.047,1.0705,1.0615,1.1617,1.1914,1.1518,1.1577,1.1606,1.1587,1.0993,1.0656,1.0471,0.9325,0.8905,0.902,0.8673,0.832,0.799,0.7957,0.7953,0.7898,0.8028,0.8294,0.87,0.9217,0.9234,0.9067,0.9067,0.9537,1.0094,1.0251,1.0293,1.0283,1.0283,1.0283,1.0283,1.0283,1.0611,1.1058,1.1606,1.2332,1.2942,1.3093,1.3755,1.4402,1.4549,1.5421,1.6008,1.5543,1.6051,1.6337,1.582,1.6194,1.671,1.7353,1.7827,1.8302,1.8855,1.9332,1.9752,2.0177,2.0212,2.0165,2.0104,2.0104,2.0104,2.0035,2.0035,2.0505,2.1491,2.1244,2.154,2.2486,2.3346,2.406,2.4615,2.513,2.5379,0.0,0.0,0.0,0.0,0.0,0.0,0.0,0.0,0.0,0.0,0.0,0.0,0.0,0.0,0.0,0.0,0.0,1.1855,1.1855,1.1641,1.1484,1.1484,1.1103,1.0812,1.0576,1.0785,1.0784,1.0332,1.0544,1.0572,1.0322,1.0299,1.045,1.0822,1.1334,1.1562,1.1516,1.2232,1.25,1.2341,1.2051,1.1807,1.1587,1.1113,1.0839,1.0728,0.9925,0.9785,1.0089,0.9668,0.9348,0.9098,0.8856,0.8583,0.839,0.8745,0.901,0.9239,0.9765,0.9902,0.9802,0.9802,1.0018,1.0283,1.0283,1.0283,1.0283,1.0283,1.0283,1.0283,1.0283,1.0649,1.121,1.199,1.2981,1.3755,1.3987,1.4395,1.4789,1.5141,1.5644,1.6008,1.6095,1.6337,1.6423,1.6139,1.6324,1.668,1.7229,1.7787,1.8302,1.8855,1.9594,2.0227,2.0649,2.1085,2.1225,2.1006,2.1341,2.128,2.0668,2.0956,2.128,2.1546,2.1576,2.1922,2.2574,2.3458,2.4026,2.4292,2.4891,2.5197,0.0,0.0,0.0,0.0,0.0,0.0,0.0,0.0,0.0,0.0,0.0,0.0,0.0,0.0,0.0,0.0,0.0,1.1644,1.1644,1.1197,1.0949,1.1114,1.0726,1.0467,1.0467,1.0791,1.0867,1.0495,1.0791,1.0905,1.0697,1.0963,1.1348,1.1847,1.2083,1.2282,1.2437,1.2752,1.2881,1.2871,1.2432,1.1992,1.1596,1.139,1.1254,1.1135,1.0656,1.0615,1.0877,1.0597,1.038,1.0243,0.9734,0.9427,0.9264,0.96,0.9781,0.9895,1.0195,1.0283,1.0283,1.0283,1.0283,1.0283,1.0283,1.039,1.0467,1.0467,1.0582,1.0697,1.0697,1.1019,1.1593,1.2385,1.345,1.4422,1.4886,1.4975,1.505,1.5499,1.572,1.5952,1.6423,1.6522,1.6522,1.6522,1.6522,1.668,1.7229,1.7787,1.8302,1.8855,1.9651,2.0398,2.0959,2.1576,2.1927,2.1874,2.2417,2.2382,2.1606,2.1978,2.2143,2.1945,2.231,2.2565,2.2686,2.3569,2.4026,2.41,2.4714,2.5056,0.0,0.0,0.0,0.0,0.0,0.0,0.0,0.0,0.0,0.0,0.0,0.0,0.0,0.0,0.0,0.0,0.0,1.1713,1.1713,1.1246,1.1114,1.1591,1.1263,1.0943,1.0943,1.0981,1.0981,1.0981,1.0981,1.1207,1.17,1.1723,1.2005,1.2525,1.2392,1.2548,1.3076,1.2969,1.2881,1.2871,1.2432,1.1992,1.1606,1.217,1.2214,1.1802,1.1165,1.0889,1.0947,1.1357,1.1208,1.0711,1.0372,1.0422,1.0682,1.0376,1.0488,1.0779,1.042,1.0283,1.0283,1.0283,1.0283,1.0283,1.0283,1.0611,1.0943,1.0943,1.1319,1.1737,1.1737,1.2066,1.2437,1.2496,1.3704,1.4995,1.5468,1.5576,1.5543,1.5576,1.6051,1.6466,1.6466,1.6522,1.6522,1.6522,1.6522,1.668,1.7229,1.7787,1.8302,1.8855,1.9406,2.0085,2.0926,2.1334,2.1864,2.2617,2.2954,2.3124,2.3093,2.3117,2.3141,2.31,2.3437,2.327,2.2599,2.3533,2.41,2.4307,2.4788,2.5147,0.0,0.0,0.0,0.0,0.0,0.0,0.0,0.0,0.0,0.0,0.0,0.0,0.0,0.0,0.0,0.0,0.0,0.0,1.1299,1.1386,1.1425,1.126,1.1427,1.1505,1.1505,1.1799,1.1689,1.1057,1.1616,1.1763,1.1319,1.1877,1.2418,1.2991,1.2851,1.301,1.3563,1.3507,1.3457,1.3457,1.2996,1.2689,1.2559,1.253,1.2645,1.2884,1.2933,1.2722,1.23,1.2094,1.1856,1.1691,1.1554,1.142,1.1295,1.1169,1.1243,1.1351,1.1194,1.0959,1.0684,1.0684,1.0725,1.0764,1.0764,1.1094,1.1505,1.1505,1.1664,1.1811,1.1811,1.2417,1.3286,1.4319,1.4985,1.5552,1.6077,1.6471,1.6587,1.6225,1.6612,1.6993,1.6993,1.6993,1.7105,1.7463,1.7544,1.7585,1.7787,1.8302,1.8788,1.9295,2.0074,2.0764,2.1337,2.1927,2.2398,2.2695,2.323,2.3414,2.3212,2.361,2.3735,2.3522,2.3837,2.3777,2.331,2.3862,2.4173,2.4247,2.4659,2.4845,0.0,0.0,0.0,0.0,0.0,0.0,0.0,0.0,0.0,0.0,0.0,0.0,0.0,0.0,0.0,0.0,0.0,0.0,1.1531,1.1653,1.1737,1.1542,1.1799,1.2029,1.2029,1.2318,1.2198,1.1531,1.2126,0.0,1.1752,1.2525,1.3189,1.3705,1.3817,1.3956,1.4097,1.4097,1.4097,1.4097,1.3774,1.3583,1.3432,1.3531,1.3676,1.3969,1.4393,1.4159,1.3409,1.2909,1.2749,1.2692,1.2332,1.2139,1.2008,1.1714,1.1704,1.1758,1.1655,1.141,1.1145,1.1163,1.1185,1.1257,1.125,1.1616,1.2029,1.2029,1.2138,1.2329,1.2529,1.3188,1.4157,1.5386,1.5843,1.6077,1.6439,1.6795,1.6909,1.6552,1.6795,1.7034,1.7034,1.7188,1.7435,1.7787,1.7987,1.8185,1.8341,1.8688,1.914,1.9763,2.04,2.0975,2.1552,2.2141,2.26,2.2848,2.3392,2.3649,2.3544,2.4019,2.421,2.3963,2.4248,2.4266,2.3981,2.4114,2.4266,2.441,2.467,2.4804,0.0,0.0,0.0,0.0,0.0,0.0,0.0,0.0,0.0,0.0,0.0,0.0,0.0,0.0,0.0,0.0,0.0,0.0,1.2508,1.2102,1.1993,1.2437,1.2508,1.2508,1.2508,1.2508,1.2508,1.2532,1.2532,1.2757,1.3213,1.3797,1.4347,1.4784,1.5326,1.532,1.4744,1.4744,1.4709,1.4698,1.4698,1.4508,1.4113,1.5098,1.5358,1.5055,1.5461,1.5084,1.4136,1.3914,1.3815,1.3726,1.2672,1.2557,1.2822,1.1959,1.192,1.2141,1.1783,1.1616,1.1614,1.1665,1.1701,1.1725,1.1808,1.2138,1.2508,1.2508,1.2838,1.3323,1.3959,1.4525,1.5067,1.5633,1.6137,1.6507,1.6511,1.6522,1.6522,1.6522,1.6522,1.6522,1.6522,1.6951,1.734,1.734,1.7814,1.8327,1.8878,1.893,1.9288,2.0212,2.0314,2.0667,2.1521,2.1915,2.2451,2.3165,2.3522,2.3837,2.419,2.4393,2.4495,2.4495,2.47,2.47,2.4512,2.4303,2.441,2.479,2.4804,2.4981,1.8535,0.0,0.0,0.0,0.0,0.0,0.0,0.0,0.0,0.0,0.0,0.0,0.0,0.0,0.0,0.0,0.0,0.0,1.2544,1.2685,1.272,1.2508,1.2803,1.3012,1.3012,1.3012,1.3032,0.0,1.3448,1.3717,1.3847,1.4759,1.5126,1.4796,1.5326,1.5543,1.5365,1.5365,1.5141,1.4698,1.4698,1.4402,1.3914,1.4631,1.5116,1.5473,1.6034,1.6108,1.577,1.4824,1.4468,1.4411,1.4141,1.3814,1.3521,1.3264,1.2993,1.2637,1.2197,1.2093,1.2066,1.1787,1.1948,1.2286,1.2293,1.265,1.3012,1.3012,1.3094,1.3411,1.4437,1.5092,1.5714,1.663,1.6952,1.7073,1.7079,1.7076,1.6951,1.6595,1.6795,1.7076,1.7076,1.7504,1.8118,1.8858,1.939,1.9728,1.9884,1.9919,2.0024,2.028,2.0583,2.1023,2.1552,2.2169,2.2729,2.3165,2.3522,2.3837,2.419,2.4393,2.4495,2.4495,2.47,2.4775,2.4716,2.4512,2.4478,2.4594,2.4731,2.491,0.0,0.0,0.0,0.0,0.0,0.0,1.7263,1.6746,1.6079,0.0,0.0,0.0,0.0,0.0,0.0,0.0,0.0,0.0,1.2826,1.3012,1.3094,1.2838,1.3012,1.3198,1.3198,1.3198,1.3318,1.3631,1.3926,1.43,1.4731,1.5383,1.5629,1.5514,1.5806,1.5964,1.5964,1.5964,1.5788,1.5433,1.5433,1.5287,1.496,1.5287,1.5644,1.6008,1.6337,1.6522,1.6436,1.5744,1.5287,1.5062,1.4789,1.4329,1.3815,1.4097,1.3533,1.2693,1.3109,1.2986,1.2647,1.2636,1.2849,1.3079,1.2853,1.2978,1.3198,1.3198,1.3396,1.3772,1.4676,1.5464,1.6253,1.7098,1.7463,1.7585,1.7353,1.7312,1.7188,1.6879,1.7076,1.7312,1.7312,1.7947,1.8622,1.9192,1.9869,2.0382,2.055,2.0583,2.0649,2.083,2.0959,2.1244,2.184,2.2108,2.2521,2.3165,2.3392,2.3692,2.417,2.4478,2.4623,2.4623,2.4869,2.4955,2.4804,2.4685,2.4651,2.4723,2.4923,2.5049,0.0,0.0,0.0,0.0,0.0,0.0,1.8418,1.7825,1.7163,1.6093,0.0,0.0,0.0,0.0,0.0,0.0,0.0,0.0,1.3198,1.3248,1.3286,1.3286,1.3348,1.3386,1.3386,1.3386,1.3647,1.4223,1.4324,1.479,1.5731,1.5781,1.6007,1.6497,1.6522,1.6522,1.6522,1.6522,1.6466,1.638,1.638,1.638,1.6293,1.638,1.638,1.6423,1.6466,1.6484,1.6421,1.6421,1.6133,1.5632,1.5107,1.4514,1.4039,1.455,1.375,1.2649,1.4067,1.397,1.3346,1.3796,1.3943,1.3922,1.3369,1.3198,1.3198,1.3198,1.3672,1.4323,1.4854,1.5763,1.6745,1.7343,1.7827,1.8027,1.7504,1.7422,1.7463,1.7394,1.7353,1.7312,1.7312,1.8185,1.8902,1.8941,1.9768,2.055,2.0991,2.1055,2.1181,2.1491,2.1213,2.1323,2.2152,2.1882,2.2085,2.3093,2.3212,2.3522,2.4113,2.4543,2.4775,2.4775,2.5103,2.5138,2.4861,2.4828,2.4883,2.4986,2.5203,2.5303,0.0,0.0,0.0,0.0,0.0,0.0,1.8772,1.8668,1.8295,0.0,0.0,0.0,0.0,0.0,0.0,0.0,0.0,0.0,0.0,1.3609,1.3921,1.3921,1.4324,1.4551,1.4551,1.4551,1.4777,1.5329,1.5781,1.6132,1.6346,1.6358,1.6409,1.6522,1.6522,1.6522,1.6522,1.6522,1.6238,1.5776,1.5776,1.5511,1.5062,1.5555,1.5776,1.5808,1.6281,1.6271,1.5856,1.5856,1.6023,1.6293,1.6194,1.5776,1.5229,1.4888,1.4539,1.4146,1.3671,1.3925,1.4348,1.3666,1.3713,1.3976,1.3398,1.3198,1.3198,1.3198,1.3948,1.4879,1.5408,1.6323,1.7411,1.8352,1.865,1.8612,1.8066,1.8302,1.8458,1.8027,1.7585,1.7312,1.7312,1.8185,1.9111,1.9828,2.0469,2.1023,2.143,2.1491,2.1399,2.115,2.1055,2.1181,2.1688,2.1903,2.2235,2.2754,2.3282,2.3671,2.3795,2.4284,2.4561,2.4561,2.4885,2.5118,2.5212,2.5041,2.493,2.4842,2.516,2.5303,0.0,0.0,0.0,1.9639,0.0,0.0,0.0,1.9095,1.8769,1.8214,1.7453,0.0,0.0,0.0,0.0,0.0,0.0,0.0,0.0,1.4085,1.4085,1.4085,1.4576,1.4916,1.4916,1.4916,1.5103,1.5655,1.5929,1.6194,1.6466,1.6194,1.6194,1.6479,1.6522,1.6522,1.6522,1.6522,1.6337,1.6051,1.6051,1.5876,1.5611,1.592,1.6051,1.6039,1.6093,1.5957,1.5668,1.5392,1.5442,1.5731,1.6007,1.5715,1.5195,1.5241,1.4877,1.4371,1.4111,1.4208,1.4385,1.3848,1.3889,1.3984,1.3396,1.3198,1.3248,1.3559,1.4072,1.4638,1.5157,1.6307,1.7417,1.7955,1.8309,1.8419,1.8185,1.7907,1.7706,1.7706,1.7706,1.7787,1.8066,1.8765,1.9507,2.0104,2.0668,2.115,2.1552,2.1794,2.1764,2.1354,2.1306,2.1477,2.1899,2.1878,2.2152,2.2898,2.3259,2.3588,2.3955,2.4302,2.4561,2.4639,2.4872,2.503,2.5056,2.5118,2.5118,2.5056,2.5222,2.5303,0.0,0.0,0.0,0.0,0.0,1.969,0.0,0.0,0.0,1.9043,0.0,0.0,0.0,0.0,0.0,0.0,0.0,0.0,0.0,0.0,0.0,1.4437,1.489,1.5191,1.5191,1.5191,1.5379,1.5819,1.5807,1.6008,1.6466,1.6051,1.6008,1.6466,1.6522,1.6522,1.6522,1.6409,1.6358,1.6358,1.6358,1.6358,1.6358,1.6471,1.6459,1.6333,1.5894,1.5567,1.5341,1.4928,1.4689,1.4638,1.5392,1.5393,1.5007,1.5405,1.512,1.4588,1.4691,1.4594,1.4356,1.4175,1.4009,1.3846,1.3336,1.3198,1.3345,1.4029,1.433,1.4584,1.5323,1.6483,1.7525,1.7712,1.8016,1.8263,1.8263,1.7666,1.7188,1.7544,1.8027,1.8496,1.8855,1.9427,1.9949,2.0304,2.0716,2.1181,2.1658,2.1899,2.1974,2.1764,2.1582,2.1705,2.2237,2.1869,2.2046,2.3045,2.3093,2.3392,2.4074,2.4321,2.4545,2.4746,2.485,2.4872,2.4842,2.5107,2.5234,2.5253,2.5447,2.5553,0.0,0.0,0.0,0.0,1.969,0.0,0.0,0.0,1.9603,1.9603,0.0,0.0,0.0,0.0,0.0,0.0,0.0,0.0,1.5497,0.0,1.6062,1.5585,1.5994,1.6333,1.6333,1.6333,1.6358,1.6421,1.6386,1.6423,1.6522,1.6423,1.6423,1.6522,1.6522,1.6522,1.6522,1.6032,1.5781,1.5781,1.5781,1.5781,1.5806,1.6296,1.6258,1.5781,1.5718,1.5141,1.4274,1.4198,1.3896,1.3536,1.5103,1.5652,1.5549,1.5141,1.5499,1.6026,1.4664,1.4777,1.5337,1.4425,1.3722,1.3286,1.3223,1.3198,1.3415,1.4428,1.5095,1.5868,1.7347,1.7857,1.8229,1.9214,1.9111,1.8817,1.8817,1.9095,1.9207,1.8817,1.9169,1.9406,1.8968,1.9636,2.0382,2.0846,2.0959,2.1291,2.2123,2.1584,2.1415,2.2135,2.1524,2.1385,2.2225,2.1869,2.1948,2.2721,2.2772,2.3069,2.3714,2.4056,2.4339,2.4528,2.4543,2.4693,2.4974,2.501,2.5034,2.5053,2.6011,2.6447,0.0,0.0,0.0,0.0,0.0,0.0,2.0288,0.0,1.969,0.0,0.0,0.0,0.0,0.0,0.0,0.0,1.7605,0.0,0.0,0.0,1.679,0.0,0.0,0.0,1.607,1.6045,1.6045,1.6045,1.5696,1.5789,1.6454,1.6194,1.6139,1.6479,1.6208,1.6045,1.6045,1.5806,1.5693,1.5693,1.6019,1.617,1.6183,1.6409,1.622,1.568,1.5354,1.4815,1.406,1.3709,1.3446,1.3298,1.435,1.4777,1.4752,1.4513,1.4928,1.5367,1.4036,1.4086,1.4651,1.3822,1.3634,1.3709,1.3709,1.3923,1.4337,1.5095,1.5505,1.5919,1.6913,1.765,1.8204,1.8666,1.8855,1.8792,1.8381,1.8272,1.8235,1.8309,1.8491,1.8804,1.9259,1.9864,2.0449,2.0926,2.0991,2.1229,2.184,2.1568,2.1415,2.1524,2.1691,2.1781,2.1899,2.1957,2.2198,2.2669,2.288,2.3189,2.3671,2.3855,2.4037,2.4321,2.4426,2.4575,2.4708,2.4823,2.4877,2.491,2.6063,2.6332,2.1745,0.0,0.0,0.0,0.0,0.0,0.0,0.0,0.0,0.0,0.0,0.0,0.0,0.0,0.0,1.8936,0.0,1.8462,0.0,0.0,0.0,0.0,0.0,0.0,0.0,1.5843,1.5671,1.5667,1.5266,1.5398,1.6228,1.6022,1.6051,1.6479,1.6132,1.5919,1.5919,1.5768,1.5693,1.5706,1.6095,1.6296,1.6296,1.6446,1.6132,1.5442,1.5079,1.4513,1.3833,1.3396,1.3198,1.3235,1.3672,1.3946,1.4085,1.4085,1.4525,1.4927,1.3636,1.3496,1.3821,1.3546,1.3622,1.3883,1.4035,1.4362,1.4866,1.568,1.5924,1.607,1.6757,1.7501,1.8152,1.828,1.8636,1.8801,1.8462,1.8092,1.7945,1.8325,1.8397,1.8615,1.9368,1.9949,2.0416,2.0764,2.0797,2.0959,2.1368,2.1244,2.1039,2.1007,2.1554,2.184,2.1628,2.2032,2.2388,2.259,2.2972,2.3323,2.3544,2.3566,2.3756,2.419,2.4248,2.4467,2.483,2.4751,2.4972,2.5488,2.6371,2.6431,0.0,0.0,0.0,2.1063,0.0,0.0,0.0,0.0,2.0498,0.0,0.0,0.0,0.0,0.0,1.948,1.8802,1.9256,0.0,0.0,0.0,0.0,0.0,0.0,0.0,0.0,1.6218,1.5667,1.5513,1.5618,1.5706,1.5718,1.6178,1.6466,1.6522,1.6497,1.6497,1.6497,1.5957,1.5693,1.5693,1.5718,1.5718,1.5731,1.6271,1.5919,1.4928,1.4916,1.4262,1.3223,1.321,1.3198,1.3198,1.3223,1.3584,1.4085,1.4085,1.4777,1.5429,1.3761,1.321,1.3311,1.3896,1.3672,1.3323,1.3921,1.4097,1.4435,1.6022,1.6493,1.673,1.7755,1.8078,1.821,1.875,1.8878,1.9043,1.9536,1.9609,1.9609,1.9645,1.9645,1.95,1.9006,1.9671,2.0314,2.0314,2.0314,2.0483,2.0959,2.0277,2.0085,2.0894,2.1039,2.1181,2.1552,2.2032,2.231,2.231,2.2857,2.3189,2.323,2.323,2.3522,2.419,2.3896,2.4365,2.5651,2.4886,2.5415,2.7118,2.7167,2.7164,2.2732,0.0,2.26,2.2125,0.0,0.0,0.0,0.0,0.0,0.0,0.0,0.0,0.0,0.0,1.9615,1.939,1.954,1.9615,0.0,0.0,0.0,0.0,0.0,0.0,0.0,0.0,1.6062,1.5673,1.5671,1.5542,1.5205,1.6019,1.6358,1.5982,1.5969,1.5969,1.5969,1.5781,1.5693,1.5706,1.607,1.6045,1.5718,1.6271,1.5919,1.4928,1.5266,1.4828,1.3833,1.4161,1.4111,1.3846,1.4174,1.4462,1.4538,1.3785,1.3973,1.4563,1.3997,1.3534,1.3286,1.3909,1.4211,1.435,1.4576,1.5142,1.5797,1.637,1.6514,1.6677,1.7369,1.7585,1.7787,1.8688,1.8612,1.8498,1.893,1.8771,1.8613,1.8962,1.9031,1.9131,1.9368,1.9696,1.9894,1.9834,2.0093,2.0483,2.0926,2.0465,2.0227,2.0516,2.0829,2.0926,2.0765,2.143,2.1974,2.2282,2.248,2.2773,2.3165,2.3189,2.3522,2.419,2.4606,2.5049,2.5502,2.576,2.5929,2.6024,2.6543,2.6953,2.2665,2.2815,2.2966,2.2744,2.2869,0.0,2.2188,0.0,0.0,0.0,0.0,0.0,0.0,0.0,1.969,1.969,1.969,1.969,0.0,1.969,0.0,0.0,0.0,0.0,0.0,0.0,1.6548,1.5955,1.5983,1.5771,1.5218,1.6019,1.6358,1.6007,1.5982,1.5982,1.5982,1.5982,1.5982,1.5994,1.6346,1.6233,1.5706,1.607,1.5731,1.4928,1.5254,1.5029,1.4412,1.4765,1.4702,1.4387,1.4688,1.4955,1.5028,1.3935,1.3622,1.3883,1.4462,1.4149,1.3647,1.4325,1.4714,1.4941,1.5026,1.5602,1.6271,1.6459,1.6522,1.6595,1.6909,1.7146,1.7463,1.8185,1.838,1.8384,1.8484,1.852,1.8592,1.875,1.8941,1.9146,1.9368,1.9566,1.9675,1.9651,1.9899,2.0193,2.0499,2.0261,2.0089,2.0089,2.0632,2.0991,2.1007,2.1538,2.1974,2.2282,2.231,2.2535,2.2996,2.3021,2.3277,2.3837,2.4759,2.5369,2.5661,2.6295,2.6484,2.6266,2.6484,2.674]}]]